<?xml version="1.0" encoding="UTF-8" standalone="no" ?>
<gpx xmlns="http://www.topografix.com/GPX/1/1" xmlns:xsi="http://www.w3.org/2001/XMLSchema-instance" xsi:schemaLocation="http://www.topografix.com/GPX/1/1 http://www.topografix.com/GPX/1/1/gpx.xsd" version="1.1" creator="VisuGPX - https://www.visugpx.com">
  <metadata>
    <name>Sortie en mode récup courbatures Le Grand Veymont</name>
    <desc><![CDATA[Une sortie \"post-combat\" après l\'ascension corsée du Grand Veymont ! L\'objectif du jour était simple : faire tourner les jambes doucement et tenter de dissoudre l\'acide lactique encore bien présent dans les cuisses. 

Fidèle compagnon de route, c\'est le compteur Bryton Rider S810 qui a enregistré toutes les données de ce tracé. Notre parcours nous a menés sur une boucle courte au départ de Davézieux, passant par Peaugres, Colombier-le-Cardinal et Saint-Cyr.

Bien que typé \"récupération\", le relief ardéchois nous rappelle vite où nous sommes : le profil n\'est pas totalement plat et totalise tout de même 279 m de dénivelé positif pour 21,59 km. Les sensations étaient... disons, bien \"musculaires\", et l\'analyse des données montre qu\'il a fallu s\'employer sur 3 petites bosses successives (pentes moyennes entre 3,3% et 4,7%).

Une sortie bouclée avec une vitesse moyenne de 22 km/h et un thermomètre qui affichait un pic à 39°C sous le soleil ! Ça pique, mais ça fait un bien fou de faire repartir la machine.]]></desc>
  </metadata>
  <trk>
    <name><![CDATA[Sortie en mode récup courbatures Le Grand Veymont]]></name>
    <trkseg>
      <trkpt lat="45.23947" lon="4.69131">
        <ele>436.54931</ele>
        <time>2026-07-07T10:14:33.168Z</time>
      </trkpt>
      <trkpt lat="45.23938" lon="4.69119">
        <ele>436.54931</ele>
        <time>2026-07-07T10:15:13.148Z</time>
      </trkpt>
      <trkpt lat="45.2393" lon="4.69108">
        <ele>436.54931</ele>
        <time>2026-07-07T10:15:18.148Z</time>
      </trkpt>
      <trkpt lat="45.23921" lon="4.69097">
        <ele>436.54931</ele>
        <time>2026-07-07T10:15:23.152Z</time>
      </trkpt>
      <trkpt lat="45.2391" lon="4.691">
        <ele>436.54931</ele>
        <time>2026-07-07T10:15:27.146Z</time>
      </trkpt>
      <trkpt lat="45.23903" lon="4.69092">
        <ele>436.54931</ele>
        <time>2026-07-07T10:15:32.162Z</time>
      </trkpt>
      <trkpt lat="45.23908" lon="4.69079">
        <ele>436.54931</ele>
        <time>2026-07-07T10:15:35.101Z</time>
      </trkpt>
      <trkpt lat="45.23916" lon="4.69071">
        <ele>436.54931</ele>
        <time>2026-07-07T10:15:37.115Z</time>
      </trkpt>
      <trkpt lat="45.23925" lon="4.69069">
        <ele>436.54931</ele>
        <time>2026-07-07T10:15:39.162Z</time>
      </trkpt>
      <trkpt lat="45.23935" lon="4.69072">
        <ele>436.752644</ele>
        <time>2026-07-07T10:15:41.144Z</time>
      </trkpt>
      <trkpt lat="45.23943" lon="4.69078">
        <ele>437.131804</ele>
        <time>2026-07-07T10:15:43.151Z</time>
      </trkpt>
      <trkpt lat="45.23952" lon="4.69088">
        <ele>437.576014</ele>
        <time>2026-07-07T10:15:46.145Z</time>
      </trkpt>
      <trkpt lat="45.23958" lon="4.69097">
        <ele>437.943117</ele>
        <time>2026-07-07T10:15:49.129Z</time>
      </trkpt>
      <trkpt lat="45.23966" lon="4.69109">
        <ele>438.398469</ele>
        <time>2026-07-07T10:15:53.141Z</time>
      </trkpt>
      <trkpt lat="45.23974" lon="4.69119">
        <ele>438.806161</ele>
        <time>2026-07-07T10:15:57.142Z</time>
      </trkpt>
      <trkpt lat="45.23978" lon="4.6913">
        <ele>439.170679</ele>
        <time>2026-07-07T10:16:01.144Z</time>
      </trkpt>
      <trkpt lat="45.23985" lon="4.6914">
        <ele>439.550231</ele>
        <time>2026-07-07T10:16:05.144Z</time>
      </trkpt>
      <trkpt lat="45.23989" lon="4.69152">
        <ele>439.937014</ele>
        <time>2026-07-07T10:16:09.143Z</time>
      </trkpt>
      <trkpt lat="45.23993" lon="4.69164">
        <ele>440.302875</ele>
        <time>2026-07-07T10:16:13.140Z</time>
      </trkpt>
      <trkpt lat="45.23996" lon="4.69177">
        <ele>440.672357</ele>
        <time>2026-07-07T10:16:17.150Z</time>
      </trkpt>
      <trkpt lat="45.23999" lon="4.69192">
        <ele>441.113836</ele>
        <time>2026-07-07T10:16:22.156Z</time>
      </trkpt>
      <trkpt lat="45.24002" lon="4.69205">
        <ele>441.505783</ele>
        <time>2026-07-07T10:16:26.151Z</time>
      </trkpt>
      <trkpt lat="45.24004" lon="4.69219">
        <ele>441.902644</ele>
        <time>2026-07-07T10:16:30.151Z</time>
      </trkpt>
      <trkpt lat="45.24006" lon="4.69234">
        <ele>442.33894</ele>
        <time>2026-07-07T10:16:34.141Z</time>
      </trkpt>
      <trkpt lat="45.24007" lon="4.69247">
        <ele>442.7213</ele>
        <time>2026-07-07T10:16:38.139Z</time>
      </trkpt>
      <trkpt lat="45.24005" lon="4.69263">
        <ele>443.161016</ele>
        <time>2026-07-07T10:16:42.157Z</time>
      </trkpt>
      <trkpt lat="45.24005" lon="4.69278">
        <ele>443.577895</ele>
        <time>2026-07-07T10:16:46.164Z</time>
      </trkpt>
      <trkpt lat="45.24005" lon="4.69293">
        <ele>444.143301</ele>
        <time>2026-07-07T10:16:50.157Z</time>
      </trkpt>
      <trkpt lat="45.24006" lon="4.69306">
        <ele>444.70474</ele>
        <time>2026-07-07T10:16:54.151Z</time>
      </trkpt>
      <trkpt lat="45.24007" lon="4.69321">
        <ele>445.378466</ele>
        <time>2026-07-07T10:16:58.151Z</time>
      </trkpt>
      <trkpt lat="45.24008" lon="4.69336">
        <ele>446.011451</ele>
        <time>2026-07-07T10:17:02.145Z</time>
      </trkpt>
      <trkpt lat="45.24006" lon="4.69351">
        <ele>446.660293</ele>
        <time>2026-07-07T10:17:06.150Z</time>
      </trkpt>
      <trkpt lat="45.24005" lon="4.69366">
        <ele>447.298607</ele>
        <time>2026-07-07T10:17:10.144Z</time>
      </trkpt>
      <trkpt lat="45.24004" lon="4.69382">
        <ele>447.986545</ele>
        <time>2026-07-07T10:17:14.154Z</time>
      </trkpt>
      <trkpt lat="45.24004" lon="4.69397">
        <ele>448.622204</ele>
        <time>2026-07-07T10:17:18.146Z</time>
      </trkpt>
      <trkpt lat="45.24003" lon="4.69413">
        <ele>449.34176</ele>
        <time>2026-07-07T10:17:22.149Z</time>
      </trkpt>
      <trkpt lat="45.24001" lon="4.69426">
        <ele>449.913643</ele>
        <time>2026-07-07T10:17:25.155Z</time>
      </trkpt>
      <trkpt lat="45.23999" lon="4.69441">
        <ele>450.551339</ele>
        <time>2026-07-07T10:17:29.146Z</time>
      </trkpt>
      <trkpt lat="45.23999" lon="4.69456">
        <ele>451.173856</ele>
        <time>2026-07-07T10:17:33.145Z</time>
      </trkpt>
      <trkpt lat="45.23998" lon="4.69471">
        <ele>451.85122</ele>
        <time>2026-07-07T10:17:37.150Z</time>
      </trkpt>
      <trkpt lat="45.23999" lon="4.69486">
        <ele>452.500213</ele>
        <time>2026-07-07T10:17:41.142Z</time>
      </trkpt>
      <trkpt lat="45.24" lon="4.69501">
        <ele>453.144795</ele>
        <time>2026-07-07T10:17:45.146Z</time>
      </trkpt>
      <trkpt lat="45.24001" lon="4.69516">
        <ele>453.78439</ele>
        <time>2026-07-07T10:17:49.143Z</time>
      </trkpt>
      <trkpt lat="45.24" lon="4.6953">
        <ele>454.379983</ele>
        <time>2026-07-07T10:17:53.154Z</time>
      </trkpt>
      <trkpt lat="45.24" lon="4.69545">
        <ele>454.948204</ele>
        <time>2026-07-07T10:17:57.152Z</time>
      </trkpt>
      <trkpt lat="45.24" lon="4.69561">
        <ele>455.491796</ele>
        <time>2026-07-07T10:18:01.148Z</time>
      </trkpt>
      <trkpt lat="45.24" lon="4.69574">
        <ele>455.920167</ele>
        <time>2026-07-07T10:18:04.127Z</time>
      </trkpt>
      <trkpt lat="45.24002" lon="4.6959">
        <ele>456.435566</ele>
        <time>2026-07-07T10:18:08.148Z</time>
      </trkpt>
      <trkpt lat="45.24006" lon="4.69604">
        <ele>456.93156</ele>
        <time>2026-07-07T10:18:12.151Z</time>
      </trkpt>
      <trkpt lat="45.24011" lon="4.69615">
        <ele>457.384103</ele>
        <time>2026-07-07T10:18:16.150Z</time>
      </trkpt>
      <trkpt lat="45.24014" lon="4.69629">
        <ele>457.881981</ele>
        <time>2026-07-07T10:18:20.151Z</time>
      </trkpt>
      <trkpt lat="45.24015" lon="4.69644">
        <ele>458.378346</ele>
        <time>2026-07-07T10:18:24.160Z</time>
      </trkpt>
      <trkpt lat="45.24017" lon="4.6966">
        <ele>458.910443</ele>
        <time>2026-07-07T10:18:28.146Z</time>
      </trkpt>
      <trkpt lat="45.24019" lon="4.69676">
        <ele>459.42587</ele>
        <time>2026-07-07T10:18:32.145Z</time>
      </trkpt>
      <trkpt lat="45.2402" lon="4.69691">
        <ele>459.937866</ele>
        <time>2026-07-07T10:18:36.149Z</time>
      </trkpt>
      <trkpt lat="45.24014" lon="4.69703">
        <ele>460.402053</ele>
        <time>2026-07-07T10:18:39.158Z</time>
      </trkpt>
      <trkpt lat="45.24007" lon="4.69715">
        <ele>460.913384</ele>
        <time>2026-07-07T10:18:42.144Z</time>
      </trkpt>
      <trkpt lat="45.24" lon="4.69731">
        <ele>461.544492</ele>
        <time>2026-07-07T10:18:45.158Z</time>
      </trkpt>
      <trkpt lat="45.23999" lon="4.69749">
        <ele>462.122903</ele>
        <time>2026-07-07T10:18:48.150Z</time>
      </trkpt>
      <trkpt lat="45.24007" lon="4.69762">
        <ele>462.706707</ele>
        <time>2026-07-07T10:18:51.163Z</time>
      </trkpt>
      <trkpt lat="45.24018" lon="4.69771">
        <ele>463.158675</ele>
        <time>2026-07-07T10:18:54.144Z</time>
      </trkpt>
      <trkpt lat="45.24028" lon="4.6977">
        <ele>463.238652</ele>
        <time>2026-07-07T10:18:56.101Z</time>
      </trkpt>
      <trkpt lat="45.24037" lon="4.6977">
        <ele>463.318401</ele>
        <time>2026-07-07T10:18:58.114Z</time>
      </trkpt>
      <trkpt lat="45.24046" lon="4.69774">
        <ele>463.398419</ele>
        <time>2026-07-07T10:19:00.124Z</time>
      </trkpt>
      <trkpt lat="45.24053" lon="4.69782">
        <ele>463.480702</ele>
        <time>2026-07-07T10:19:02.153Z</time>
      </trkpt>
      <trkpt lat="45.2406" lon="4.69793">
        <ele>463.567612</ele>
        <time>2026-07-07T10:19:04.121Z</time>
      </trkpt>
      <trkpt lat="45.24067" lon="4.69804">
        <ele>463.660079</ele>
        <time>2026-07-07T10:19:06.093Z</time>
      </trkpt>
      <trkpt lat="45.24073" lon="4.69816">
        <ele>463.746987</ele>
        <time>2026-07-07T10:19:08.155Z</time>
      </trkpt>
      <trkpt lat="45.2408" lon="4.69829">
        <ele>463.843273</ele>
        <time>2026-07-07T10:19:10.146Z</time>
      </trkpt>
      <trkpt lat="45.24084" lon="4.69843">
        <ele>463.937294</ele>
        <time>2026-07-07T10:19:12.140Z</time>
      </trkpt>
      <trkpt lat="45.2409" lon="4.69857">
        <ele>464.033897</ele>
        <time>2026-07-07T10:19:14.142Z</time>
      </trkpt>
      <trkpt lat="45.24095" lon="4.6987">
        <ele>464.121752</ele>
        <time>2026-07-07T10:19:16.148Z</time>
      </trkpt>
      <trkpt lat="45.24101" lon="4.69886">
        <ele>464.235745</ele>
        <time>2026-07-07T10:19:19.135Z</time>
      </trkpt>
      <trkpt lat="45.24106" lon="4.69897">
        <ele>464.312859</ele>
        <time>2026-07-07T10:19:21.141Z</time>
      </trkpt>
      <trkpt lat="45.24111" lon="4.69914">
        <ele>464.425774</ele>
        <time>2026-07-07T10:19:24.142Z</time>
      </trkpt>
      <trkpt lat="45.24115" lon="4.69928">
        <ele>464.515324</ele>
        <time>2026-07-07T10:19:26.134Z</time>
      </trkpt>
      <trkpt lat="45.24119" lon="4.69941">
        <ele>464.599988</ele>
        <time>2026-07-07T10:19:28.141Z</time>
      </trkpt>
      <trkpt lat="45.24122" lon="4.69954">
        <ele>464.715675</ele>
        <time>2026-07-07T10:19:30.146Z</time>
      </trkpt>
      <trkpt lat="45.24125" lon="4.69967">
        <ele>464.987608</ele>
        <time>2026-07-07T10:19:32.144Z</time>
      </trkpt>
      <trkpt lat="45.24129" lon="4.69983">
        <ele>465.318893</ele>
        <time>2026-07-07T10:19:35.140Z</time>
      </trkpt>
      <trkpt lat="45.24134" lon="4.69999">
        <ele>465.665278</ele>
        <time>2026-07-07T10:19:38.153Z</time>
      </trkpt>
      <trkpt lat="45.24139" lon="4.70014">
        <ele>465.987873</ele>
        <time>2026-07-07T10:19:41.149Z</time>
      </trkpt>
      <trkpt lat="45.24143" lon="4.70027">
        <ele>466.274963</ele>
        <time>2026-07-07T10:19:43.141Z</time>
      </trkpt>
      <trkpt lat="45.24148" lon="4.70044">
        <ele>466.641605</ele>
        <time>2026-07-07T10:19:46.134Z</time>
      </trkpt>
      <trkpt lat="45.24154" lon="4.70059">
        <ele>466.97743</ele>
        <time>2026-07-07T10:19:49.145Z</time>
      </trkpt>
      <trkpt lat="45.24159" lon="4.70074">
        <ele>467.307774</ele>
        <time>2026-07-07T10:19:52.152Z</time>
      </trkpt>
      <trkpt lat="45.24165" lon="4.70091">
        <ele>467.676324</ele>
        <time>2026-07-07T10:19:55.143Z</time>
      </trkpt>
      <trkpt lat="45.24169" lon="4.70109">
        <ele>468.048482</ele>
        <time>2026-07-07T10:19:58.143Z</time>
      </trkpt>
      <trkpt lat="45.24173" lon="4.70125">
        <ele>468.385246</ele>
        <time>2026-07-07T10:20:01.115Z</time>
      </trkpt>
      <trkpt lat="45.24179" lon="4.70141">
        <ele>468.738944</ele>
        <time>2026-07-07T10:20:04.141Z</time>
      </trkpt>
      <trkpt lat="45.24185" lon="4.70156">
        <ele>469.083435</ele>
        <time>2026-07-07T10:20:07.142Z</time>
      </trkpt>
      <trkpt lat="45.2419" lon="4.70173">
        <ele>469.445522</ele>
        <time>2026-07-07T10:20:10.142Z</time>
      </trkpt>
      <trkpt lat="45.24195" lon="4.70191">
        <ele>469.777004</ele>
        <time>2026-07-07T10:20:13.136Z</time>
      </trkpt>
      <trkpt lat="45.242" lon="4.70208">
        <ele>469.975795</ele>
        <time>2026-07-07T10:20:16.139Z</time>
      </trkpt>
      <trkpt lat="45.24204" lon="4.7022">
        <ele>470.119815</ele>
        <time>2026-07-07T10:20:18.140Z</time>
      </trkpt>
      <trkpt lat="45.24208" lon="4.70232">
        <ele>470.270878</ele>
        <time>2026-07-07T10:20:20.145Z</time>
      </trkpt>
      <trkpt lat="45.24212" lon="4.70244">
        <ele>470.412354</ele>
        <time>2026-07-07T10:20:22.143Z</time>
      </trkpt>
      <trkpt lat="45.24217" lon="4.70262">
        <ele>470.622882</ele>
        <time>2026-07-07T10:20:25.143Z</time>
      </trkpt>
      <trkpt lat="45.24222" lon="4.70274">
        <ele>470.77898</ele>
        <time>2026-07-07T10:20:27.149Z</time>
      </trkpt>
      <trkpt lat="45.24226" lon="4.70286">
        <ele>470.918369</ele>
        <time>2026-07-07T10:20:29.145Z</time>
      </trkpt>
      <trkpt lat="45.24229" lon="4.70299">
        <ele>471.070191</ele>
        <time>2026-07-07T10:20:31.146Z</time>
      </trkpt>
      <trkpt lat="45.24233" lon="4.70311">
        <ele>471.221911</ele>
        <time>2026-07-07T10:20:33.138Z</time>
      </trkpt>
      <trkpt lat="45.24238" lon="4.70328">
        <ele>471.420542</ele>
        <time>2026-07-07T10:20:36.148Z</time>
      </trkpt>
      <trkpt lat="45.24243" lon="4.70344">
        <ele>471.612144</ele>
        <time>2026-07-07T10:20:39.150Z</time>
      </trkpt>
      <trkpt lat="45.24246" lon="4.70356">
        <ele>471.752053</ele>
        <time>2026-07-07T10:20:41.144Z</time>
      </trkpt>
      <trkpt lat="45.24249" lon="4.70369">
        <ele>471.895165</ele>
        <time>2026-07-07T10:20:43.154Z</time>
      </trkpt>
      <trkpt lat="45.24253" lon="4.70381">
        <ele>472.041183</ele>
        <time>2026-07-07T10:20:45.153Z</time>
      </trkpt>
      <trkpt lat="45.24257" lon="4.70394">
        <ele>472.194465</ele>
        <time>2026-07-07T10:20:47.104Z</time>
      </trkpt>
      <trkpt lat="45.2426" lon="4.70406">
        <ele>472.336966</ele>
        <time>2026-07-07T10:20:49.136Z</time>
      </trkpt>
      <trkpt lat="45.24264" lon="4.70417">
        <ele>472.477557</ele>
        <time>2026-07-07T10:20:51.149Z</time>
      </trkpt>
      <trkpt lat="45.24269" lon="4.70431">
        <ele>472.578793</ele>
        <time>2026-07-07T10:20:53.136Z</time>
      </trkpt>
      <trkpt lat="45.24273" lon="4.70445">
        <ele>472.669137</ele>
        <time>2026-07-07T10:20:55.139Z</time>
      </trkpt>
      <trkpt lat="45.24276" lon="4.70458">
        <ele>472.751781</ele>
        <time>2026-07-07T10:20:57.139Z</time>
      </trkpt>
      <trkpt lat="45.24281" lon="4.70471">
        <ele>472.833834</ele>
        <time>2026-07-07T10:20:59.145Z</time>
      </trkpt>
      <trkpt lat="45.24284" lon="4.70484">
        <ele>472.917207</ele>
        <time>2026-07-07T10:21:01.142Z</time>
      </trkpt>
      <trkpt lat="45.24288" lon="4.70498">
        <ele>473.005916</ele>
        <time>2026-07-07T10:21:03.140Z</time>
      </trkpt>
      <trkpt lat="45.24292" lon="4.70513">
        <ele>473.097352</ele>
        <time>2026-07-07T10:21:05.141Z</time>
      </trkpt>
      <trkpt lat="45.24297" lon="4.70528">
        <ele>473.195506</ele>
        <time>2026-07-07T10:21:07.148Z</time>
      </trkpt>
      <trkpt lat="45.24303" lon="4.70544">
        <ele>473.299604</ele>
        <time>2026-07-07T10:21:09.157Z</time>
      </trkpt>
      <trkpt lat="45.24308" lon="4.70558">
        <ele>473.398029</ele>
        <time>2026-07-07T10:21:11.141Z</time>
      </trkpt>
      <trkpt lat="45.24314" lon="4.70573">
        <ele>473.497325</ele>
        <time>2026-07-07T10:21:13.118Z</time>
      </trkpt>
      <trkpt lat="45.24319" lon="4.7059">
        <ele>473.602467</ele>
        <time>2026-07-07T10:21:15.150Z</time>
      </trkpt>
      <trkpt lat="45.24324" lon="4.70608">
        <ele>473.714928</ele>
        <time>2026-07-07T10:21:17.144Z</time>
      </trkpt>
      <trkpt lat="45.24329" lon="4.70627">
        <ele>473.836087</ele>
        <time>2026-07-07T10:21:19.156Z</time>
      </trkpt>
      <trkpt lat="45.24334" lon="4.70646">
        <ele>473.954327</ele>
        <time>2026-07-07T10:21:21.148Z</time>
      </trkpt>
      <trkpt lat="45.24339" lon="4.70666">
        <ele>473.905499</ele>
        <time>2026-07-07T10:21:23.141Z</time>
      </trkpt>
      <trkpt lat="45.24343" lon="4.70686">
        <ele>473.744143</ele>
        <time>2026-07-07T10:21:25.140Z</time>
      </trkpt>
      <trkpt lat="45.24347" lon="4.70706">
        <ele>473.591254</ele>
        <time>2026-07-07T10:21:27.136Z</time>
      </trkpt>
      <trkpt lat="45.24351" lon="4.70724">
        <ele>473.448127</ele>
        <time>2026-07-07T10:21:29.152Z</time>
      </trkpt>
      <trkpt lat="45.24355" lon="4.70743">
        <ele>473.300612</ele>
        <time>2026-07-07T10:21:31.152Z</time>
      </trkpt>
      <trkpt lat="45.24359" lon="4.70763">
        <ele>473.142341</ele>
        <time>2026-07-07T10:21:33.153Z</time>
      </trkpt>
      <trkpt lat="45.24362" lon="4.70783">
        <ele>472.985326</ele>
        <time>2026-07-07T10:21:35.134Z</time>
      </trkpt>
      <trkpt lat="45.24366" lon="4.70802">
        <ele>472.834197</ele>
        <time>2026-07-07T10:21:37.145Z</time>
      </trkpt>
      <trkpt lat="45.24372" lon="4.70821">
        <ele>472.676336</ele>
        <time>2026-07-07T10:21:39.153Z</time>
      </trkpt>
      <trkpt lat="45.24378" lon="4.70841">
        <ele>472.516381</ele>
        <time>2026-07-07T10:21:41.142Z</time>
      </trkpt>
      <trkpt lat="45.24384" lon="4.7086">
        <ele>472.360825</ele>
        <time>2026-07-07T10:21:43.157Z</time>
      </trkpt>
      <trkpt lat="45.24391" lon="4.70877">
        <ele>472.209811</ele>
        <time>2026-07-07T10:21:45.154Z</time>
      </trkpt>
      <trkpt lat="45.24396" lon="4.70895">
        <ele>472.043493</ele>
        <time>2026-07-07T10:21:47.145Z</time>
      </trkpt>
      <trkpt lat="45.24403" lon="4.70913">
        <ele>471.59647</ele>
        <time>2026-07-07T10:21:49.150Z</time>
      </trkpt>
      <trkpt lat="45.24409" lon="4.70932">
        <ele>471.151385</ele>
        <time>2026-07-07T10:21:51.142Z</time>
      </trkpt>
      <trkpt lat="45.24419" lon="4.70951">
        <ele>470.656748</ele>
        <time>2026-07-07T10:21:53.153Z</time>
      </trkpt>
      <trkpt lat="45.24426" lon="4.70971">
        <ele>470.194612</ele>
        <time>2026-07-07T10:21:55.150Z</time>
      </trkpt>
      <trkpt lat="45.24431" lon="4.70988">
        <ele>469.797225</ele>
        <time>2026-07-07T10:21:57.122Z</time>
      </trkpt>
      <trkpt lat="45.24432" lon="4.71001">
        <ele>469.502831</ele>
        <time>2026-07-07T10:22:01.153Z</time>
      </trkpt>
      <trkpt lat="45.24432" lon="4.71015">
        <ele>469.214281</ele>
        <time>2026-07-07T10:22:04.150Z</time>
      </trkpt>
      <trkpt lat="45.24438" lon="4.71032">
        <ele>468.811643</ele>
        <time>2026-07-07T10:22:07.151Z</time>
      </trkpt>
      <trkpt lat="45.24447" lon="4.71041">
        <ele>468.473667</ele>
        <time>2026-07-07T10:22:09.158Z</time>
      </trkpt>
      <trkpt lat="45.24457" lon="4.71051">
        <ele>468.08628</ele>
        <time>2026-07-07T10:22:11.164Z</time>
      </trkpt>
      <trkpt lat="45.24466" lon="4.71066">
        <ele>467.666672</ele>
        <time>2026-07-07T10:22:13.133Z</time>
      </trkpt>
      <trkpt lat="45.24474" lon="4.71079">
        <ele>467.304848</ele>
        <time>2026-07-07T10:22:15.153Z</time>
      </trkpt>
      <trkpt lat="45.24483" lon="4.71096">
        <ele>466.850234</ele>
        <time>2026-07-07T10:22:17.149Z</time>
      </trkpt>
      <trkpt lat="45.24492" lon="4.71114">
        <ele>466.026963</ele>
        <time>2026-07-07T10:22:19.151Z</time>
      </trkpt>
      <trkpt lat="45.24503" lon="4.71135">
        <ele>464.685138</ele>
        <time>2026-07-07T10:22:21.154Z</time>
      </trkpt>
      <trkpt lat="45.24513" lon="4.71156">
        <ele>463.309135</ele>
        <time>2026-07-07T10:22:23.150Z</time>
      </trkpt>
      <trkpt lat="45.2452" lon="4.71167">
        <ele>462.533913</ele>
        <time>2026-07-07T10:22:24.146Z</time>
      </trkpt>
      <trkpt lat="45.24527" lon="4.71178">
        <ele>461.758693</ele>
        <time>2026-07-07T10:22:25.154Z</time>
      </trkpt>
      <trkpt lat="45.24533" lon="4.71189">
        <ele>461.033031</ele>
        <time>2026-07-07T10:22:26.144Z</time>
      </trkpt>
      <trkpt lat="45.24538" lon="4.712">
        <ele>460.304137</ele>
        <time>2026-07-07T10:22:27.147Z</time>
      </trkpt>
      <trkpt lat="45.24544" lon="4.71213">
        <ele>459.526629</ele>
        <time>2026-07-07T10:22:28.142Z</time>
      </trkpt>
      <trkpt lat="45.24551" lon="4.71225">
        <ele>458.72159</ele>
        <time>2026-07-07T10:22:29.149Z</time>
      </trkpt>
      <trkpt lat="45.24557" lon="4.71236">
        <ele>457.930796</ele>
        <time>2026-07-07T10:22:30.144Z</time>
      </trkpt>
      <trkpt lat="45.24564" lon="4.71248">
        <ele>457.151551</ele>
        <time>2026-07-07T10:22:31.151Z</time>
      </trkpt>
      <trkpt lat="45.24571" lon="4.71259">
        <ele>456.337656</ele>
        <time>2026-07-07T10:22:32.151Z</time>
      </trkpt>
      <trkpt lat="45.24577" lon="4.71272">
        <ele>455.522148</ele>
        <time>2026-07-07T10:22:33.152Z</time>
      </trkpt>
      <trkpt lat="45.24584" lon="4.71285">
        <ele>454.645049</ele>
        <time>2026-07-07T10:22:34.141Z</time>
      </trkpt>
      <trkpt lat="45.24592" lon="4.71297">
        <ele>453.81433</ele>
        <time>2026-07-07T10:22:35.153Z</time>
      </trkpt>
      <trkpt lat="45.246" lon="4.71308">
        <ele>453.088467</ele>
        <time>2026-07-07T10:22:36.143Z</time>
      </trkpt>
      <trkpt lat="45.24609" lon="4.7132">
        <ele>452.85877</ele>
        <time>2026-07-07T10:22:37.152Z</time>
      </trkpt>
      <trkpt lat="45.24618" lon="4.71333">
        <ele>452.618397</ele>
        <time>2026-07-07T10:22:38.149Z</time>
      </trkpt>
      <trkpt lat="45.24627" lon="4.71345">
        <ele>452.378875</ele>
        <time>2026-07-07T10:22:39.153Z</time>
      </trkpt>
      <trkpt lat="45.24635" lon="4.71356">
        <ele>452.158541</ele>
        <time>2026-07-07T10:22:40.138Z</time>
      </trkpt>
      <trkpt lat="45.24643" lon="4.71369">
        <ele>451.929646</ele>
        <time>2026-07-07T10:22:41.152Z</time>
      </trkpt>
      <trkpt lat="45.24652" lon="4.7138">
        <ele>451.700249</ele>
        <time>2026-07-07T10:22:42.149Z</time>
      </trkpt>
      <trkpt lat="45.24661" lon="4.71391">
        <ele>451.47408</ele>
        <time>2026-07-07T10:22:43.157Z</time>
      </trkpt>
      <trkpt lat="45.24669" lon="4.71402">
        <ele>451.248156</ele>
        <time>2026-07-07T10:22:44.120Z</time>
      </trkpt>
      <trkpt lat="45.24678" lon="4.71413">
        <ele>451.029014</ele>
        <time>2026-07-07T10:22:45.150Z</time>
      </trkpt>
      <trkpt lat="45.24686" lon="4.71423">
        <ele>450.826579</ele>
        <time>2026-07-07T10:22:46.153Z</time>
      </trkpt>
      <trkpt lat="45.24694" lon="4.71432">
        <ele>450.631675</ele>
        <time>2026-07-07T10:22:47.144Z</time>
      </trkpt>
      <trkpt lat="45.24702" lon="4.71441">
        <ele>450.436549</ele>
        <time>2026-07-07T10:22:48.144Z</time>
      </trkpt>
      <trkpt lat="45.24709" lon="4.71449">
        <ele>450.250591</ele>
        <time>2026-07-07T10:22:49.157Z</time>
      </trkpt>
      <trkpt lat="45.24717" lon="4.71458">
        <ele>450.058675</ele>
        <time>2026-07-07T10:22:50.145Z</time>
      </trkpt>
      <trkpt lat="45.24724" lon="4.71467">
        <ele>449.876748</ele>
        <time>2026-07-07T10:22:51.147Z</time>
      </trkpt>
      <trkpt lat="45.24739" lon="4.71482">
        <ele>449.742443</ele>
        <time>2026-07-07T10:22:53.154Z</time>
      </trkpt>
      <trkpt lat="45.24753" lon="4.715">
        <ele>449.899509</ele>
        <time>2026-07-07T10:22:55.147Z</time>
      </trkpt>
      <trkpt lat="45.2476" lon="4.7151">
        <ele>449.982883</ele>
        <time>2026-07-07T10:22:56.150Z</time>
      </trkpt>
      <trkpt lat="45.24774" lon="4.71525">
        <ele>450.124015</ele>
        <time>2026-07-07T10:22:58.154Z</time>
      </trkpt>
      <trkpt lat="45.24786" lon="4.71539">
        <ele>450.257393</ele>
        <time>2026-07-07T10:23:00.160Z</time>
      </trkpt>
      <trkpt lat="45.24798" lon="4.71551">
        <ele>450.380579</ele>
        <time>2026-07-07T10:23:02.154Z</time>
      </trkpt>
      <trkpt lat="45.2481" lon="4.71563">
        <ele>450.499971</ele>
        <time>2026-07-07T10:23:04.152Z</time>
      </trkpt>
      <trkpt lat="45.24822" lon="4.71576">
        <ele>450.625184</ele>
        <time>2026-07-07T10:23:06.152Z</time>
      </trkpt>
      <trkpt lat="45.24834" lon="4.71586">
        <ele>450.741331</ele>
        <time>2026-07-07T10:23:08.154Z</time>
      </trkpt>
      <trkpt lat="45.24846" lon="4.71597">
        <ele>450.859194</ele>
        <time>2026-07-07T10:23:10.152Z</time>
      </trkpt>
      <trkpt lat="45.24858" lon="4.71608">
        <ele>450.978647</ele>
        <time>2026-07-07T10:23:12.145Z</time>
      </trkpt>
      <trkpt lat="45.2487" lon="4.71618">
        <ele>451.091903</ele>
        <time>2026-07-07T10:23:14.159Z</time>
      </trkpt>
      <trkpt lat="45.24881" lon="4.71627">
        <ele>451.206486</ele>
        <time>2026-07-07T10:23:16.147Z</time>
      </trkpt>
      <trkpt lat="45.24894" lon="4.71636">
        <ele>451.336432</ele>
        <time>2026-07-07T10:23:18.154Z</time>
      </trkpt>
      <trkpt lat="45.24904" lon="4.71643">
        <ele>451.445471</ele>
        <time>2026-07-07T10:23:20.153Z</time>
      </trkpt>
      <trkpt lat="45.24916" lon="4.71649">
        <ele>451.56196</ele>
        <time>2026-07-07T10:23:22.153Z</time>
      </trkpt>
      <trkpt lat="45.24927" lon="4.71656">
        <ele>451.679466</ele>
        <time>2026-07-07T10:23:24.150Z</time>
      </trkpt>
      <trkpt lat="45.24939" lon="4.71664">
        <ele>451.798894</ele>
        <time>2026-07-07T10:23:26.142Z</time>
      </trkpt>
      <trkpt lat="45.24951" lon="4.71669">
        <ele>451.916424</ele>
        <time>2026-07-07T10:23:28.157Z</time>
      </trkpt>
      <trkpt lat="45.24963" lon="4.71674">
        <ele>452.036581</ele>
        <time>2026-07-07T10:23:30.155Z</time>
      </trkpt>
      <trkpt lat="45.24976" lon="4.71679">
        <ele>452.158726</ele>
        <time>2026-07-07T10:23:32.152Z</time>
      </trkpt>
      <trkpt lat="45.24987" lon="4.71685">
        <ele>452.272072</ele>
        <time>2026-07-07T10:23:34.150Z</time>
      </trkpt>
      <trkpt lat="45.25" lon="4.7169">
        <ele>452.397362</ele>
        <time>2026-07-07T10:23:36.152Z</time>
      </trkpt>
      <trkpt lat="45.25012" lon="4.71695">
        <ele>452.519148</ele>
        <time>2026-07-07T10:23:38.149Z</time>
      </trkpt>
      <trkpt lat="45.25024" lon="4.717">
        <ele>452.637138</ele>
        <time>2026-07-07T10:23:40.153Z</time>
      </trkpt>
      <trkpt lat="45.25036" lon="4.71704">
        <ele>452.751271</ele>
        <time>2026-07-07T10:23:42.153Z</time>
      </trkpt>
      <trkpt lat="45.25049" lon="4.71708">
        <ele>452.885115</ele>
        <time>2026-07-07T10:23:44.121Z</time>
      </trkpt>
      <trkpt lat="45.25061" lon="4.71709">
        <ele>453.119101</ele>
        <time>2026-07-07T10:23:46.144Z</time>
      </trkpt>
      <trkpt lat="45.25073" lon="4.71715">
        <ele>453.371196</ele>
        <time>2026-07-07T10:23:48.153Z</time>
      </trkpt>
      <trkpt lat="45.25085" lon="4.71718">
        <ele>453.607193</ele>
        <time>2026-07-07T10:23:50.145Z</time>
      </trkpt>
      <trkpt lat="45.25096" lon="4.71722">
        <ele>453.816271</ele>
        <time>2026-07-07T10:23:52.157Z</time>
      </trkpt>
      <trkpt lat="45.25108" lon="4.71725">
        <ele>454.043813</ele>
        <time>2026-07-07T10:23:54.150Z</time>
      </trkpt>
      <trkpt lat="45.25119" lon="4.71726">
        <ele>454.256455</ele>
        <time>2026-07-07T10:23:56.148Z</time>
      </trkpt>
      <trkpt lat="45.25129" lon="4.71729">
        <ele>454.464227</ele>
        <time>2026-07-07T10:23:58.136Z</time>
      </trkpt>
      <trkpt lat="45.25141" lon="4.71733">
        <ele>454.701374</ele>
        <time>2026-07-07T10:24:00.152Z</time>
      </trkpt>
      <trkpt lat="45.25153" lon="4.71738">
        <ele>454.936056</ele>
        <time>2026-07-07T10:24:02.154Z</time>
      </trkpt>
      <trkpt lat="45.25164" lon="4.71741">
        <ele>455.154142</ele>
        <time>2026-07-07T10:24:04.155Z</time>
      </trkpt>
      <trkpt lat="45.25175" lon="4.71744">
        <ele>455.379147</ele>
        <time>2026-07-07T10:24:06.150Z</time>
      </trkpt>
      <trkpt lat="45.25187" lon="4.71747">
        <ele>455.597557</ele>
        <time>2026-07-07T10:24:08.150Z</time>
      </trkpt>
      <trkpt lat="45.25197" lon="4.71749">
        <ele>455.801829</ele>
        <time>2026-07-07T10:24:10.152Z</time>
      </trkpt>
      <trkpt lat="45.25208" lon="4.71752">
        <ele>456.008158</ele>
        <time>2026-07-07T10:24:12.150Z</time>
      </trkpt>
      <trkpt lat="45.25219" lon="4.71755">
        <ele>456.23013</ele>
        <time>2026-07-07T10:24:14.146Z</time>
      </trkpt>
      <trkpt lat="45.2523" lon="4.71759">
        <ele>456.380633</ele>
        <time>2026-07-07T10:24:16.148Z</time>
      </trkpt>
      <trkpt lat="45.25241" lon="4.7176">
        <ele>456.473632</ele>
        <time>2026-07-07T10:24:18.146Z</time>
      </trkpt>
      <trkpt lat="45.25251" lon="4.71763">
        <ele>456.562384</ele>
        <time>2026-07-07T10:24:20.150Z</time>
      </trkpt>
      <trkpt lat="45.25263" lon="4.71767">
        <ele>456.658928</ele>
        <time>2026-07-07T10:24:22.150Z</time>
      </trkpt>
      <trkpt lat="45.25274" lon="4.7177">
        <ele>456.753699</ele>
        <time>2026-07-07T10:24:24.154Z</time>
      </trkpt>
      <trkpt lat="45.25285" lon="4.71773">
        <ele>456.848118</ele>
        <time>2026-07-07T10:24:26.149Z</time>
      </trkpt>
      <trkpt lat="45.25296" lon="4.71776">
        <ele>456.943688</ele>
        <time>2026-07-07T10:24:28.142Z</time>
      </trkpt>
      <trkpt lat="45.25307" lon="4.71778">
        <ele>457.04028</ele>
        <time>2026-07-07T10:24:30.152Z</time>
      </trkpt>
      <trkpt lat="45.25319" lon="4.71781">
        <ele>457.141437</ele>
        <time>2026-07-07T10:24:32.155Z</time>
      </trkpt>
      <trkpt lat="45.2533" lon="4.71783">
        <ele>457.236591</ele>
        <time>2026-07-07T10:24:34.150Z</time>
      </trkpt>
      <trkpt lat="45.25341" lon="4.71785">
        <ele>457.332378</ele>
        <time>2026-07-07T10:24:36.153Z</time>
      </trkpt>
      <trkpt lat="45.25352" lon="4.71786">
        <ele>457.422856</ele>
        <time>2026-07-07T10:24:38.151Z</time>
      </trkpt>
      <trkpt lat="45.25363" lon="4.7179">
        <ele>457.520205</ele>
        <time>2026-07-07T10:24:40.144Z</time>
      </trkpt>
      <trkpt lat="45.25375" lon="4.71793">
        <ele>457.618102</ele>
        <time>2026-07-07T10:24:42.150Z</time>
      </trkpt>
      <trkpt lat="45.25386" lon="4.71794">
        <ele>457.70942</ele>
        <time>2026-07-07T10:24:44.146Z</time>
      </trkpt>
      <trkpt lat="45.25395" lon="4.71794">
        <ele>457.787824</ele>
        <time>2026-07-07T10:24:46.154Z</time>
      </trkpt>
      <trkpt lat="45.25404" lon="4.71795">
        <ele>457.919405</ele>
        <time>2026-07-07T10:24:48.146Z</time>
      </trkpt>
      <trkpt lat="45.25414" lon="4.71794">
        <ele>458.149918</ele>
        <time>2026-07-07T10:24:50.144Z</time>
      </trkpt>
      <trkpt lat="45.25423" lon="4.71795">
        <ele>458.380432</ele>
        <time>2026-07-07T10:24:52.155Z</time>
      </trkpt>
      <trkpt lat="45.25437" lon="4.71794">
        <ele>458.712837</ele>
        <time>2026-07-07T10:24:55.109Z</time>
      </trkpt>
      <trkpt lat="45.25446" lon="4.71795">
        <ele>458.931221</ele>
        <time>2026-07-07T10:24:57.103Z</time>
      </trkpt>
      <trkpt lat="45.25455" lon="4.71794">
        <ele>459.154489</ele>
        <time>2026-07-07T10:24:59.146Z</time>
      </trkpt>
      <trkpt lat="45.25468" lon="4.71793">
        <ele>459.458152</ele>
        <time>2026-07-07T10:25:02.142Z</time>
      </trkpt>
      <trkpt lat="45.25479" lon="4.71793">
        <ele>459.732359</ele>
        <time>2026-07-07T10:25:05.143Z</time>
      </trkpt>
      <trkpt lat="45.25492" lon="4.71795">
        <ele>460.037952</ele>
        <time>2026-07-07T10:25:08.150Z</time>
      </trkpt>
      <trkpt lat="45.255" lon="4.71798">
        <ele>460.257518</ele>
        <time>2026-07-07T10:25:10.156Z</time>
      </trkpt>
      <trkpt lat="45.25512" lon="4.71802">
        <ele>460.549487</ele>
        <time>2026-07-07T10:25:13.120Z</time>
      </trkpt>
      <trkpt lat="45.25522" lon="4.71806">
        <ele>460.798567</ele>
        <time>2026-07-07T10:25:16.152Z</time>
      </trkpt>
      <trkpt lat="45.25533" lon="4.71813">
        <ele>461.086581</ele>
        <time>2026-07-07T10:25:19.158Z</time>
      </trkpt>
      <trkpt lat="45.25542" lon="4.7182">
        <ele>461.346522</ele>
        <time>2026-07-07T10:25:22.140Z</time>
      </trkpt>
      <trkpt lat="45.2555" lon="4.7183">
        <ele>461.600035</ele>
        <time>2026-07-07T10:25:27.159Z</time>
      </trkpt>
      <trkpt lat="45.25556" lon="4.71844">
        <ele>461.879514</ele>
        <time>2026-07-07T10:25:31.137Z</time>
      </trkpt>
      <trkpt lat="45.2556" lon="4.71856">
        <ele>462.103821</ele>
        <time>2026-07-07T10:25:33.146Z</time>
      </trkpt>
      <trkpt lat="45.25566" lon="4.71868">
        <ele>462.367932</ele>
        <time>2026-07-07T10:25:35.147Z</time>
      </trkpt>
      <trkpt lat="45.25576" lon="4.71876">
        <ele>462.650174</ele>
        <time>2026-07-07T10:25:37.146Z</time>
      </trkpt>
      <trkpt lat="45.25587" lon="4.7188">
        <ele>462.947811</ele>
        <time>2026-07-07T10:25:39.140Z</time>
      </trkpt>
      <trkpt lat="45.25599" lon="4.71875">
        <ele>463.247226</ele>
        <time>2026-07-07T10:25:41.143Z</time>
      </trkpt>
      <trkpt lat="45.25608" lon="4.71867">
        <ele>463.523964</ele>
        <time>2026-07-07T10:25:43.152Z</time>
      </trkpt>
      <trkpt lat="45.25614" lon="4.71853">
        <ele>463.803508</ele>
        <time>2026-07-07T10:25:45.150Z</time>
      </trkpt>
      <trkpt lat="45.25616" lon="4.71838">
        <ele>464.07237</ele>
        <time>2026-07-07T10:25:47.152Z</time>
      </trkpt>
      <trkpt lat="45.25615" lon="4.71824">
        <ele>464.333099</ele>
        <time>2026-07-07T10:25:49.152Z</time>
      </trkpt>
      <trkpt lat="45.25612" lon="4.71807">
        <ele>464.632313</ele>
        <time>2026-07-07T10:25:51.143Z</time>
      </trkpt>
      <trkpt lat="45.25612" lon="4.71791">
        <ele>464.919267</ele>
        <time>2026-07-07T10:25:53.141Z</time>
      </trkpt>
      <trkpt lat="45.25615" lon="4.71775">
        <ele>465.202446</ele>
        <time>2026-07-07T10:25:55.151Z</time>
      </trkpt>
      <trkpt lat="45.25619" lon="4.71762">
        <ele>465.468376</ele>
        <time>2026-07-07T10:25:57.150Z</time>
      </trkpt>
      <trkpt lat="45.25623" lon="4.71747">
        <ele>465.753348</ele>
        <time>2026-07-07T10:25:59.107Z</time>
      </trkpt>
      <trkpt lat="45.25627" lon="4.71732">
        <ele>466.023804</ele>
        <time>2026-07-07T10:26:01.153Z</time>
      </trkpt>
      <trkpt lat="45.25631" lon="4.71718">
        <ele>466.304228</ele>
        <time>2026-07-07T10:26:03.135Z</time>
      </trkpt>
      <trkpt lat="45.25639" lon="4.71705">
        <ele>466.59488</ele>
        <time>2026-07-07T10:26:05.144Z</time>
      </trkpt>
      <trkpt lat="45.2565" lon="4.71697">
        <ele>466.851225</ele>
        <time>2026-07-07T10:26:07.140Z</time>
      </trkpt>
      <trkpt lat="45.2566" lon="4.71689">
        <ele>467.034347</ele>
        <time>2026-07-07T10:26:09.122Z</time>
      </trkpt>
      <trkpt lat="45.25668" lon="4.7168">
        <ele>467.199646</ele>
        <time>2026-07-07T10:26:11.150Z</time>
      </trkpt>
      <trkpt lat="45.25676" lon="4.7167">
        <ele>467.375561</ele>
        <time>2026-07-07T10:26:13.136Z</time>
      </trkpt>
      <trkpt lat="45.25685" lon="4.71659">
        <ele>467.555269</ele>
        <time>2026-07-07T10:26:15.144Z</time>
      </trkpt>
      <trkpt lat="45.25694" lon="4.7165">
        <ele>467.739703</ele>
        <time>2026-07-07T10:26:17.132Z</time>
      </trkpt>
      <trkpt lat="45.25702" lon="4.71639">
        <ele>467.920147</ele>
        <time>2026-07-07T10:26:19.132Z</time>
      </trkpt>
      <trkpt lat="45.2571" lon="4.7163">
        <ele>468.088795</ele>
        <time>2026-07-07T10:26:21.146Z</time>
      </trkpt>
      <trkpt lat="45.25718" lon="4.71619">
        <ele>468.25658</ele>
        <time>2026-07-07T10:26:23.144Z</time>
      </trkpt>
      <trkpt lat="45.25726" lon="4.7161">
        <ele>468.419996</ele>
        <time>2026-07-07T10:26:25.148Z</time>
      </trkpt>
      <trkpt lat="45.25734" lon="4.71602">
        <ele>468.585942</ele>
        <time>2026-07-07T10:26:27.153Z</time>
      </trkpt>
      <trkpt lat="45.25743" lon="4.71594">
        <ele>468.764549</ele>
        <time>2026-07-07T10:26:29.158Z</time>
      </trkpt>
      <trkpt lat="45.25751" lon="4.71584">
        <ele>468.931506</ele>
        <time>2026-07-07T10:26:31.147Z</time>
      </trkpt>
      <trkpt lat="45.25759" lon="4.71576">
        <ele>469.085757</ele>
        <time>2026-07-07T10:26:33.152Z</time>
      </trkpt>
      <trkpt lat="45.25767" lon="4.71567">
        <ele>469.250378</ele>
        <time>2026-07-07T10:26:35.160Z</time>
      </trkpt>
      <trkpt lat="45.25776" lon="4.7156">
        <ele>469.412719</ele>
        <time>2026-07-07T10:26:37.146Z</time>
      </trkpt>
      <trkpt lat="45.25785" lon="4.71553">
        <ele>469.574769</ele>
        <time>2026-07-07T10:26:39.152Z</time>
      </trkpt>
      <trkpt lat="45.25793" lon="4.71547">
        <ele>469.826844</ele>
        <time>2026-07-07T10:26:41.144Z</time>
      </trkpt>
      <trkpt lat="45.25802" lon="4.71541">
        <ele>470.123214</ele>
        <time>2026-07-07T10:26:43.143Z</time>
      </trkpt>
      <trkpt lat="45.25809" lon="4.71534">
        <ele>470.412008</ele>
        <time>2026-07-07T10:26:45.152Z</time>
      </trkpt>
      <trkpt lat="45.25817" lon="4.71526">
        <ele>470.697709</ele>
        <time>2026-07-07T10:26:47.168Z</time>
      </trkpt>
      <trkpt lat="45.25827" lon="4.71517">
        <ele>471.08733</ele>
        <time>2026-07-07T10:26:50.108Z</time>
      </trkpt>
      <trkpt lat="45.25836" lon="4.71505">
        <ele>471.456336</ele>
        <time>2026-07-07T10:26:53.162Z</time>
      </trkpt>
      <trkpt lat="45.25843" lon="4.71494">
        <ele>471.797335</ele>
        <time>2026-07-07T10:26:56.156Z</time>
      </trkpt>
      <trkpt lat="45.25849" lon="4.71481">
        <ele>472.147511</ele>
        <time>2026-07-07T10:26:59.145Z</time>
      </trkpt>
      <trkpt lat="45.25855" lon="4.71468">
        <ele>472.491767</ele>
        <time>2026-07-07T10:27:02.150Z</time>
      </trkpt>
      <trkpt lat="45.25861" lon="4.71454">
        <ele>472.844986</ele>
        <time>2026-07-07T10:27:05.143Z</time>
      </trkpt>
      <trkpt lat="45.25866" lon="4.71442">
        <ele>473.16152</ele>
        <time>2026-07-07T10:27:08.155Z</time>
      </trkpt>
      <trkpt lat="45.25872" lon="4.71428">
        <ele>473.519862</ele>
        <time>2026-07-07T10:27:11.145Z</time>
      </trkpt>
      <trkpt lat="45.2588" lon="4.71416">
        <ele>473.87988</ele>
        <time>2026-07-07T10:27:14.152Z</time>
      </trkpt>
      <trkpt lat="45.25887" lon="4.71403">
        <ele>474.242625</ele>
        <time>2026-07-07T10:27:17.151Z</time>
      </trkpt>
      <trkpt lat="45.25895" lon="4.71391">
        <ele>474.613122</ele>
        <time>2026-07-07T10:27:20.149Z</time>
      </trkpt>
      <trkpt lat="45.25902" lon="4.71377">
        <ele>475.000588</ele>
        <time>2026-07-07T10:27:23.151Z</time>
      </trkpt>
      <trkpt lat="45.25909" lon="4.71361">
        <ele>475.313677</ele>
        <time>2026-07-07T10:27:26.145Z</time>
      </trkpt>
      <trkpt lat="45.25914" lon="4.7135">
        <ele>475.384563</ele>
        <time>2026-07-07T10:27:28.147Z</time>
      </trkpt>
      <trkpt lat="45.25921" lon="4.71336">
        <ele>475.483011</ele>
        <time>2026-07-07T10:27:31.144Z</time>
      </trkpt>
      <trkpt lat="45.25928" lon="4.71322">
        <ele>475.573877</ele>
        <time>2026-07-07T10:27:34.145Z</time>
      </trkpt>
      <trkpt lat="45.25936" lon="4.71309">
        <ele>475.667517</ele>
        <time>2026-07-07T10:27:37.180Z</time>
      </trkpt>
      <trkpt lat="45.25941" lon="4.71299">
        <ele>475.738221</ele>
        <time>2026-07-07T10:27:39.150Z</time>
      </trkpt>
      <trkpt lat="45.25946" lon="4.71288">
        <ele>475.809978</ele>
        <time>2026-07-07T10:27:41.160Z</time>
      </trkpt>
      <trkpt lat="45.25951" lon="4.71277">
        <ele>475.881215</ele>
        <time>2026-07-07T10:27:43.140Z</time>
      </trkpt>
      <trkpt lat="45.25956" lon="4.71265">
        <ele>475.954378</ele>
        <time>2026-07-07T10:27:45.145Z</time>
      </trkpt>
      <trkpt lat="45.25961" lon="4.71254">
        <ele>476.03001</ele>
        <time>2026-07-07T10:27:47.173Z</time>
      </trkpt>
      <trkpt lat="45.25966" lon="4.71243">
        <ele>476.101666</ele>
        <time>2026-07-07T10:27:49.161Z</time>
      </trkpt>
      <trkpt lat="45.25972" lon="4.71226">
        <ele>476.202592</ele>
        <time>2026-07-07T10:27:52.146Z</time>
      </trkpt>
      <trkpt lat="45.25976" lon="4.71214">
        <ele>476.27642</ele>
        <time>2026-07-07T10:27:54.153Z</time>
      </trkpt>
      <trkpt lat="45.2598" lon="4.71201">
        <ele>476.356574</ele>
        <time>2026-07-07T10:27:56.152Z</time>
      </trkpt>
      <trkpt lat="45.25984" lon="4.71188">
        <ele>476.430482</ele>
        <time>2026-07-07T10:27:58.148Z</time>
      </trkpt>
      <trkpt lat="45.25989" lon="4.71175">
        <ele>476.511549</ele>
        <time>2026-07-07T10:28:00.162Z</time>
      </trkpt>
      <trkpt lat="45.25994" lon="4.71162">
        <ele>476.591524</ele>
        <time>2026-07-07T10:28:02.145Z</time>
      </trkpt>
      <trkpt lat="45.25997" lon="4.71147">
        <ele>476.678502</ele>
        <time>2026-07-07T10:28:04.141Z</time>
      </trkpt>
      <trkpt lat="45.26001" lon="4.71134">
        <ele>477.045963</ele>
        <time>2026-07-07T10:28:06.143Z</time>
      </trkpt>
      <trkpt lat="45.26004" lon="4.7112">
        <ele>477.425743</ele>
        <time>2026-07-07T10:28:08.142Z</time>
      </trkpt>
      <trkpt lat="45.26007" lon="4.71106">
        <ele>477.801518</ele>
        <time>2026-07-07T10:28:10.154Z</time>
      </trkpt>
      <trkpt lat="45.26011" lon="4.71091">
        <ele>478.22204</ele>
        <time>2026-07-07T10:28:12.149Z</time>
      </trkpt>
      <trkpt lat="45.26014" lon="4.71076">
        <ele>478.632578</ele>
        <time>2026-07-07T10:28:14.161Z</time>
      </trkpt>
      <trkpt lat="45.26017" lon="4.71063">
        <ele>478.992012</ele>
        <time>2026-07-07T10:28:16.150Z</time>
      </trkpt>
      <trkpt lat="45.2602" lon="4.7105">
        <ele>479.362823</ele>
        <time>2026-07-07T10:28:18.144Z</time>
      </trkpt>
      <trkpt lat="45.26024" lon="4.71036">
        <ele>479.744103</ele>
        <time>2026-07-07T10:28:20.156Z</time>
      </trkpt>
      <trkpt lat="45.26027" lon="4.71024">
        <ele>480.080219</ele>
        <time>2026-07-07T10:28:22.153Z</time>
      </trkpt>
      <trkpt lat="45.2603" lon="4.71011">
        <ele>480.438805</ele>
        <time>2026-07-07T10:28:24.140Z</time>
      </trkpt>
      <trkpt lat="45.26032" lon="4.70998">
        <ele>480.804915</ele>
        <time>2026-07-07T10:28:26.162Z</time>
      </trkpt>
      <trkpt lat="45.26035" lon="4.70984">
        <ele>481.181088</ele>
        <time>2026-07-07T10:28:28.142Z</time>
      </trkpt>
      <trkpt lat="45.26038" lon="4.70971">
        <ele>481.539525</ele>
        <time>2026-07-07T10:28:30.143Z</time>
      </trkpt>
      <trkpt lat="45.26041" lon="4.70957">
        <ele>481.936925</ele>
        <time>2026-07-07T10:28:32.145Z</time>
      </trkpt>
      <trkpt lat="45.26044" lon="4.70943">
        <ele>482.309172</ele>
        <time>2026-07-07T10:28:34.149Z</time>
      </trkpt>
      <trkpt lat="45.26047" lon="4.70929">
        <ele>482.701995</ele>
        <time>2026-07-07T10:28:36.145Z</time>
      </trkpt>
      <trkpt lat="45.2605" lon="4.70914">
        <ele>483.101567</ele>
        <time>2026-07-07T10:28:38.147Z</time>
      </trkpt>
      <trkpt lat="45.26054" lon="4.70899">
        <ele>483.589332</ele>
        <time>2026-07-07T10:28:40.149Z</time>
      </trkpt>
      <trkpt lat="45.26058" lon="4.70886">
        <ele>484.15635</ele>
        <time>2026-07-07T10:28:42.151Z</time>
      </trkpt>
      <trkpt lat="45.26062" lon="4.70868">
        <ele>484.918552</ele>
        <time>2026-07-07T10:28:45.159Z</time>
      </trkpt>
      <trkpt lat="45.26066" lon="4.70851">
        <ele>485.657295</ele>
        <time>2026-07-07T10:28:48.152Z</time>
      </trkpt>
      <trkpt lat="45.26068" lon="4.70838">
        <ele>486.183807</ele>
        <time>2026-07-07T10:28:50.148Z</time>
      </trkpt>
      <trkpt lat="45.26071" lon="4.70822">
        <ele>486.833103</ele>
        <time>2026-07-07T10:28:53.151Z</time>
      </trkpt>
      <trkpt lat="45.26077" lon="4.70806">
        <ele>487.558318</ele>
        <time>2026-07-07T10:28:56.143Z</time>
      </trkpt>
      <trkpt lat="45.26081" lon="4.7079">
        <ele>488.240033</ele>
        <time>2026-07-07T10:28:59.152Z</time>
      </trkpt>
      <trkpt lat="45.26084" lon="4.70776">
        <ele>488.842985</ele>
        <time>2026-07-07T10:29:02.157Z</time>
      </trkpt>
      <trkpt lat="45.26086" lon="4.70761">
        <ele>489.467124</ele>
        <time>2026-07-07T10:29:05.145Z</time>
      </trkpt>
      <trkpt lat="45.26089" lon="4.70746">
        <ele>490.086025</ele>
        <time>2026-07-07T10:29:08.123Z</time>
      </trkpt>
      <trkpt lat="45.2609" lon="4.7073">
        <ele>490.714202</ele>
        <time>2026-07-07T10:29:11.148Z</time>
      </trkpt>
      <trkpt lat="45.26091" lon="4.70713">
        <ele>491.399129</ele>
        <time>2026-07-07T10:29:14.151Z</time>
      </trkpt>
      <trkpt lat="45.26092" lon="4.70699">
        <ele>491.982</ele>
        <time>2026-07-07T10:29:17.163Z</time>
      </trkpt>
      <trkpt lat="45.26093" lon="4.70685">
        <ele>492.553525</ele>
        <time>2026-07-07T10:29:20.151Z</time>
      </trkpt>
      <trkpt lat="45.26094" lon="4.7067">
        <ele>493.16032</ele>
        <time>2026-07-07T10:29:23.145Z</time>
      </trkpt>
      <trkpt lat="45.26094" lon="4.70653">
        <ele>493.661138</ele>
        <time>2026-07-07T10:29:27.151Z</time>
      </trkpt>
      <trkpt lat="45.26095" lon="4.70638">
        <ele>493.660474</ele>
        <time>2026-07-07T10:29:30.152Z</time>
      </trkpt>
      <trkpt lat="45.26096" lon="4.70622">
        <ele>493.659805</ele>
        <time>2026-07-07T10:29:33.161Z</time>
      </trkpt>
      <trkpt lat="45.26097" lon="4.70608">
        <ele>493.659187</ele>
        <time>2026-07-07T10:29:36.153Z</time>
      </trkpt>
      <trkpt lat="45.26105" lon="4.70599">
        <ele>493.65857</ele>
        <time>2026-07-07T10:29:40.142Z</time>
      </trkpt>
      <trkpt lat="45.26115" lon="4.70595">
        <ele>493.657929</ele>
        <time>2026-07-07T10:29:44.147Z</time>
      </trkpt>
      <trkpt lat="45.26127" lon="4.70591">
        <ele>493.657214</ele>
        <time>2026-07-07T10:29:48.144Z</time>
      </trkpt>
      <trkpt lat="45.26138" lon="4.70589">
        <ele>493.656503</ele>
        <time>2026-07-07T10:29:51.173Z</time>
      </trkpt>
      <trkpt lat="45.26148" lon="4.70602">
        <ele>493.655687</ele>
        <time>2026-07-07T10:29:54.143Z</time>
      </trkpt>
      <trkpt lat="45.26152" lon="4.70615">
        <ele>493.655053</ele>
        <time>2026-07-07T10:29:56.152Z</time>
      </trkpt>
      <trkpt lat="45.26157" lon="4.7063">
        <ele>493.654347</ele>
        <time>2026-07-07T10:29:58.152Z</time>
      </trkpt>
      <trkpt lat="45.26162" lon="4.70646">
        <ele>493.653605</ele>
        <time>2026-07-07T10:30:00.148Z</time>
      </trkpt>
      <trkpt lat="45.26165" lon="4.70661">
        <ele>493.652942</ele>
        <time>2026-07-07T10:30:02.157Z</time>
      </trkpt>
      <trkpt lat="45.26165" lon="4.70678">
        <ele>493.652205</ele>
        <time>2026-07-07T10:30:05.157Z</time>
      </trkpt>
      <trkpt lat="45.2616" lon="4.70694">
        <ele>493.651433</ele>
        <time>2026-07-07T10:30:08.151Z</time>
      </trkpt>
      <trkpt lat="45.26151" lon="4.70702">
        <ele>493.650796</ele>
        <time>2026-07-07T10:30:10.151Z</time>
      </trkpt>
      <trkpt lat="45.2614" lon="4.70711">
        <ele>493.426329</ele>
        <time>2026-07-07T10:30:12.149Z</time>
      </trkpt>
      <trkpt lat="45.26128" lon="4.70725">
        <ele>492.595213</ele>
        <time>2026-07-07T10:30:14.154Z</time>
      </trkpt>
      <trkpt lat="45.2612" lon="4.70743">
        <ele>491.772856</ele>
        <time>2026-07-07T10:30:16.157Z</time>
      </trkpt>
      <trkpt lat="45.26117" lon="4.70765">
        <ele>490.892405</ele>
        <time>2026-07-07T10:30:18.156Z</time>
      </trkpt>
      <trkpt lat="45.26122" lon="4.70788">
        <ele>489.989846</ele>
        <time>2026-07-07T10:30:20.151Z</time>
      </trkpt>
      <trkpt lat="45.26132" lon="4.70808">
        <ele>489.016501</ele>
        <time>2026-07-07T10:30:22.139Z</time>
      </trkpt>
      <trkpt lat="45.26139" lon="4.70817">
        <ele>488.501177</ele>
        <time>2026-07-07T10:30:23.149Z</time>
      </trkpt>
      <trkpt lat="45.26155" lon="4.70829">
        <ele>487.527232</ele>
        <time>2026-07-07T10:30:25.140Z</time>
      </trkpt>
      <trkpt lat="45.26164" lon="4.70834">
        <ele>486.993467</ele>
        <time>2026-07-07T10:30:26.159Z</time>
      </trkpt>
      <trkpt lat="45.26173" lon="4.7084">
        <ele>486.448746</ele>
        <time>2026-07-07T10:30:27.146Z</time>
      </trkpt>
      <trkpt lat="45.26182" lon="4.70846">
        <ele>485.890014</ele>
        <time>2026-07-07T10:30:28.146Z</time>
      </trkpt>
      <trkpt lat="45.26191" lon="4.70852">
        <ele>485.347875</ele>
        <time>2026-07-07T10:30:29.145Z</time>
      </trkpt>
      <trkpt lat="45.262" lon="4.70856">
        <ele>484.830561</ele>
        <time>2026-07-07T10:30:30.154Z</time>
      </trkpt>
      <trkpt lat="45.26216" lon="4.70859">
        <ele>483.946666</ele>
        <time>2026-07-07T10:30:32.151Z</time>
      </trkpt>
      <trkpt lat="45.26233" lon="4.70858">
        <ele>483.987171</ele>
        <time>2026-07-07T10:30:34.147Z</time>
      </trkpt>
      <trkpt lat="45.26247" lon="4.70854">
        <ele>484.204773</ele>
        <time>2026-07-07T10:30:36.100Z</time>
      </trkpt>
      <trkpt lat="45.26262" lon="4.70852">
        <ele>484.419686</ele>
        <time>2026-07-07T10:30:38.104Z</time>
      </trkpt>
      <trkpt lat="45.26274" lon="4.7085">
        <ele>484.593327</ele>
        <time>2026-07-07T10:30:40.132Z</time>
      </trkpt>
      <trkpt lat="45.26284" lon="4.70852">
        <ele>484.751866</ele>
        <time>2026-07-07T10:30:42.145Z</time>
      </trkpt>
      <trkpt lat="45.26294" lon="4.70858">
        <ele>484.909215</ele>
        <time>2026-07-07T10:30:44.154Z</time>
      </trkpt>
      <trkpt lat="45.26304" lon="4.70866">
        <ele>485.078435</ele>
        <time>2026-07-07T10:30:46.152Z</time>
      </trkpt>
      <trkpt lat="45.26314" lon="4.70876">
        <ele>485.26117</ele>
        <time>2026-07-07T10:30:48.146Z</time>
      </trkpt>
      <trkpt lat="45.26324" lon="4.70886">
        <ele>485.442732</ele>
        <time>2026-07-07T10:30:50.146Z</time>
      </trkpt>
      <trkpt lat="45.26334" lon="4.70894">
        <ele>485.604673</ele>
        <time>2026-07-07T10:30:52.162Z</time>
      </trkpt>
      <trkpt lat="45.26344" lon="4.70904">
        <ele>485.783212</ele>
        <time>2026-07-07T10:30:54.147Z</time>
      </trkpt>
      <trkpt lat="45.26353" lon="4.70913">
        <ele>485.953324</ele>
        <time>2026-07-07T10:30:56.151Z</time>
      </trkpt>
      <trkpt lat="45.26362" lon="4.70921">
        <ele>486.103374</ele>
        <time>2026-07-07T10:30:58.108Z</time>
      </trkpt>
      <trkpt lat="45.26371" lon="4.70929">
        <ele>486.26209</ele>
        <time>2026-07-07T10:31:00.093Z</time>
      </trkpt>
      <trkpt lat="45.26381" lon="4.70936">
        <ele>486.429804</ele>
        <time>2026-07-07T10:31:02.151Z</time>
      </trkpt>
      <trkpt lat="45.2639" lon="4.70945">
        <ele>486.059936</ele>
        <time>2026-07-07T10:31:04.140Z</time>
      </trkpt>
      <trkpt lat="45.26401" lon="4.70955">
        <ele>485.623261</ele>
        <time>2026-07-07T10:31:06.153Z</time>
      </trkpt>
      <trkpt lat="45.26413" lon="4.70964">
        <ele>485.137259</ele>
        <time>2026-07-07T10:31:08.147Z</time>
      </trkpt>
      <trkpt lat="45.26426" lon="4.70975">
        <ele>484.619765</ele>
        <time>2026-07-07T10:31:10.142Z</time>
      </trkpt>
      <trkpt lat="45.26439" lon="4.70986">
        <ele>484.101205</ele>
        <time>2026-07-07T10:31:12.140Z</time>
      </trkpt>
      <trkpt lat="45.26452" lon="4.70996">
        <ele>483.582456</ele>
        <time>2026-07-07T10:31:14.146Z</time>
      </trkpt>
      <trkpt lat="45.26465" lon="4.71005">
        <ele>483.075514</ele>
        <time>2026-07-07T10:31:16.145Z</time>
      </trkpt>
      <trkpt lat="45.26479" lon="4.71016">
        <ele>482.541813</ele>
        <time>2026-07-07T10:31:18.160Z</time>
      </trkpt>
      <trkpt lat="45.26493" lon="4.71028">
        <ele>481.968054</ele>
        <time>2026-07-07T10:31:20.148Z</time>
      </trkpt>
      <trkpt lat="45.26507" lon="4.71039">
        <ele>481.41867</ele>
        <time>2026-07-07T10:31:22.142Z</time>
      </trkpt>
      <trkpt lat="45.26521" lon="4.7105">
        <ele>480.854768</ele>
        <time>2026-07-07T10:31:24.143Z</time>
      </trkpt>
      <trkpt lat="45.26536" lon="4.71059">
        <ele>480.29576</ele>
        <time>2026-07-07T10:31:26.141Z</time>
      </trkpt>
      <trkpt lat="45.2655" lon="4.71068">
        <ele>479.837916</ele>
        <time>2026-07-07T10:31:28.137Z</time>
      </trkpt>
      <trkpt lat="45.26564" lon="4.71075">
        <ele>479.409737</ele>
        <time>2026-07-07T10:31:30.136Z</time>
      </trkpt>
      <trkpt lat="45.26578" lon="4.71081">
        <ele>478.985939</ele>
        <time>2026-07-07T10:31:32.140Z</time>
      </trkpt>
      <trkpt lat="45.26586" lon="4.71086">
        <ele>478.71927</ele>
        <time>2026-07-07T10:31:33.150Z</time>
      </trkpt>
      <trkpt lat="45.26603" lon="4.71098">
        <ele>478.175812</ele>
        <time>2026-07-07T10:31:35.157Z</time>
      </trkpt>
      <trkpt lat="45.26612" lon="4.71105">
        <ele>477.873781</ele>
        <time>2026-07-07T10:31:36.145Z</time>
      </trkpt>
      <trkpt lat="45.26621" lon="4.71111">
        <ele>477.581594</ele>
        <time>2026-07-07T10:31:37.146Z</time>
      </trkpt>
      <trkpt lat="45.2663" lon="4.71117">
        <ele>477.297244</ele>
        <time>2026-07-07T10:31:38.137Z</time>
      </trkpt>
      <trkpt lat="45.26639" lon="4.71123">
        <ele>477.007758</ele>
        <time>2026-07-07T10:31:39.151Z</time>
      </trkpt>
      <trkpt lat="45.26648" lon="4.71128">
        <ele>476.726875</ele>
        <time>2026-07-07T10:31:40.150Z</time>
      </trkpt>
      <trkpt lat="45.26657" lon="4.71134">
        <ele>476.451368</ele>
        <time>2026-07-07T10:31:41.139Z</time>
      </trkpt>
      <trkpt lat="45.26666" lon="4.7114">
        <ele>476.160898</ele>
        <time>2026-07-07T10:31:42.145Z</time>
      </trkpt>
      <trkpt lat="45.26675" lon="4.71145">
        <ele>475.890592</ele>
        <time>2026-07-07T10:31:43.142Z</time>
      </trkpt>
      <trkpt lat="45.26683" lon="4.71151">
        <ele>475.612467</ele>
        <time>2026-07-07T10:31:44.140Z</time>
      </trkpt>
      <trkpt lat="45.26692" lon="4.71158">
        <ele>475.315527</ele>
        <time>2026-07-07T10:31:45.141Z</time>
      </trkpt>
      <trkpt lat="45.26701" lon="4.71165">
        <ele>475.015605</ele>
        <time>2026-07-07T10:31:46.151Z</time>
      </trkpt>
      <trkpt lat="45.2671" lon="4.71171">
        <ele>474.754</ele>
        <time>2026-07-07T10:31:47.160Z</time>
      </trkpt>
      <trkpt lat="45.26719" lon="4.71177">
        <ele>474.49315</ele>
        <time>2026-07-07T10:31:48.141Z</time>
      </trkpt>
      <trkpt lat="45.26728" lon="4.71184">
        <ele>474.219404</ele>
        <time>2026-07-07T10:31:49.140Z</time>
      </trkpt>
      <trkpt lat="45.26745" lon="4.71197">
        <ele>473.692641</ele>
        <time>2026-07-07T10:31:51.142Z</time>
      </trkpt>
      <trkpt lat="45.26754" lon="4.71203">
        <ele>473.413754</ele>
        <time>2026-07-07T10:31:52.152Z</time>
      </trkpt>
      <trkpt lat="45.2677" lon="4.71216">
        <ele>472.913686</ele>
        <time>2026-07-07T10:31:54.144Z</time>
      </trkpt>
      <trkpt lat="45.26778" lon="4.71221">
        <ele>472.6651</ele>
        <time>2026-07-07T10:31:55.155Z</time>
      </trkpt>
      <trkpt lat="45.26787" lon="4.71228">
        <ele>472.391712</ele>
        <time>2026-07-07T10:31:56.142Z</time>
      </trkpt>
      <trkpt lat="45.26796" lon="4.71235">
        <ele>472.124569</ele>
        <time>2026-07-07T10:31:57.148Z</time>
      </trkpt>
      <trkpt lat="45.26805" lon="4.71242">
        <ele>471.853189</ele>
        <time>2026-07-07T10:31:58.148Z</time>
      </trkpt>
      <trkpt lat="45.26821" lon="4.71254">
        <ele>471.345226</ele>
        <time>2026-07-07T10:32:00.151Z</time>
      </trkpt>
      <trkpt lat="45.2683" lon="4.71259">
        <ele>471.099008</ele>
        <time>2026-07-07T10:32:01.147Z</time>
      </trkpt>
      <trkpt lat="45.26838" lon="4.71265">
        <ele>470.832205</ele>
        <time>2026-07-07T10:32:02.166Z</time>
      </trkpt>
      <trkpt lat="45.26847" lon="4.71271">
        <ele>470.579435</ele>
        <time>2026-07-07T10:32:03.142Z</time>
      </trkpt>
      <trkpt lat="45.26862" lon="4.71283">
        <ele>470.11139</ele>
        <time>2026-07-07T10:32:05.144Z</time>
      </trkpt>
      <trkpt lat="45.2687" lon="4.71288">
        <ele>470.0651</ele>
        <time>2026-07-07T10:32:06.149Z</time>
      </trkpt>
      <trkpt lat="45.26887" lon="4.713">
        <ele>469.970568</ele>
        <time>2026-07-07T10:32:08.149Z</time>
      </trkpt>
      <trkpt lat="45.26895" lon="4.71306">
        <ele>469.922979</ele>
        <time>2026-07-07T10:32:09.168Z</time>
      </trkpt>
      <trkpt lat="45.26904" lon="4.71313">
        <ele>469.875354</ele>
        <time>2026-07-07T10:32:10.151Z</time>
      </trkpt>
      <trkpt lat="45.2692" lon="4.71322">
        <ele>469.788676</ele>
        <time>2026-07-07T10:32:12.148Z</time>
      </trkpt>
      <trkpt lat="45.26937" lon="4.71332">
        <ele>469.696792</ele>
        <time>2026-07-07T10:32:14.149Z</time>
      </trkpt>
      <trkpt lat="45.26945" lon="4.71339">
        <ele>469.648827</ele>
        <time>2026-07-07T10:32:15.153Z</time>
      </trkpt>
      <trkpt lat="45.26961" lon="4.71351">
        <ele>469.557102</ele>
        <time>2026-07-07T10:32:17.143Z</time>
      </trkpt>
      <trkpt lat="45.26976" lon="4.71363">
        <ele>469.472447</ele>
        <time>2026-07-07T10:32:19.150Z</time>
      </trkpt>
      <trkpt lat="45.26983" lon="4.71371">
        <ele>469.426437</ele>
        <time>2026-07-07T10:32:20.151Z</time>
      </trkpt>
      <trkpt lat="45.26991" lon="4.71379">
        <ele>469.379022</ele>
        <time>2026-07-07T10:32:21.120Z</time>
      </trkpt>
      <trkpt lat="45.26999" lon="4.71387">
        <ele>469.330788</ele>
        <time>2026-07-07T10:32:22.149Z</time>
      </trkpt>
      <trkpt lat="45.27006" lon="4.71395">
        <ele>469.282328</ele>
        <time>2026-07-07T10:32:23.145Z</time>
      </trkpt>
      <trkpt lat="45.27013" lon="4.71403">
        <ele>469.236388</ele>
        <time>2026-07-07T10:32:24.146Z</time>
      </trkpt>
      <trkpt lat="45.2702" lon="4.71413">
        <ele>469.094262</ele>
        <time>2026-07-07T10:32:25.150Z</time>
      </trkpt>
      <trkpt lat="45.27027" lon="4.71422">
        <ele>468.835985</ele>
        <time>2026-07-07T10:32:26.141Z</time>
      </trkpt>
      <trkpt lat="45.27033" lon="4.71432">
        <ele>468.586184</ele>
        <time>2026-07-07T10:32:27.145Z</time>
      </trkpt>
      <trkpt lat="45.2704" lon="4.71443">
        <ele>468.306525</ele>
        <time>2026-07-07T10:32:28.142Z</time>
      </trkpt>
      <trkpt lat="45.27046" lon="4.71452">
        <ele>468.048004</ele>
        <time>2026-07-07T10:32:29.144Z</time>
      </trkpt>
      <trkpt lat="45.27053" lon="4.71461">
        <ele>467.790079</ele>
        <time>2026-07-07T10:32:30.153Z</time>
      </trkpt>
      <trkpt lat="45.2706" lon="4.71471">
        <ele>467.508212</ele>
        <time>2026-07-07T10:32:31.151Z</time>
      </trkpt>
      <trkpt lat="45.27067" lon="4.71481">
        <ele>467.232858</ele>
        <time>2026-07-07T10:32:32.158Z</time>
      </trkpt>
      <trkpt lat="45.27074" lon="4.71491">
        <ele>466.9737</ele>
        <time>2026-07-07T10:32:33.155Z</time>
      </trkpt>
      <trkpt lat="45.2708" lon="4.715">
        <ele>466.724972</ele>
        <time>2026-07-07T10:32:34.146Z</time>
      </trkpt>
      <trkpt lat="45.27091" lon="4.7152">
        <ele>466.237561</ele>
        <time>2026-07-07T10:32:36.148Z</time>
      </trkpt>
      <trkpt lat="45.27101" lon="4.71541">
        <ele>465.748007</ele>
        <time>2026-07-07T10:32:38.152Z</time>
      </trkpt>
      <trkpt lat="45.27108" lon="4.71563">
        <ele>465.281267</ele>
        <time>2026-07-07T10:32:40.146Z</time>
      </trkpt>
      <trkpt lat="45.27114" lon="4.71585">
        <ele>464.819905</ele>
        <time>2026-07-07T10:32:42.150Z</time>
      </trkpt>
      <trkpt lat="45.27119" lon="4.71606">
        <ele>464.391118</ele>
        <time>2026-07-07T10:32:44.154Z</time>
      </trkpt>
      <trkpt lat="45.27122" lon="4.71629">
        <ele>463.690143</ele>
        <time>2026-07-07T10:32:46.146Z</time>
      </trkpt>
      <trkpt lat="45.27122" lon="4.71652">
        <ele>462.888285</ele>
        <time>2026-07-07T10:32:48.150Z</time>
      </trkpt>
      <trkpt lat="45.27122" lon="4.71677">
        <ele>462.02684</ele>
        <time>2026-07-07T10:32:50.158Z</time>
      </trkpt>
      <trkpt lat="45.27118" lon="4.7169">
        <ele>461.547021</ele>
        <time>2026-07-07T10:32:51.150Z</time>
      </trkpt>
      <trkpt lat="45.27108" lon="4.71707">
        <ele>460.763899</ele>
        <time>2026-07-07T10:32:53.143Z</time>
      </trkpt>
      <trkpt lat="45.271" lon="4.71723">
        <ele>460.074318</ele>
        <time>2026-07-07T10:32:55.148Z</time>
      </trkpt>
      <trkpt lat="45.271" lon="4.71739">
        <ele>459.52028</ele>
        <time>2026-07-07T10:32:57.151Z</time>
      </trkpt>
      <trkpt lat="45.27109" lon="4.71747">
        <ele>458.998398</ele>
        <time>2026-07-07T10:32:59.144Z</time>
      </trkpt>
      <trkpt lat="45.27124" lon="4.7174">
        <ele>458.223658</ele>
        <time>2026-07-07T10:33:01.141Z</time>
      </trkpt>
      <trkpt lat="45.2714" lon="4.71737">
        <ele>457.425155</ele>
        <time>2026-07-07T10:33:03.157Z</time>
      </trkpt>
      <trkpt lat="45.27149" lon="4.71737">
        <ele>456.979484</ele>
        <time>2026-07-07T10:33:04.148Z</time>
      </trkpt>
      <trkpt lat="45.27166" lon="4.71735">
        <ele>456.121449</ele>
        <time>2026-07-07T10:33:06.152Z</time>
      </trkpt>
      <trkpt lat="45.27183" lon="4.71732">
        <ele>455.448434</ele>
        <time>2026-07-07T10:33:08.144Z</time>
      </trkpt>
      <trkpt lat="45.272" lon="4.71725">
        <ele>456.638384</ele>
        <time>2026-07-07T10:33:10.140Z</time>
      </trkpt>
      <trkpt lat="45.27216" lon="4.71719">
        <ele>457.795279</ele>
        <time>2026-07-07T10:33:12.140Z</time>
      </trkpt>
      <trkpt lat="45.27227" lon="4.71707">
        <ele>458.712396</ele>
        <time>2026-07-07T10:33:14.149Z</time>
      </trkpt>
      <trkpt lat="45.27238" lon="4.71711">
        <ele>459.504216</ele>
        <time>2026-07-07T10:33:16.143Z</time>
      </trkpt>
      <trkpt lat="45.27247" lon="4.7172">
        <ele>460.308137</ele>
        <time>2026-07-07T10:33:18.134Z</time>
      </trkpt>
      <trkpt lat="45.27255" lon="4.71731">
        <ele>461.034145</ele>
        <time>2026-07-07T10:33:20.156Z</time>
      </trkpt>
      <trkpt lat="45.27263" lon="4.71742">
        <ele>461.805113</ele>
        <time>2026-07-07T10:33:23.144Z</time>
      </trkpt>
      <trkpt lat="45.2727" lon="4.71752">
        <ele>462.531789</ele>
        <time>2026-07-07T10:33:26.151Z</time>
      </trkpt>
      <trkpt lat="45.27277" lon="4.71767">
        <ele>463.374257</ele>
        <time>2026-07-07T10:33:29.145Z</time>
      </trkpt>
      <trkpt lat="45.27286" lon="4.71779">
        <ele>464.213616</ele>
        <time>2026-07-07T10:33:32.144Z</time>
      </trkpt>
      <trkpt lat="45.27294" lon="4.71788">
        <ele>464.941566</ele>
        <time>2026-07-07T10:33:35.142Z</time>
      </trkpt>
      <trkpt lat="45.27305" lon="4.71799">
        <ele>465.839412</ele>
        <time>2026-07-07T10:33:38.149Z</time>
      </trkpt>
      <trkpt lat="45.27314" lon="4.71809">
        <ele>466.671364</ele>
        <time>2026-07-07T10:33:41.140Z</time>
      </trkpt>
      <trkpt lat="45.27323" lon="4.71817">
        <ele>467.398286</ele>
        <time>2026-07-07T10:33:44.136Z</time>
      </trkpt>
      <trkpt lat="45.27331" lon="4.71825">
        <ele>467.811484</ele>
        <time>2026-07-07T10:33:47.145Z</time>
      </trkpt>
      <trkpt lat="45.2734" lon="4.71834">
        <ele>467.987911</ele>
        <time>2026-07-07T10:33:50.159Z</time>
      </trkpt>
      <trkpt lat="45.2735" lon="4.71843">
        <ele>468.184154</ele>
        <time>2026-07-07T10:33:53.149Z</time>
      </trkpt>
      <trkpt lat="45.27358" lon="4.7185">
        <ele>468.330657</ele>
        <time>2026-07-07T10:33:55.141Z</time>
      </trkpt>
      <trkpt lat="45.27367" lon="4.71862">
        <ele>468.532908</ele>
        <time>2026-07-07T10:33:58.151Z</time>
      </trkpt>
      <trkpt lat="45.27376" lon="4.71872">
        <ele>468.704024</ele>
        <time>2026-07-07T10:34:01.150Z</time>
      </trkpt>
      <trkpt lat="45.27384" lon="4.71881">
        <ele>468.868132</ele>
        <time>2026-07-07T10:34:04.141Z</time>
      </trkpt>
      <trkpt lat="45.27394" lon="4.71889">
        <ele>469.060878</ele>
        <time>2026-07-07T10:34:07.150Z</time>
      </trkpt>
      <trkpt lat="45.27405" lon="4.71901">
        <ele>469.27272</ele>
        <time>2026-07-07T10:34:10.146Z</time>
      </trkpt>
      <trkpt lat="45.27415" lon="4.71912">
        <ele>469.482342</ele>
        <time>2026-07-07T10:34:13.141Z</time>
      </trkpt>
      <trkpt lat="45.27426" lon="4.71922">
        <ele>469.690011</ele>
        <time>2026-07-07T10:34:16.149Z</time>
      </trkpt>
      <trkpt lat="45.27436" lon="4.71934">
        <ele>469.894054</ele>
        <time>2026-07-07T10:34:19.152Z</time>
      </trkpt>
      <trkpt lat="45.27446" lon="4.71945">
        <ele>470.100607</ele>
        <time>2026-07-07T10:34:22.143Z</time>
      </trkpt>
      <trkpt lat="45.27456" lon="4.71956">
        <ele>470.307301</ele>
        <time>2026-07-07T10:34:25.156Z</time>
      </trkpt>
      <trkpt lat="45.27464" lon="4.71965">
        <ele>470.456076</ele>
        <time>2026-07-07T10:34:27.142Z</time>
      </trkpt>
      <trkpt lat="45.27473" lon="4.71976">
        <ele>470.579675</ele>
        <time>2026-07-07T10:34:30.150Z</time>
      </trkpt>
      <trkpt lat="45.27483" lon="4.71982">
        <ele>470.401387</ele>
        <time>2026-07-07T10:34:32.152Z</time>
      </trkpt>
      <trkpt lat="45.27493" lon="4.7199">
        <ele>470.225188</ele>
        <time>2026-07-07T10:34:34.160Z</time>
      </trkpt>
      <trkpt lat="45.27502" lon="4.71997">
        <ele>470.04632</ele>
        <time>2026-07-07T10:34:36.156Z</time>
      </trkpt>
      <trkpt lat="45.27513" lon="4.72004">
        <ele>469.85044</ele>
        <time>2026-07-07T10:34:38.154Z</time>
      </trkpt>
      <trkpt lat="45.27527" lon="4.72014">
        <ele>469.597913</ele>
        <time>2026-07-07T10:34:40.149Z</time>
      </trkpt>
      <trkpt lat="45.27541" lon="4.72021">
        <ele>469.362062</ele>
        <time>2026-07-07T10:34:42.155Z</time>
      </trkpt>
      <trkpt lat="45.27557" lon="4.72031">
        <ele>469.082414</ele>
        <time>2026-07-07T10:34:44.150Z</time>
      </trkpt>
      <trkpt lat="45.27573" lon="4.7204">
        <ele>468.802142</ele>
        <time>2026-07-07T10:34:46.145Z</time>
      </trkpt>
      <trkpt lat="45.2759" lon="4.7205">
        <ele>468.501463</ele>
        <time>2026-07-07T10:34:48.158Z</time>
      </trkpt>
      <trkpt lat="45.27605" lon="4.72059">
        <ele>468.234425</ele>
        <time>2026-07-07T10:34:50.156Z</time>
      </trkpt>
      <trkpt lat="45.27614" lon="4.72064">
        <ele>468.083931</ele>
        <time>2026-07-07T10:34:51.148Z</time>
      </trkpt>
      <trkpt lat="45.2763" lon="4.72075">
        <ele>467.796635</ele>
        <time>2026-07-07T10:34:53.148Z</time>
      </trkpt>
      <trkpt lat="45.27646" lon="4.72085">
        <ele>467.501654</ele>
        <time>2026-07-07T10:34:55.149Z</time>
      </trkpt>
      <trkpt lat="45.27661" lon="4.72097">
        <ele>467.212337</ele>
        <time>2026-07-07T10:34:57.149Z</time>
      </trkpt>
      <trkpt lat="45.27675" lon="4.72109">
        <ele>466.939505</ele>
        <time>2026-07-07T10:34:59.158Z</time>
      </trkpt>
      <trkpt lat="45.27687" lon="4.72122">
        <ele>466.677369</ele>
        <time>2026-07-07T10:35:01.161Z</time>
      </trkpt>
      <trkpt lat="45.27699" lon="4.72136">
        <ele>466.416569</ele>
        <time>2026-07-07T10:35:03.152Z</time>
      </trkpt>
      <trkpt lat="45.27711" lon="4.72148">
        <ele>466.16159</ele>
        <time>2026-07-07T10:35:05.155Z</time>
      </trkpt>
      <trkpt lat="45.27723" lon="4.72159">
        <ele>465.917915</ele>
        <time>2026-07-07T10:35:07.145Z</time>
      </trkpt>
      <trkpt lat="45.27734" lon="4.72166">
        <ele>465.714129</ele>
        <time>2026-07-07T10:35:09.152Z</time>
      </trkpt>
      <trkpt lat="45.27745" lon="4.72173">
        <ele>465.513513</ele>
        <time>2026-07-07T10:35:11.150Z</time>
      </trkpt>
      <trkpt lat="45.27755" lon="4.72178">
        <ele>465.326976</ele>
        <time>2026-07-07T10:35:13.142Z</time>
      </trkpt>
      <trkpt lat="45.27766" lon="4.72184">
        <ele>465.133251</ele>
        <time>2026-07-07T10:35:15.141Z</time>
      </trkpt>
      <trkpt lat="45.27776" lon="4.72191">
        <ele>464.945311</ele>
        <time>2026-07-07T10:35:17.149Z</time>
      </trkpt>
      <trkpt lat="45.27786" lon="4.72195">
        <ele>464.77438</ele>
        <time>2026-07-07T10:35:19.153Z</time>
      </trkpt>
      <trkpt lat="45.27796" lon="4.722">
        <ele>464.618309</ele>
        <time>2026-07-07T10:35:21.142Z</time>
      </trkpt>
      <trkpt lat="45.27807" lon="4.72207">
        <ele>464.512831</ele>
        <time>2026-07-07T10:35:23.152Z</time>
      </trkpt>
      <trkpt lat="45.27816" lon="4.72214">
        <ele>464.42174</ele>
        <time>2026-07-07T10:35:25.148Z</time>
      </trkpt>
      <trkpt lat="45.27827" lon="4.7222">
        <ele>464.322711</ele>
        <time>2026-07-07T10:35:27.150Z</time>
      </trkpt>
      <trkpt lat="45.27838" lon="4.72228">
        <ele>464.21509</ele>
        <time>2026-07-07T10:35:29.142Z</time>
      </trkpt>
      <trkpt lat="45.2785" lon="4.72236">
        <ele>464.100436</ele>
        <time>2026-07-07T10:35:31.155Z</time>
      </trkpt>
      <trkpt lat="45.27863" lon="4.72243">
        <ele>463.981633</ele>
        <time>2026-07-07T10:35:33.147Z</time>
      </trkpt>
      <trkpt lat="45.27875" lon="4.7225">
        <ele>463.861509</ele>
        <time>2026-07-07T10:35:35.143Z</time>
      </trkpt>
      <trkpt lat="45.27889" lon="4.72258">
        <ele>463.736077</ele>
        <time>2026-07-07T10:35:37.129Z</time>
      </trkpt>
      <trkpt lat="45.27903" lon="4.72265">
        <ele>463.606196</ele>
        <time>2026-07-07T10:35:39.152Z</time>
      </trkpt>
      <trkpt lat="45.27916" lon="4.72271">
        <ele>463.488417</ele>
        <time>2026-07-07T10:35:41.153Z</time>
      </trkpt>
      <trkpt lat="45.27929" lon="4.7228">
        <ele>463.361431</ele>
        <time>2026-07-07T10:35:43.153Z</time>
      </trkpt>
      <trkpt lat="45.27944" lon="4.72289">
        <ele>463.216738</ele>
        <time>2026-07-07T10:35:45.157Z</time>
      </trkpt>
      <trkpt lat="45.27959" lon="4.72299">
        <ele>463.016303</ele>
        <time>2026-07-07T10:35:47.152Z</time>
      </trkpt>
      <trkpt lat="45.27975" lon="4.72311">
        <ele>462.050474</ele>
        <time>2026-07-07T10:35:49.158Z</time>
      </trkpt>
      <trkpt lat="45.27983" lon="4.72318">
        <ele>461.538256</ele>
        <time>2026-07-07T10:35:50.150Z</time>
      </trkpt>
      <trkpt lat="45.27999" lon="4.72329">
        <ele>460.609701</ele>
        <time>2026-07-07T10:35:52.141Z</time>
      </trkpt>
      <trkpt lat="45.28013" lon="4.7234">
        <ele>459.737231</ele>
        <time>2026-07-07T10:35:54.151Z</time>
      </trkpt>
      <trkpt lat="45.28021" lon="4.72346">
        <ele>459.252469</ele>
        <time>2026-07-07T10:35:55.154Z</time>
      </trkpt>
      <trkpt lat="45.28029" lon="4.72353">
        <ele>458.764447</ele>
        <time>2026-07-07T10:35:56.148Z</time>
      </trkpt>
      <trkpt lat="45.28037" lon="4.72361">
        <ele>458.230981</ele>
        <time>2026-07-07T10:35:57.158Z</time>
      </trkpt>
      <trkpt lat="45.28045" lon="4.72368">
        <ele>457.705075</ele>
        <time>2026-07-07T10:35:58.118Z</time>
      </trkpt>
      <trkpt lat="45.28053" lon="4.72374">
        <ele>457.218347</ele>
        <time>2026-07-07T10:35:59.124Z</time>
      </trkpt>
      <trkpt lat="45.28061" lon="4.72381">
        <ele>456.72149</ele>
        <time>2026-07-07T10:36:00.144Z</time>
      </trkpt>
      <trkpt lat="45.2807" lon="4.72387">
        <ele>456.198009</ele>
        <time>2026-07-07T10:36:01.120Z</time>
      </trkpt>
      <trkpt lat="45.28079" lon="4.72394">
        <ele>455.630239</ele>
        <time>2026-07-07T10:36:02.102Z</time>
      </trkpt>
      <trkpt lat="45.28089" lon="4.72402">
        <ele>455.05591</ele>
        <time>2026-07-07T10:36:03.112Z</time>
      </trkpt>
      <trkpt lat="45.28098" lon="4.72409">
        <ele>454.505872</ele>
        <time>2026-07-07T10:36:04.154Z</time>
      </trkpt>
      <trkpt lat="45.28106" lon="4.72416">
        <ele>453.969887</ele>
        <time>2026-07-07T10:36:05.149Z</time>
      </trkpt>
      <trkpt lat="45.28115" lon="4.72423">
        <ele>453.436371</ele>
        <time>2026-07-07T10:36:06.146Z</time>
      </trkpt>
      <trkpt lat="45.28123" lon="4.7243">
        <ele>453.070782</ele>
        <time>2026-07-07T10:36:07.149Z</time>
      </trkpt>
      <trkpt lat="45.28132" lon="4.72437">
        <ele>452.673007</ele>
        <time>2026-07-07T10:36:08.138Z</time>
      </trkpt>
      <trkpt lat="45.28141" lon="4.72444">
        <ele>452.278099</ele>
        <time>2026-07-07T10:36:09.152Z</time>
      </trkpt>
      <trkpt lat="45.2815" lon="4.72451">
        <ele>451.879183</ele>
        <time>2026-07-07T10:36:10.153Z</time>
      </trkpt>
      <trkpt lat="45.2816" lon="4.72457">
        <ele>451.466394</ele>
        <time>2026-07-07T10:36:11.145Z</time>
      </trkpt>
      <trkpt lat="45.28169" lon="4.72463">
        <ele>451.084286</ele>
        <time>2026-07-07T10:36:12.152Z</time>
      </trkpt>
      <trkpt lat="45.28178" lon="4.72467">
        <ele>450.717643</ele>
        <time>2026-07-07T10:36:13.148Z</time>
      </trkpt>
      <trkpt lat="45.28188" lon="4.7247">
        <ele>450.345587</ele>
        <time>2026-07-07T10:36:14.147Z</time>
      </trkpt>
      <trkpt lat="45.28197" lon="4.72472">
        <ele>449.973702</ele>
        <time>2026-07-07T10:36:15.159Z</time>
      </trkpt>
      <trkpt lat="45.28214" lon="4.72473">
        <ele>449.326994</ele>
        <time>2026-07-07T10:36:17.157Z</time>
      </trkpt>
      <trkpt lat="45.28228" lon="4.72479">
        <ele>448.750222</ele>
        <time>2026-07-07T10:36:19.156Z</time>
      </trkpt>
      <trkpt lat="45.28238" lon="4.72491">
        <ele>448.275724</ele>
        <time>2026-07-07T10:36:21.149Z</time>
      </trkpt>
      <trkpt lat="45.28247" lon="4.72503">
        <ele>447.795073</ele>
        <time>2026-07-07T10:36:23.157Z</time>
      </trkpt>
      <trkpt lat="45.2826" lon="4.72513">
        <ele>447.236719</ele>
        <time>2026-07-07T10:36:25.143Z</time>
      </trkpt>
      <trkpt lat="45.28272" lon="4.72524">
        <ele>446.668695</ele>
        <time>2026-07-07T10:36:27.144Z</time>
      </trkpt>
      <trkpt lat="45.28285" lon="4.7254">
        <ele>446.151429</ele>
        <time>2026-07-07T10:36:29.148Z</time>
      </trkpt>
      <trkpt lat="45.28292" lon="4.72547">
        <ele>445.903031</ele>
        <time>2026-07-07T10:36:30.151Z</time>
      </trkpt>
      <trkpt lat="45.283" lon="4.72554">
        <ele>445.646308</ele>
        <time>2026-07-07T10:36:31.145Z</time>
      </trkpt>
      <trkpt lat="45.28316" lon="4.72565">
        <ele>445.169414</ele>
        <time>2026-07-07T10:36:33.146Z</time>
      </trkpt>
      <trkpt lat="45.28332" lon="4.72576">
        <ele>444.666834</ele>
        <time>2026-07-07T10:36:35.150Z</time>
      </trkpt>
      <trkpt lat="45.28341" lon="4.72582">
        <ele>444.404332</ele>
        <time>2026-07-07T10:36:36.151Z</time>
      </trkpt>
      <trkpt lat="45.2835" lon="4.72589">
        <ele>444.12416</ele>
        <time>2026-07-07T10:36:37.143Z</time>
      </trkpt>
      <trkpt lat="45.28359" lon="4.72595">
        <ele>443.837566</ele>
        <time>2026-07-07T10:36:38.162Z</time>
      </trkpt>
      <trkpt lat="45.28368" lon="4.72601">
        <ele>443.570881</ele>
        <time>2026-07-07T10:36:39.140Z</time>
      </trkpt>
      <trkpt lat="45.28377" lon="4.72608">
        <ele>443.294662</ele>
        <time>2026-07-07T10:36:40.148Z</time>
      </trkpt>
      <trkpt lat="45.28386" lon="4.72615">
        <ele>443.011743</ele>
        <time>2026-07-07T10:36:41.151Z</time>
      </trkpt>
      <trkpt lat="45.28396" lon="4.72622">
        <ele>442.702376</ele>
        <time>2026-07-07T10:36:42.150Z</time>
      </trkpt>
      <trkpt lat="45.28405" lon="4.7263">
        <ele>442.409647</ele>
        <time>2026-07-07T10:36:43.154Z</time>
      </trkpt>
      <trkpt lat="45.28415" lon="4.72639">
        <ele>442.082956</ele>
        <time>2026-07-07T10:36:44.142Z</time>
      </trkpt>
      <trkpt lat="45.28424" lon="4.72647">
        <ele>441.780819</ele>
        <time>2026-07-07T10:36:45.152Z</time>
      </trkpt>
      <trkpt lat="45.28433" lon="4.72655">
        <ele>441.46449</ele>
        <time>2026-07-07T10:36:46.154Z</time>
      </trkpt>
      <trkpt lat="45.28449" lon="4.72665">
        <ele>440.79789</ele>
        <time>2026-07-07T10:36:48.145Z</time>
      </trkpt>
      <trkpt lat="45.28464" lon="4.72675">
        <ele>440.153013</ele>
        <time>2026-07-07T10:36:50.139Z</time>
      </trkpt>
      <trkpt lat="45.2848" lon="4.72684">
        <ele>439.503535</ele>
        <time>2026-07-07T10:36:52.138Z</time>
      </trkpt>
      <trkpt lat="45.28493" lon="4.72694">
        <ele>438.916586</ele>
        <time>2026-07-07T10:36:54.149Z</time>
      </trkpt>
      <trkpt lat="45.28509" lon="4.72706">
        <ele>438.231828</ele>
        <time>2026-07-07T10:36:56.141Z</time>
      </trkpt>
      <trkpt lat="45.28517" lon="4.72714">
        <ele>437.849609</ele>
        <time>2026-07-07T10:36:57.152Z</time>
      </trkpt>
      <trkpt lat="45.28533" lon="4.72728">
        <ele>437.153852</ele>
        <time>2026-07-07T10:36:59.147Z</time>
      </trkpt>
      <trkpt lat="45.28547" lon="4.72742">
        <ele>436.497611</ele>
        <time>2026-07-07T10:37:01.148Z</time>
      </trkpt>
      <trkpt lat="45.28554" lon="4.7275">
        <ele>436.134327</ele>
        <time>2026-07-07T10:37:02.142Z</time>
      </trkpt>
      <trkpt lat="45.28569" lon="4.72764">
        <ele>435.44234</ele>
        <time>2026-07-07T10:37:04.140Z</time>
      </trkpt>
      <trkpt lat="45.28584" lon="4.72776">
        <ele>434.794417</ele>
        <time>2026-07-07T10:37:06.143Z</time>
      </trkpt>
      <trkpt lat="45.28598" lon="4.72786">
        <ele>434.418554</ele>
        <time>2026-07-07T10:37:08.141Z</time>
      </trkpt>
      <trkpt lat="45.28614" lon="4.72798">
        <ele>434.070067</ele>
        <time>2026-07-07T10:37:10.136Z</time>
      </trkpt>
      <trkpt lat="45.28629" lon="4.7281">
        <ele>433.745359</ele>
        <time>2026-07-07T10:37:12.142Z</time>
      </trkpt>
      <trkpt lat="45.28642" lon="4.72819">
        <ele>433.451927</ele>
        <time>2026-07-07T10:37:14.138Z</time>
      </trkpt>
      <trkpt lat="45.28656" lon="4.72826">
        <ele>433.179747</ele>
        <time>2026-07-07T10:37:16.138Z</time>
      </trkpt>
      <trkpt lat="45.28667" lon="4.72833">
        <ele>432.944214</ele>
        <time>2026-07-07T10:37:18.141Z</time>
      </trkpt>
      <trkpt lat="45.28678" lon="4.72839">
        <ele>432.709651</ele>
        <time>2026-07-07T10:37:20.141Z</time>
      </trkpt>
      <trkpt lat="45.28691" lon="4.72846">
        <ele>432.454828</ele>
        <time>2026-07-07T10:37:22.142Z</time>
      </trkpt>
      <trkpt lat="45.28703" lon="4.72857">
        <ele>432.173621</ele>
        <time>2026-07-07T10:37:24.152Z</time>
      </trkpt>
      <trkpt lat="45.28715" lon="4.72867">
        <ele>431.897488</ele>
        <time>2026-07-07T10:37:26.136Z</time>
      </trkpt>
      <trkpt lat="45.28727" lon="4.72874">
        <ele>431.64674</ele>
        <time>2026-07-07T10:37:28.137Z</time>
      </trkpt>
      <trkpt lat="45.28741" lon="4.72884">
        <ele>431.356144</ele>
        <time>2026-07-07T10:37:30.150Z</time>
      </trkpt>
      <trkpt lat="45.28755" lon="4.72889">
        <ele>431.046298</ele>
        <time>2026-07-07T10:37:32.140Z</time>
      </trkpt>
      <trkpt lat="45.2877" lon="4.72895">
        <ele>430.653001</ele>
        <time>2026-07-07T10:37:34.141Z</time>
      </trkpt>
      <trkpt lat="45.28786" lon="4.72907">
        <ele>430.218054</ele>
        <time>2026-07-07T10:37:36.150Z</time>
      </trkpt>
      <trkpt lat="45.288" lon="4.72917">
        <ele>429.818231</ele>
        <time>2026-07-07T10:37:38.143Z</time>
      </trkpt>
      <trkpt lat="45.28808" lon="4.72926">
        <ele>429.574686</ele>
        <time>2026-07-07T10:37:39.149Z</time>
      </trkpt>
      <trkpt lat="45.28818" lon="4.7294">
        <ele>429.232548</ele>
        <time>2026-07-07T10:37:41.150Z</time>
      </trkpt>
      <trkpt lat="45.28826" lon="4.72951">
        <ele>428.94983</ele>
        <time>2026-07-07T10:37:43.145Z</time>
      </trkpt>
      <trkpt lat="45.28834" lon="4.72958">
        <ele>428.723178</ele>
        <time>2026-07-07T10:37:45.146Z</time>
      </trkpt>
      <trkpt lat="45.28844" lon="4.72949">
        <ele>428.412555</ele>
        <time>2026-07-07T10:37:48.135Z</time>
      </trkpt>
      <trkpt lat="45.28851" lon="4.72939">
        <ele>428.169807</ele>
        <time>2026-07-07T10:37:51.146Z</time>
      </trkpt>
      <trkpt lat="45.28861" lon="4.7293">
        <ele>427.888684</ele>
        <time>2026-07-07T10:37:55.154Z</time>
      </trkpt>
      <trkpt lat="45.28869" lon="4.72924">
        <ele>427.656555</ele>
        <time>2026-07-07T10:37:58.141Z</time>
      </trkpt>
      <trkpt lat="45.2888" lon="4.72919">
        <ele>427.374642</ele>
        <time>2026-07-07T10:38:02.149Z</time>
      </trkpt>
      <trkpt lat="45.28892" lon="4.72918">
        <ele>427.07282</ele>
        <time>2026-07-07T10:38:06.146Z</time>
      </trkpt>
      <trkpt lat="45.28904" lon="4.72917">
        <ele>426.783845</ele>
        <time>2026-07-07T10:38:10.152Z</time>
      </trkpt>
      <trkpt lat="45.28915" lon="4.72912">
        <ele>427.502896</ele>
        <time>2026-07-07T10:38:14.151Z</time>
      </trkpt>
      <trkpt lat="45.28927" lon="4.72909">
        <ele>428.390133</ele>
        <time>2026-07-07T10:38:18.148Z</time>
      </trkpt>
      <trkpt lat="45.28937" lon="4.72909">
        <ele>429.187861</ele>
        <time>2026-07-07T10:38:21.157Z</time>
      </trkpt>
      <trkpt lat="45.28949" lon="4.7291">
        <ele>430.070688</ele>
        <time>2026-07-07T10:38:24.140Z</time>
      </trkpt>
      <trkpt lat="45.28959" lon="4.72907">
        <ele>430.797786</ele>
        <time>2026-07-07T10:38:27.155Z</time>
      </trkpt>
      <trkpt lat="45.28969" lon="4.72903">
        <ele>431.606287</ele>
        <time>2026-07-07T10:38:30.145Z</time>
      </trkpt>
      <trkpt lat="45.28981" lon="4.72899">
        <ele>432.459202</ele>
        <time>2026-07-07T10:38:33.155Z</time>
      </trkpt>
      <trkpt lat="45.28993" lon="4.72896">
        <ele>433.380925</ele>
        <time>2026-07-07T10:38:36.150Z</time>
      </trkpt>
      <trkpt lat="45.29004" lon="4.7289">
        <ele>434.261316</ele>
        <time>2026-07-07T10:38:39.154Z</time>
      </trkpt>
      <trkpt lat="45.29015" lon="4.72884">
        <ele>435.131511</ele>
        <time>2026-07-07T10:38:42.143Z</time>
      </trkpt>
      <trkpt lat="45.29026" lon="4.72878">
        <ele>435.963513</ele>
        <time>2026-07-07T10:38:45.148Z</time>
      </trkpt>
      <trkpt lat="45.29037" lon="4.72871">
        <ele>436.871851</ele>
        <time>2026-07-07T10:38:48.145Z</time>
      </trkpt>
      <trkpt lat="45.29047" lon="4.72869">
        <ele>437.656508</ele>
        <time>2026-07-07T10:38:51.150Z</time>
      </trkpt>
      <trkpt lat="45.29058" lon="4.72867">
        <ele>438.476942</ele>
        <time>2026-07-07T10:38:54.150Z</time>
      </trkpt>
      <trkpt lat="45.2907" lon="4.72866">
        <ele>439.36378</ele>
        <time>2026-07-07T10:38:57.156Z</time>
      </trkpt>
      <trkpt lat="45.29082" lon="4.72867">
        <ele>440.215337</ele>
        <time>2026-07-07T10:39:00.149Z</time>
      </trkpt>
      <trkpt lat="45.29092" lon="4.72869">
        <ele>441.097356</ele>
        <time>2026-07-07T10:39:03.141Z</time>
      </trkpt>
      <trkpt lat="45.29102" lon="4.72871">
        <ele>441.957404</ele>
        <time>2026-07-07T10:39:06.152Z</time>
      </trkpt>
      <trkpt lat="45.29112" lon="4.72872">
        <ele>442.809875</ele>
        <time>2026-07-07T10:39:09.153Z</time>
      </trkpt>
      <trkpt lat="45.29121" lon="4.72876">
        <ele>443.618789</ele>
        <time>2026-07-07T10:39:12.150Z</time>
      </trkpt>
      <trkpt lat="45.2913" lon="4.72877">
        <ele>444.418528</ele>
        <time>2026-07-07T10:39:15.154Z</time>
      </trkpt>
      <trkpt lat="45.29139" lon="4.72881">
        <ele>445.185763</ele>
        <time>2026-07-07T10:39:18.140Z</time>
      </trkpt>
      <trkpt lat="45.29149" lon="4.72888">
        <ele>446.146743</ele>
        <time>2026-07-07T10:39:20.146Z</time>
      </trkpt>
      <trkpt lat="45.29157" lon="4.72897">
        <ele>447.0335</ele>
        <time>2026-07-07T10:39:22.142Z</time>
      </trkpt>
      <trkpt lat="45.29169" lon="4.72906">
        <ele>448.149265</ele>
        <time>2026-07-07T10:39:25.146Z</time>
      </trkpt>
      <trkpt lat="45.29178" lon="4.72912">
        <ele>449.007095</ele>
        <time>2026-07-07T10:39:28.149Z</time>
      </trkpt>
      <trkpt lat="45.29188" lon="4.72917">
        <ele>449.928367</ele>
        <time>2026-07-07T10:39:31.150Z</time>
      </trkpt>
      <trkpt lat="45.29197" lon="4.72921">
        <ele>450.699286</ele>
        <time>2026-07-07T10:39:34.153Z</time>
      </trkpt>
      <trkpt lat="45.29207" lon="4.72923">
        <ele>451.591264</ele>
        <time>2026-07-07T10:39:38.154Z</time>
      </trkpt>
      <trkpt lat="45.29216" lon="4.72926">
        <ele>452.376951</ele>
        <time>2026-07-07T10:39:41.150Z</time>
      </trkpt>
      <trkpt lat="45.29226" lon="4.72931">
        <ele>453.233874</ele>
        <time>2026-07-07T10:39:44.146Z</time>
      </trkpt>
      <trkpt lat="45.29236" lon="4.72935">
        <ele>454.139826</ele>
        <time>2026-07-07T10:39:47.143Z</time>
      </trkpt>
      <trkpt lat="45.29246" lon="4.72938">
        <ele>455.033441</ele>
        <time>2026-07-07T10:39:50.146Z</time>
      </trkpt>
      <trkpt lat="45.29256" lon="4.72942">
        <ele>455.023122</ele>
        <time>2026-07-07T10:39:53.153Z</time>
      </trkpt>
      <trkpt lat="45.29265" lon="4.72951">
        <ele>454.518129</ele>
        <time>2026-07-07T10:39:56.149Z</time>
      </trkpt>
      <trkpt lat="45.29274" lon="4.72957">
        <ele>454.076131</ele>
        <time>2026-07-07T10:39:59.153Z</time>
      </trkpt>
      <trkpt lat="45.29284" lon="4.72961">
        <ele>453.589973</ele>
        <time>2026-07-07T10:40:02.140Z</time>
      </trkpt>
      <trkpt lat="45.29296" lon="4.72967">
        <ele>453.040547</ele>
        <time>2026-07-07T10:40:05.147Z</time>
      </trkpt>
      <trkpt lat="45.29306" lon="4.72974">
        <ele>452.530274</ele>
        <time>2026-07-07T10:40:08.145Z</time>
      </trkpt>
      <trkpt lat="45.29318" lon="4.72981">
        <ele>451.956625</ele>
        <time>2026-07-07T10:40:11.148Z</time>
      </trkpt>
      <trkpt lat="45.29328" lon="4.72986">
        <ele>451.463719</ele>
        <time>2026-07-07T10:40:14.148Z</time>
      </trkpt>
      <trkpt lat="45.2934" lon="4.72993">
        <ele>450.874209</ele>
        <time>2026-07-07T10:40:17.145Z</time>
      </trkpt>
      <trkpt lat="45.29352" lon="4.72999">
        <ele>450.31378</ele>
        <time>2026-07-07T10:40:20.142Z</time>
      </trkpt>
      <trkpt lat="45.29363" lon="4.73005">
        <ele>449.755643</ele>
        <time>2026-07-07T10:40:23.145Z</time>
      </trkpt>
      <trkpt lat="45.29374" lon="4.73014">
        <ele>449.180863</ele>
        <time>2026-07-07T10:40:26.151Z</time>
      </trkpt>
      <trkpt lat="45.29383" lon="4.73026">
        <ele>448.631876</ele>
        <time>2026-07-07T10:40:29.153Z</time>
      </trkpt>
      <trkpt lat="45.29387" lon="4.73037">
        <ele>448.218704</ele>
        <time>2026-07-07T10:40:31.146Z</time>
      </trkpt>
      <trkpt lat="45.29391" lon="4.73051">
        <ele>447.747865</ele>
        <time>2026-07-07T10:40:33.147Z</time>
      </trkpt>
      <trkpt lat="45.29394" lon="4.73064">
        <ele>447.324656</ele>
        <time>2026-07-07T10:40:35.152Z</time>
      </trkpt>
      <trkpt lat="45.29396" lon="4.73081">
        <ele>446.765687</ele>
        <time>2026-07-07T10:40:37.153Z</time>
      </trkpt>
      <trkpt lat="45.29397" lon="4.73101">
        <ele>446.127418</ele>
        <time>2026-07-07T10:40:39.153Z</time>
      </trkpt>
      <trkpt lat="45.29399" lon="4.73123">
        <ele>445.430736</ele>
        <time>2026-07-07T10:40:41.164Z</time>
      </trkpt>
      <trkpt lat="45.29402" lon="4.73143">
        <ele>444.76056</ele>
        <time>2026-07-07T10:40:43.161Z</time>
      </trkpt>
      <trkpt lat="45.29405" lon="4.73163">
        <ele>444.109586</ele>
        <time>2026-07-07T10:40:45.142Z</time>
      </trkpt>
      <trkpt lat="45.29403" lon="4.73179">
        <ele>443.589144</ele>
        <time>2026-07-07T10:40:47.138Z</time>
      </trkpt>
      <trkpt lat="45.29395" lon="4.73194">
        <ele>443.018408</ele>
        <time>2026-07-07T10:40:49.162Z</time>
      </trkpt>
      <trkpt lat="45.29385" lon="4.73207">
        <ele>442.388731</ele>
        <time>2026-07-07T10:40:51.146Z</time>
      </trkpt>
      <trkpt lat="45.29372" lon="4.73222">
        <ele>441.644366</ele>
        <time>2026-07-07T10:40:53.150Z</time>
      </trkpt>
      <trkpt lat="45.29358" lon="4.73239">
        <ele>440.787734</ele>
        <time>2026-07-07T10:40:55.143Z</time>
      </trkpt>
      <trkpt lat="45.29351" lon="4.73248">
        <ele>440.377976</ele>
        <time>2026-07-07T10:40:56.153Z</time>
      </trkpt>
      <trkpt lat="45.29338" lon="4.73264">
        <ele>439.592983</ele>
        <time>2026-07-07T10:40:58.122Z</time>
      </trkpt>
      <trkpt lat="45.29323" lon="4.73279">
        <ele>438.708184</ele>
        <time>2026-07-07T10:41:00.144Z</time>
      </trkpt>
      <trkpt lat="45.29309" lon="4.73295">
        <ele>437.710344</ele>
        <time>2026-07-07T10:41:02.107Z</time>
      </trkpt>
      <trkpt lat="45.29302" lon="4.73304">
        <ele>437.169559</ele>
        <time>2026-07-07T10:41:03.141Z</time>
      </trkpt>
      <trkpt lat="45.29294" lon="4.73311">
        <ele>436.653924</ele>
        <time>2026-07-07T10:41:04.126Z</time>
      </trkpt>
      <trkpt lat="45.29281" lon="4.73327">
        <ele>435.665563</ele>
        <time>2026-07-07T10:41:06.144Z</time>
      </trkpt>
      <trkpt lat="45.29273" lon="4.73335">
        <ele>435.142786</ele>
        <time>2026-07-07T10:41:07.141Z</time>
      </trkpt>
      <trkpt lat="45.29261" lon="4.73352">
        <ele>434.171371</ele>
        <time>2026-07-07T10:41:09.130Z</time>
      </trkpt>
      <trkpt lat="45.29248" lon="4.73368">
        <ele>433.216439</ele>
        <time>2026-07-07T10:41:11.142Z</time>
      </trkpt>
      <trkpt lat="45.29241" lon="4.73376">
        <ele>432.708892</ele>
        <time>2026-07-07T10:41:12.138Z</time>
      </trkpt>
      <trkpt lat="45.29228" lon="4.73394">
        <ele>431.665288</ele>
        <time>2026-07-07T10:41:14.148Z</time>
      </trkpt>
      <trkpt lat="45.29212" lon="4.73408">
        <ele>430.646372</ele>
        <time>2026-07-07T10:41:16.152Z</time>
      </trkpt>
      <trkpt lat="45.29199" lon="4.73424">
        <ele>429.687158</ele>
        <time>2026-07-07T10:41:18.136Z</time>
      </trkpt>
      <trkpt lat="45.2919" lon="4.73436">
        <ele>428.974066</ele>
        <time>2026-07-07T10:41:20.141Z</time>
      </trkpt>
      <trkpt lat="45.2918" lon="4.73443">
        <ele>428.86952</ele>
        <time>2026-07-07T10:41:22.153Z</time>
      </trkpt>
      <trkpt lat="45.29171" lon="4.73447">
        <ele>428.816655</ele>
        <time>2026-07-07T10:41:24.135Z</time>
      </trkpt>
      <trkpt lat="45.29161" lon="4.73447">
        <ele>428.768219</ele>
        <time>2026-07-07T10:41:26.129Z</time>
      </trkpt>
      <trkpt lat="45.29154" lon="4.73438">
        <ele>428.717387</ele>
        <time>2026-07-07T10:41:28.145Z</time>
      </trkpt>
      <trkpt lat="45.29144" lon="4.73427">
        <ele>428.654502</ele>
        <time>2026-07-07T10:41:30.150Z</time>
      </trkpt>
      <trkpt lat="45.29132" lon="4.73428">
        <ele>428.59148</ele>
        <time>2026-07-07T10:41:32.143Z</time>
      </trkpt>
      <trkpt lat="45.29121" lon="4.73433">
        <ele>428.528692</ele>
        <time>2026-07-07T10:41:34.152Z</time>
      </trkpt>
      <trkpt lat="45.29108" lon="4.7343">
        <ele>428.463122</ele>
        <time>2026-07-07T10:41:37.139Z</time>
      </trkpt>
      <trkpt lat="45.29099" lon="4.73429">
        <ele>428.416154</ele>
        <time>2026-07-07T10:41:41.144Z</time>
      </trkpt>
      <trkpt lat="45.29099" lon="4.73445">
        <ele>428.355679</ele>
        <time>2026-07-07T10:41:52.138Z</time>
      </trkpt>
      <trkpt lat="45.29096" lon="4.73463">
        <ele>428.291393</ele>
        <time>2026-07-07T10:41:55.156Z</time>
      </trkpt>
      <trkpt lat="45.29089" lon="4.73479">
        <ele>428.221494</ele>
        <time>2026-07-07T10:41:58.140Z</time>
      </trkpt>
      <trkpt lat="45.29084" lon="4.7349">
        <ele>428.173218</ele>
        <time>2026-07-07T10:42:00.142Z</time>
      </trkpt>
      <trkpt lat="45.29096" lon="4.73502">
        <ele>428.098559</ele>
        <time>2026-07-07T10:42:02.143Z</time>
      </trkpt>
      <trkpt lat="45.29102" lon="4.73512">
        <ele>428.051556</ele>
        <time>2026-07-07T10:42:06.151Z</time>
      </trkpt>
      <trkpt lat="45.29101" lon="4.73525">
        <ele>428.001968</ele>
        <time>2026-07-07T10:42:09.156Z</time>
      </trkpt>
      <trkpt lat="45.29088" lon="4.73533">
        <ele>427.138411</ele>
        <time>2026-07-07T10:42:12.155Z</time>
      </trkpt>
      <trkpt lat="45.29076" lon="4.73539">
        <ele>426.153099</ele>
        <time>2026-07-07T10:42:14.159Z</time>
      </trkpt>
      <trkpt lat="45.29062" lon="4.73548">
        <ele>424.956831</ele>
        <time>2026-07-07T10:42:16.156Z</time>
      </trkpt>
      <trkpt lat="45.29046" lon="4.73559">
        <ele>423.534303</ele>
        <time>2026-07-07T10:42:18.153Z</time>
      </trkpt>
      <trkpt lat="45.29037" lon="4.73564">
        <ele>422.780283</ele>
        <time>2026-07-07T10:42:19.145Z</time>
      </trkpt>
      <trkpt lat="45.29028" lon="4.73572">
        <ele>421.982192</ele>
        <time>2026-07-07T10:42:20.150Z</time>
      </trkpt>
      <trkpt lat="45.2902" lon="4.73579">
        <ele>421.182015</ele>
        <time>2026-07-07T10:42:21.144Z</time>
      </trkpt>
      <trkpt lat="45.29012" lon="4.73586">
        <ele>420.445162</ele>
        <time>2026-07-07T10:42:22.152Z</time>
      </trkpt>
      <trkpt lat="45.29002" lon="4.73593">
        <ele>419.625241</ele>
        <time>2026-07-07T10:42:23.137Z</time>
      </trkpt>
      <trkpt lat="45.28993" lon="4.73598">
        <ele>418.798814</ele>
        <time>2026-07-07T10:42:24.150Z</time>
      </trkpt>
      <trkpt lat="45.28983" lon="4.73604">
        <ele>417.947432</ele>
        <time>2026-07-07T10:42:25.139Z</time>
      </trkpt>
      <trkpt lat="45.28973" lon="4.73612">
        <ele>417.09773</ele>
        <time>2026-07-07T10:42:26.146Z</time>
      </trkpt>
      <trkpt lat="45.28964" lon="4.73617">
        <ele>416.293143</ele>
        <time>2026-07-07T10:42:27.144Z</time>
      </trkpt>
      <trkpt lat="45.28954" lon="4.73623">
        <ele>415.464674</ele>
        <time>2026-07-07T10:42:28.150Z</time>
      </trkpt>
      <trkpt lat="45.28944" lon="4.73627">
        <ele>414.679238</ele>
        <time>2026-07-07T10:42:29.153Z</time>
      </trkpt>
      <trkpt lat="45.28935" lon="4.73631">
        <ele>413.932221</ele>
        <time>2026-07-07T10:42:30.149Z</time>
      </trkpt>
      <trkpt lat="45.28926" lon="4.73634">
        <ele>414.304082</ele>
        <time>2026-07-07T10:42:31.148Z</time>
      </trkpt>
      <trkpt lat="45.28915" lon="4.73634">
        <ele>414.798547</ele>
        <time>2026-07-07T10:42:32.148Z</time>
      </trkpt>
      <trkpt lat="45.28906" lon="4.73634">
        <ele>415.231805</ele>
        <time>2026-07-07T10:42:33.157Z</time>
      </trkpt>
      <trkpt lat="45.28889" lon="4.73636">
        <ele>416.024437</ele>
        <time>2026-07-07T10:42:35.148Z</time>
      </trkpt>
      <trkpt lat="45.28874" lon="4.73641">
        <ele>416.736169</ele>
        <time>2026-07-07T10:42:37.159Z</time>
      </trkpt>
      <trkpt lat="45.28863" lon="4.73646">
        <ele>417.308907</ele>
        <time>2026-07-07T10:42:39.147Z</time>
      </trkpt>
      <trkpt lat="45.28854" lon="4.73651">
        <ele>417.73521</ele>
        <time>2026-07-07T10:42:41.144Z</time>
      </trkpt>
      <trkpt lat="45.28843" lon="4.73658">
        <ele>418.328615</ele>
        <time>2026-07-07T10:42:44.147Z</time>
      </trkpt>
      <trkpt lat="45.28832" lon="4.73664">
        <ele>418.879015</ele>
        <time>2026-07-07T10:42:47.158Z</time>
      </trkpt>
      <trkpt lat="45.28822" lon="4.73669">
        <ele>419.399481</ele>
        <time>2026-07-07T10:42:50.158Z</time>
      </trkpt>
      <trkpt lat="45.28812" lon="4.73673">
        <ele>419.880515</ele>
        <time>2026-07-07T10:42:53.152Z</time>
      </trkpt>
      <trkpt lat="45.28802" lon="4.73678">
        <ele>420.348987</ele>
        <time>2026-07-07T10:42:56.154Z</time>
      </trkpt>
      <trkpt lat="45.28792" lon="4.73682">
        <ele>420.856311</ele>
        <time>2026-07-07T10:42:59.146Z</time>
      </trkpt>
      <trkpt lat="45.28783" lon="4.73685">
        <ele>421.27941</ele>
        <time>2026-07-07T10:43:02.150Z</time>
      </trkpt>
      <trkpt lat="45.28773" lon="4.73688">
        <ele>421.77783</ele>
        <time>2026-07-07T10:43:05.150Z</time>
      </trkpt>
      <trkpt lat="45.28764" lon="4.7369">
        <ele>422.210457</ele>
        <time>2026-07-07T10:43:08.170Z</time>
      </trkpt>
      <trkpt lat="45.28755" lon="4.73692">
        <ele>422.717173</ele>
        <time>2026-07-07T10:43:11.145Z</time>
      </trkpt>
      <trkpt lat="45.28745" lon="4.73695">
        <ele>423.329555</ele>
        <time>2026-07-07T10:43:14.148Z</time>
      </trkpt>
      <trkpt lat="45.28736" lon="4.73699">
        <ele>423.865545</ele>
        <time>2026-07-07T10:43:17.146Z</time>
      </trkpt>
      <trkpt lat="45.28725" lon="4.73702">
        <ele>424.496095</ele>
        <time>2026-07-07T10:43:20.153Z</time>
      </trkpt>
      <trkpt lat="45.28714" lon="4.73703">
        <ele>425.155038</ele>
        <time>2026-07-07T10:43:24.154Z</time>
      </trkpt>
      <trkpt lat="45.28704" lon="4.73705">
        <ele>425.790065</ele>
        <time>2026-07-07T10:43:27.155Z</time>
      </trkpt>
      <trkpt lat="45.28694" lon="4.73707">
        <ele>426.36692</ele>
        <time>2026-07-07T10:43:30.153Z</time>
      </trkpt>
      <trkpt lat="45.28684" lon="4.7371">
        <ele>426.963322</ele>
        <time>2026-07-07T10:43:35.149Z</time>
      </trkpt>
      <trkpt lat="45.28675" lon="4.73713">
        <ele>427.492994</ele>
        <time>2026-07-07T10:43:39.146Z</time>
      </trkpt>
      <trkpt lat="45.28664" lon="4.73714">
        <ele>428.140202</ele>
        <time>2026-07-07T10:43:43.144Z</time>
      </trkpt>
      <trkpt lat="45.28654" lon="4.73717">
        <ele>428.768574</ele>
        <time>2026-07-07T10:43:47.138Z</time>
      </trkpt>
      <trkpt lat="45.28642" lon="4.73718">
        <ele>429.485831</ele>
        <time>2026-07-07T10:43:51.159Z</time>
      </trkpt>
      <trkpt lat="45.2863" lon="4.73719">
        <ele>430.189427</ele>
        <time>2026-07-07T10:43:55.158Z</time>
      </trkpt>
      <trkpt lat="45.28621" lon="4.73721">
        <ele>430.74186</ele>
        <time>2026-07-07T10:43:58.153Z</time>
      </trkpt>
      <trkpt lat="45.28611" lon="4.73722">
        <ele>431.29384</ele>
        <time>2026-07-07T10:44:01.160Z</time>
      </trkpt>
      <trkpt lat="45.286" lon="4.73723">
        <ele>431.937521</ele>
        <time>2026-07-07T10:44:04.154Z</time>
      </trkpt>
      <trkpt lat="45.2859" lon="4.73724">
        <ele>432.547846</ele>
        <time>2026-07-07T10:44:07.147Z</time>
      </trkpt>
      <trkpt lat="45.2858" lon="4.73726">
        <ele>433.017483</ele>
        <time>2026-07-07T10:44:10.146Z</time>
      </trkpt>
      <trkpt lat="45.2857" lon="4.7373">
        <ele>433.210002</ele>
        <time>2026-07-07T10:44:13.152Z</time>
      </trkpt>
      <trkpt lat="45.28558" lon="4.73733">
        <ele>433.420936</ele>
        <time>2026-07-07T10:44:16.150Z</time>
      </trkpt>
      <trkpt lat="45.28545" lon="4.73736">
        <ele>433.646567</ele>
        <time>2026-07-07T10:44:19.146Z</time>
      </trkpt>
      <trkpt lat="45.28533" lon="4.73738">
        <ele>433.860543</ele>
        <time>2026-07-07T10:44:22.163Z</time>
      </trkpt>
      <trkpt lat="45.28524" lon="4.7374">
        <ele>434.022274</ele>
        <time>2026-07-07T10:44:24.157Z</time>
      </trkpt>
      <trkpt lat="45.28512" lon="4.73745">
        <ele>434.245494</ele>
        <time>2026-07-07T10:44:27.145Z</time>
      </trkpt>
      <trkpt lat="45.28502" lon="4.73747">
        <ele>434.421403</ele>
        <time>2026-07-07T10:44:30.154Z</time>
      </trkpt>
      <trkpt lat="45.28493" lon="4.7374">
        <ele>434.607402</ele>
        <time>2026-07-07T10:44:33.156Z</time>
      </trkpt>
      <trkpt lat="45.28493" lon="4.73726">
        <ele>434.775702</ele>
        <time>2026-07-07T10:44:35.160Z</time>
      </trkpt>
      <trkpt lat="45.28494" lon="4.73713">
        <ele>434.939892</ele>
        <time>2026-07-07T10:44:37.147Z</time>
      </trkpt>
      <trkpt lat="45.28495" lon="4.73698">
        <ele>435.126396</ele>
        <time>2026-07-07T10:44:39.160Z</time>
      </trkpt>
      <trkpt lat="45.28495" lon="4.73684">
        <ele>435.3048</ele>
        <time>2026-07-07T10:44:41.148Z</time>
      </trkpt>
      <trkpt lat="45.28495" lon="4.73669">
        <ele>435.497946</ele>
        <time>2026-07-07T10:44:43.150Z</time>
      </trkpt>
      <trkpt lat="45.28497" lon="4.73652">
        <ele>435.707118</ele>
        <time>2026-07-07T10:44:45.154Z</time>
      </trkpt>
      <trkpt lat="45.28498" lon="4.73636">
        <ele>435.908511</ele>
        <time>2026-07-07T10:44:47.133Z</time>
      </trkpt>
      <trkpt lat="45.28498" lon="4.73621">
        <ele>436.095829</ele>
        <time>2026-07-07T10:44:49.151Z</time>
      </trkpt>
      <trkpt lat="45.28498" lon="4.73605">
        <ele>436.231203</ele>
        <time>2026-07-07T10:44:51.142Z</time>
      </trkpt>
      <trkpt lat="45.28499" lon="4.73588">
        <ele>436.35206</ele>
        <time>2026-07-07T10:44:53.149Z</time>
      </trkpt>
      <trkpt lat="45.285" lon="4.73571">
        <ele>436.47768</ele>
        <time>2026-07-07T10:44:55.160Z</time>
      </trkpt>
      <trkpt lat="45.28501" lon="4.73554">
        <ele>436.600771</ele>
        <time>2026-07-07T10:44:57.146Z</time>
      </trkpt>
      <trkpt lat="45.28502" lon="4.73537">
        <ele>436.72547</ele>
        <time>2026-07-07T10:44:59.154Z</time>
      </trkpt>
      <trkpt lat="45.28504" lon="4.73519">
        <ele>436.853475</ele>
        <time>2026-07-07T10:45:01.153Z</time>
      </trkpt>
      <trkpt lat="45.28504" lon="4.73503">
        <ele>436.96835</ele>
        <time>2026-07-07T10:45:03.154Z</time>
      </trkpt>
      <trkpt lat="45.28503" lon="4.73489">
        <ele>437.070927</ele>
        <time>2026-07-07T10:45:05.153Z</time>
      </trkpt>
      <trkpt lat="45.28495" lon="4.73479">
        <ele>437.179469</ele>
        <time>2026-07-07T10:45:09.151Z</time>
      </trkpt>
      <trkpt lat="45.28487" lon="4.73486">
        <ele>437.277029</ele>
        <time>2026-07-07T10:45:12.156Z</time>
      </trkpt>
      <trkpt lat="45.2848" lon="4.735">
        <ele>437.404079</ele>
        <time>2026-07-07T10:45:15.156Z</time>
      </trkpt>
      <trkpt lat="45.28472" lon="4.73516">
        <ele>437.541096</ele>
        <time>2026-07-07T10:45:18.153Z</time>
      </trkpt>
      <trkpt lat="45.28466" lon="4.73527">
        <ele>437.641591</ele>
        <time>2026-07-07T10:45:20.155Z</time>
      </trkpt>
      <trkpt lat="45.28461" lon="4.73538">
        <ele>437.734937</ele>
        <time>2026-07-07T10:45:22.147Z</time>
      </trkpt>
      <trkpt lat="45.28456" lon="4.73548">
        <ele>437.82768</ele>
        <time>2026-07-07T10:45:24.150Z</time>
      </trkpt>
      <trkpt lat="45.28449" lon="4.73565">
        <ele>437.967191</ele>
        <time>2026-07-07T10:45:27.155Z</time>
      </trkpt>
      <trkpt lat="45.28441" lon="4.7358">
        <ele>438.384902</ele>
        <time>2026-07-07T10:45:30.150Z</time>
      </trkpt>
      <trkpt lat="45.28434" lon="4.73595">
        <ele>438.866187</ele>
        <time>2026-07-07T10:45:33.146Z</time>
      </trkpt>
      <trkpt lat="45.28429" lon="4.73605">
        <ele>439.205996</ele>
        <time>2026-07-07T10:45:35.148Z</time>
      </trkpt>
      <trkpt lat="45.28422" lon="4.73619">
        <ele>439.680381</ele>
        <time>2026-07-07T10:45:38.155Z</time>
      </trkpt>
      <trkpt lat="45.28414" lon="4.73629">
        <ele>440.049328</ele>
        <time>2026-07-07T10:45:40.157Z</time>
      </trkpt>
      <trkpt lat="45.28405" lon="4.73642">
        <ele>440.560374</ele>
        <time>2026-07-07T10:45:43.153Z</time>
      </trkpt>
      <trkpt lat="45.28398" lon="4.73652">
        <ele>440.933806</ele>
        <time>2026-07-07T10:45:45.152Z</time>
      </trkpt>
      <trkpt lat="45.28391" lon="4.73662">
        <ele>441.289024</ele>
        <time>2026-07-07T10:45:47.151Z</time>
      </trkpt>
      <trkpt lat="45.28384" lon="4.73671">
        <ele>441.642422</ele>
        <time>2026-07-07T10:45:49.145Z</time>
      </trkpt>
      <trkpt lat="45.28377" lon="4.7368">
        <ele>442.00296</ele>
        <time>2026-07-07T10:45:51.144Z</time>
      </trkpt>
      <trkpt lat="45.28368" lon="4.73695">
        <ele>442.520967</ele>
        <time>2026-07-07T10:45:54.151Z</time>
      </trkpt>
      <trkpt lat="45.28362" lon="4.73704">
        <ele>442.868309</ele>
        <time>2026-07-07T10:45:56.153Z</time>
      </trkpt>
      <trkpt lat="45.28356" lon="4.73714">
        <ele>443.22943</ele>
        <time>2026-07-07T10:45:58.116Z</time>
      </trkpt>
      <trkpt lat="45.2835" lon="4.73724">
        <ele>443.584058</ele>
        <time>2026-07-07T10:46:00.140Z</time>
      </trkpt>
      <trkpt lat="45.28343" lon="4.73734">
        <ele>443.9314</ele>
        <time>2026-07-07T10:46:02.143Z</time>
      </trkpt>
      <trkpt lat="45.28333" lon="4.73747">
        <ele>444.446549</ele>
        <time>2026-07-07T10:46:05.153Z</time>
      </trkpt>
      <trkpt lat="45.28327" lon="4.73757">
        <ele>444.7977</ele>
        <time>2026-07-07T10:46:07.146Z</time>
      </trkpt>
      <trkpt lat="45.2832" lon="4.73767">
        <ele>444.862083</ele>
        <time>2026-07-07T10:46:09.151Z</time>
      </trkpt>
      <trkpt lat="45.28313" lon="4.73776">
        <ele>444.927281</ele>
        <time>2026-07-07T10:46:11.151Z</time>
      </trkpt>
      <trkpt lat="45.28305" lon="4.73786">
        <ele>444.994865</ele>
        <time>2026-07-07T10:46:13.150Z</time>
      </trkpt>
      <trkpt lat="45.28299" lon="4.73797">
        <ele>445.060781</ele>
        <time>2026-07-07T10:46:15.150Z</time>
      </trkpt>
      <trkpt lat="45.28292" lon="4.73807">
        <ele>445.123162</ele>
        <time>2026-07-07T10:46:17.143Z</time>
      </trkpt>
      <trkpt lat="45.28285" lon="4.73816">
        <ele>445.187397</ele>
        <time>2026-07-07T10:46:19.152Z</time>
      </trkpt>
      <trkpt lat="45.28278" lon="4.73826">
        <ele>445.252283</ele>
        <time>2026-07-07T10:46:21.136Z</time>
      </trkpt>
      <trkpt lat="45.28271" lon="4.73837">
        <ele>445.325305</ele>
        <time>2026-07-07T10:46:23.156Z</time>
      </trkpt>
      <trkpt lat="45.28263" lon="4.73846">
        <ele>445.393711</ele>
        <time>2026-07-07T10:46:25.152Z</time>
      </trkpt>
      <trkpt lat="45.28254" lon="4.73854">
        <ele>445.458252</ele>
        <time>2026-07-07T10:46:27.161Z</time>
      </trkpt>
      <trkpt lat="45.28246" lon="4.7386">
        <ele>445.519675</ele>
        <time>2026-07-07T10:46:29.150Z</time>
      </trkpt>
      <trkpt lat="45.28237" lon="4.73865">
        <ele>445.583302</ele>
        <time>2026-07-07T10:46:31.143Z</time>
      </trkpt>
      <trkpt lat="45.28228" lon="4.73871">
        <ele>445.652954</ele>
        <time>2026-07-07T10:46:33.152Z</time>
      </trkpt>
      <trkpt lat="45.28218" lon="4.73876">
        <ele>445.718658</ele>
        <time>2026-07-07T10:46:35.153Z</time>
      </trkpt>
      <trkpt lat="45.28209" lon="4.73882">
        <ele>445.787894</ele>
        <time>2026-07-07T10:46:37.144Z</time>
      </trkpt>
      <trkpt lat="45.28198" lon="4.73888">
        <ele>445.86157</ele>
        <time>2026-07-07T10:46:39.153Z</time>
      </trkpt>
      <trkpt lat="45.28187" lon="4.73893">
        <ele>445.941587</ele>
        <time>2026-07-07T10:46:41.154Z</time>
      </trkpt>
      <trkpt lat="45.28175" lon="4.73898">
        <ele>445.895381</ele>
        <time>2026-07-07T10:46:43.143Z</time>
      </trkpt>
      <trkpt lat="45.28163" lon="4.73903">
        <ele>445.669536</ele>
        <time>2026-07-07T10:46:45.154Z</time>
      </trkpt>
      <trkpt lat="45.28151" lon="4.73908">
        <ele>445.447371</ele>
        <time>2026-07-07T10:46:47.153Z</time>
      </trkpt>
      <trkpt lat="45.28138" lon="4.73912">
        <ele>445.228762</ele>
        <time>2026-07-07T10:46:49.151Z</time>
      </trkpt>
      <trkpt lat="45.28126" lon="4.73916">
        <ele>445.013528</ele>
        <time>2026-07-07T10:46:51.144Z</time>
      </trkpt>
      <trkpt lat="45.28115" lon="4.7392">
        <ele>444.807286</ele>
        <time>2026-07-07T10:46:53.154Z</time>
      </trkpt>
      <trkpt lat="45.28103" lon="4.73924">
        <ele>444.603065</ele>
        <time>2026-07-07T10:46:55.140Z</time>
      </trkpt>
      <trkpt lat="45.28091" lon="4.73927">
        <ele>444.381488</ele>
        <time>2026-07-07T10:46:57.134Z</time>
      </trkpt>
      <trkpt lat="45.28079" lon="4.73931">
        <ele>444.175246</ele>
        <time>2026-07-07T10:46:59.153Z</time>
      </trkpt>
      <trkpt lat="45.28068" lon="4.73935">
        <ele>443.980342</ele>
        <time>2026-07-07T10:47:01.157Z</time>
      </trkpt>
      <trkpt lat="45.28057" lon="4.73937">
        <ele>443.773359</ele>
        <time>2026-07-07T10:47:03.144Z</time>
      </trkpt>
      <trkpt lat="45.28044" lon="4.73939">
        <ele>443.551387</ele>
        <time>2026-07-07T10:47:05.150Z</time>
      </trkpt>
      <trkpt lat="45.28029" lon="4.73941">
        <ele>443.291716</ele>
        <time>2026-07-07T10:47:07.159Z</time>
      </trkpt>
      <trkpt lat="45.28014" lon="4.73943">
        <ele>443.024988</ele>
        <time>2026-07-07T10:47:09.144Z</time>
      </trkpt>
      <trkpt lat="45.28" lon="4.73946">
        <ele>442.843898</ele>
        <time>2026-07-07T10:47:11.147Z</time>
      </trkpt>
      <trkpt lat="45.27985" lon="4.73949">
        <ele>442.799457</ele>
        <time>2026-07-07T10:47:13.154Z</time>
      </trkpt>
      <trkpt lat="45.27968" lon="4.73952">
        <ele>442.751642</ele>
        <time>2026-07-07T10:47:15.148Z</time>
      </trkpt>
      <trkpt lat="45.27952" lon="4.73955">
        <ele>442.703402</ele>
        <time>2026-07-07T10:47:17.151Z</time>
      </trkpt>
      <trkpt lat="45.27935" lon="4.73959">
        <ele>442.653158</ele>
        <time>2026-07-07T10:47:19.149Z</time>
      </trkpt>
      <trkpt lat="45.27918" lon="4.7396">
        <ele>442.602702</ele>
        <time>2026-07-07T10:47:21.152Z</time>
      </trkpt>
      <trkpt lat="45.27901" lon="4.73961">
        <ele>442.552821</ele>
        <time>2026-07-07T10:47:23.143Z</time>
      </trkpt>
      <trkpt lat="45.27884" lon="4.73962">
        <ele>442.502113</ele>
        <time>2026-07-07T10:47:25.149Z</time>
      </trkpt>
      <trkpt lat="45.27866" lon="4.73961">
        <ele>442.450243</ele>
        <time>2026-07-07T10:47:27.145Z</time>
      </trkpt>
      <trkpt lat="45.27849" lon="4.73961">
        <ele>442.401606</ele>
        <time>2026-07-07T10:47:29.149Z</time>
      </trkpt>
      <trkpt lat="45.27833" lon="4.73962">
        <ele>442.354137</ele>
        <time>2026-07-07T10:47:31.155Z</time>
      </trkpt>
      <trkpt lat="45.27817" lon="4.73963">
        <ele>442.427591</ele>
        <time>2026-07-07T10:47:33.154Z</time>
      </trkpt>
      <trkpt lat="45.27802" lon="4.73966">
        <ele>442.607509</ele>
        <time>2026-07-07T10:47:35.156Z</time>
      </trkpt>
      <trkpt lat="45.27787" lon="4.73969">
        <ele>442.781724</ele>
        <time>2026-07-07T10:47:37.135Z</time>
      </trkpt>
      <trkpt lat="45.27772" lon="4.73973">
        <ele>442.962701</ele>
        <time>2026-07-07T10:47:39.143Z</time>
      </trkpt>
      <trkpt lat="45.27757" lon="4.73977">
        <ele>443.138823</ele>
        <time>2026-07-07T10:47:41.146Z</time>
      </trkpt>
      <trkpt lat="45.27742" lon="4.73981">
        <ele>443.310047</ele>
        <time>2026-07-07T10:47:43.132Z</time>
      </trkpt>
      <trkpt lat="45.27729" lon="4.73987">
        <ele>443.477754</ele>
        <time>2026-07-07T10:47:45.143Z</time>
      </trkpt>
      <trkpt lat="45.27715" lon="4.73992">
        <ele>443.643023</ele>
        <time>2026-07-07T10:47:47.150Z</time>
      </trkpt>
      <trkpt lat="45.27702" lon="4.73997">
        <ele>443.800693</ele>
        <time>2026-07-07T10:47:49.151Z</time>
      </trkpt>
      <trkpt lat="45.27688" lon="4.74002">
        <ele>443.964581</ele>
        <time>2026-07-07T10:47:51.155Z</time>
      </trkpt>
      <trkpt lat="45.27675" lon="4.74007">
        <ele>444.119589</ele>
        <time>2026-07-07T10:47:53.150Z</time>
      </trkpt>
      <trkpt lat="45.27662" lon="4.74011">
        <ele>444.275351</ele>
        <time>2026-07-07T10:47:55.137Z</time>
      </trkpt>
      <trkpt lat="45.2765" lon="4.74015">
        <ele>444.429031</ele>
        <time>2026-07-07T10:47:57.153Z</time>
      </trkpt>
      <trkpt lat="45.27637" lon="4.74019">
        <ele>444.115175</ele>
        <time>2026-07-07T10:47:59.151Z</time>
      </trkpt>
      <trkpt lat="45.27623" lon="4.74022">
        <ele>443.792383</ele>
        <time>2026-07-07T10:48:01.149Z</time>
      </trkpt>
      <trkpt lat="45.27611" lon="4.74026">
        <ele>443.489103</ele>
        <time>2026-07-07T10:48:03.150Z</time>
      </trkpt>
      <trkpt lat="45.27596" lon="4.74029">
        <ele>443.135913</ele>
        <time>2026-07-07T10:48:05.149Z</time>
      </trkpt>
      <trkpt lat="45.27582" lon="4.7403">
        <ele>442.788834</ele>
        <time>2026-07-07T10:48:07.155Z</time>
      </trkpt>
      <trkpt lat="45.27567" lon="4.7403">
        <ele>442.44206</ele>
        <time>2026-07-07T10:48:09.150Z</time>
      </trkpt>
      <trkpt lat="45.27551" lon="4.74026">
        <ele>442.050785</ele>
        <time>2026-07-07T10:48:11.145Z</time>
      </trkpt>
      <trkpt lat="45.27537" lon="4.74022">
        <ele>441.706854</ele>
        <time>2026-07-07T10:48:13.152Z</time>
      </trkpt>
      <trkpt lat="45.27522" lon="4.74018">
        <ele>441.33551</ele>
        <time>2026-07-07T10:48:15.152Z</time>
      </trkpt>
      <trkpt lat="45.27508" lon="4.74015">
        <ele>440.999621</ele>
        <time>2026-07-07T10:48:17.156Z</time>
      </trkpt>
      <trkpt lat="45.27493" lon="4.74012">
        <ele>440.637914</ele>
        <time>2026-07-07T10:48:19.156Z</time>
      </trkpt>
      <trkpt lat="45.27477" lon="4.74007">
        <ele>440.244609</ele>
        <time>2026-07-07T10:48:21.150Z</time>
      </trkpt>
      <trkpt lat="45.2746" lon="4.74002">
        <ele>439.843042</ele>
        <time>2026-07-07T10:48:23.150Z</time>
      </trkpt>
      <trkpt lat="45.27443" lon="4.73997">
        <ele>439.455217</ele>
        <time>2026-07-07T10:48:25.149Z</time>
      </trkpt>
      <trkpt lat="45.27434" lon="4.73995">
        <ele>439.241838</ele>
        <time>2026-07-07T10:48:26.158Z</time>
      </trkpt>
      <trkpt lat="45.27425" lon="4.73992">
        <ele>439.024589</ele>
        <time>2026-07-07T10:48:27.160Z</time>
      </trkpt>
      <trkpt lat="45.27415" lon="4.73988">
        <ele>438.804145</ele>
        <time>2026-07-07T10:48:28.169Z</time>
      </trkpt>
      <trkpt lat="45.27406" lon="4.73985">
        <ele>438.595009</ele>
        <time>2026-07-07T10:48:29.149Z</time>
      </trkpt>
      <trkpt lat="45.27388" lon="4.73979">
        <ele>438.175586</ele>
        <time>2026-07-07T10:48:31.149Z</time>
      </trkpt>
      <trkpt lat="45.27379" lon="4.73976">
        <ele>437.957976</ele>
        <time>2026-07-07T10:48:32.129Z</time>
      </trkpt>
      <trkpt lat="45.27369" lon="4.73973">
        <ele>437.732166</ele>
        <time>2026-07-07T10:48:33.154Z</time>
      </trkpt>
      <trkpt lat="45.2736" lon="4.73971">
        <ele>437.523261</ele>
        <time>2026-07-07T10:48:34.145Z</time>
      </trkpt>
      <trkpt lat="45.27351" lon="4.73968">
        <ele>437.311809</ele>
        <time>2026-07-07T10:48:35.150Z</time>
      </trkpt>
      <trkpt lat="45.27341" lon="4.73966">
        <ele>437.082165</ele>
        <time>2026-07-07T10:48:36.150Z</time>
      </trkpt>
      <trkpt lat="45.27332" lon="4.73964">
        <ele>436.864417</ele>
        <time>2026-07-07T10:48:37.152Z</time>
      </trkpt>
      <trkpt lat="45.27322" lon="4.73962">
        <ele>436.646086</ele>
        <time>2026-07-07T10:48:38.147Z</time>
      </trkpt>
      <trkpt lat="45.27313" lon="4.7396">
        <ele>436.42985</ele>
        <time>2026-07-07T10:48:39.152Z</time>
      </trkpt>
      <trkpt lat="45.27304" lon="4.73957">
        <ele>436.214822</ele>
        <time>2026-07-07T10:48:40.151Z</time>
      </trkpt>
      <trkpt lat="45.27295" lon="4.73953">
        <ele>435.995171</ele>
        <time>2026-07-07T10:48:41.150Z</time>
      </trkpt>
      <trkpt lat="45.27286" lon="4.73949">
        <ele>435.748554</ele>
        <time>2026-07-07T10:48:42.149Z</time>
      </trkpt>
      <trkpt lat="45.27277" lon="4.73945">
        <ele>435.494624</ele>
        <time>2026-07-07T10:48:43.153Z</time>
      </trkpt>
      <trkpt lat="45.27259" lon="4.7394">
        <ele>435.007224</ele>
        <time>2026-07-07T10:48:45.146Z</time>
      </trkpt>
      <trkpt lat="45.2725" lon="4.73939">
        <ele>434.749265</ele>
        <time>2026-07-07T10:48:46.155Z</time>
      </trkpt>
      <trkpt lat="45.27232" lon="4.73936">
        <ele>434.272104</ele>
        <time>2026-07-07T10:48:48.153Z</time>
      </trkpt>
      <trkpt lat="45.27223" lon="4.73936">
        <ele>434.029209</ele>
        <time>2026-07-07T10:48:49.148Z</time>
      </trkpt>
      <trkpt lat="45.27205" lon="4.73935">
        <ele>433.543063</ele>
        <time>2026-07-07T10:48:51.137Z</time>
      </trkpt>
      <trkpt lat="45.27196" lon="4.73934">
        <ele>433.293359</ele>
        <time>2026-07-07T10:48:52.153Z</time>
      </trkpt>
      <trkpt lat="45.27187" lon="4.73933">
        <ele>433.04973</ele>
        <time>2026-07-07T10:48:53.151Z</time>
      </trkpt>
      <trkpt lat="45.27178" lon="4.73932">
        <ele>432.797879</ele>
        <time>2026-07-07T10:48:54.150Z</time>
      </trkpt>
      <trkpt lat="45.27169" lon="4.73931">
        <ele>432.554806</ele>
        <time>2026-07-07T10:48:55.144Z</time>
      </trkpt>
      <trkpt lat="45.2716" lon="4.7393">
        <ele>432.305796</ele>
        <time>2026-07-07T10:48:56.146Z</time>
      </trkpt>
      <trkpt lat="45.2715" lon="4.73929">
        <ele>432.039985</ele>
        <time>2026-07-07T10:48:57.153Z</time>
      </trkpt>
      <trkpt lat="45.2714" lon="4.73928">
        <ele>431.785104</ele>
        <time>2026-07-07T10:48:58.144Z</time>
      </trkpt>
      <trkpt lat="45.27131" lon="4.73926">
        <ele>431.53828</ele>
        <time>2026-07-07T10:48:59.144Z</time>
      </trkpt>
      <trkpt lat="45.27122" lon="4.73925">
        <ele>431.283576</ele>
        <time>2026-07-07T10:49:00.144Z</time>
      </trkpt>
      <trkpt lat="45.27113" lon="4.73924">
        <ele>431.061867</ele>
        <time>2026-07-07T10:49:01.146Z</time>
      </trkpt>
      <trkpt lat="45.27102" lon="4.73921">
        <ele>430.841903</ele>
        <time>2026-07-07T10:49:02.161Z</time>
      </trkpt>
      <trkpt lat="45.27093" lon="4.7392">
        <ele>430.63175</ele>
        <time>2026-07-07T10:49:03.152Z</time>
      </trkpt>
      <trkpt lat="45.27083" lon="4.73918">
        <ele>430.420443</ele>
        <time>2026-07-07T10:49:04.146Z</time>
      </trkpt>
      <trkpt lat="45.27073" lon="4.73916">
        <ele>430.21841</ele>
        <time>2026-07-07T10:49:05.103Z</time>
      </trkpt>
      <trkpt lat="45.27064" lon="4.73915">
        <ele>430.012939</ele>
        <time>2026-07-07T10:49:06.151Z</time>
      </trkpt>
      <trkpt lat="45.27054" lon="4.73915">
        <ele>429.795461</ele>
        <time>2026-07-07T10:49:07.148Z</time>
      </trkpt>
      <trkpt lat="45.27043" lon="4.73915">
        <ele>429.575728</ele>
        <time>2026-07-07T10:49:08.153Z</time>
      </trkpt>
      <trkpt lat="45.27033" lon="4.73918">
        <ele>429.349165</ele>
        <time>2026-07-07T10:49:09.153Z</time>
      </trkpt>
      <trkpt lat="45.27023" lon="4.73924">
        <ele>429.120125</ele>
        <time>2026-07-07T10:49:10.155Z</time>
      </trkpt>
      <trkpt lat="45.27013" lon="4.7393">
        <ele>428.893352</ele>
        <time>2026-07-07T10:49:11.144Z</time>
      </trkpt>
      <trkpt lat="45.27004" lon="4.73936">
        <ele>428.683782</ele>
        <time>2026-07-07T10:49:12.149Z</time>
      </trkpt>
      <trkpt lat="45.26996" lon="4.73943">
        <ele>428.475388</ele>
        <time>2026-07-07T10:49:13.151Z</time>
      </trkpt>
      <trkpt lat="45.26987" lon="4.7395">
        <ele>428.264404</ele>
        <time>2026-07-07T10:49:14.130Z</time>
      </trkpt>
      <trkpt lat="45.26978" lon="4.73956">
        <ele>428.048578</ele>
        <time>2026-07-07T10:49:15.142Z</time>
      </trkpt>
      <trkpt lat="45.26969" lon="4.7396">
        <ele>427.846133</ele>
        <time>2026-07-07T10:49:16.144Z</time>
      </trkpt>
      <trkpt lat="45.2696" lon="4.73964">
        <ele>427.654553</ele>
        <time>2026-07-07T10:49:17.149Z</time>
      </trkpt>
      <trkpt lat="45.26945" lon="4.73967">
        <ele>427.290836</ele>
        <time>2026-07-07T10:49:19.146Z</time>
      </trkpt>
      <trkpt lat="45.26933" lon="4.73967">
        <ele>426.631534</ele>
        <time>2026-07-07T10:49:21.155Z</time>
      </trkpt>
      <trkpt lat="45.26921" lon="4.73964">
        <ele>425.986871</ele>
        <time>2026-07-07T10:49:24.144Z</time>
      </trkpt>
      <trkpt lat="45.26907" lon="4.73964">
        <ele>425.207625</ele>
        <time>2026-07-07T10:49:27.150Z</time>
      </trkpt>
      <trkpt lat="45.26894" lon="4.73966">
        <ele>424.49429</ele>
        <time>2026-07-07T10:49:29.149Z</time>
      </trkpt>
      <trkpt lat="45.26879" lon="4.73965">
        <ele>423.708332</ele>
        <time>2026-07-07T10:49:31.146Z</time>
      </trkpt>
      <trkpt lat="45.26865" lon="4.73963">
        <ele>422.915588</ele>
        <time>2026-07-07T10:49:33.158Z</time>
      </trkpt>
      <trkpt lat="45.2685" lon="4.73962">
        <ele>422.119157</ele>
        <time>2026-07-07T10:49:35.154Z</time>
      </trkpt>
      <trkpt lat="45.26835" lon="4.73961">
        <ele>421.289459</ele>
        <time>2026-07-07T10:49:37.145Z</time>
      </trkpt>
      <trkpt lat="45.2682" lon="4.73958">
        <ele>420.481338</ele>
        <time>2026-07-07T10:49:39.146Z</time>
      </trkpt>
      <trkpt lat="45.26806" lon="4.73956">
        <ele>419.697623</ele>
        <time>2026-07-07T10:49:41.143Z</time>
      </trkpt>
      <trkpt lat="45.26792" lon="4.73951">
        <ele>418.908197</ele>
        <time>2026-07-07T10:49:43.150Z</time>
      </trkpt>
      <trkpt lat="45.26778" lon="4.73942">
        <ele>418.070109</ele>
        <time>2026-07-07T10:49:45.139Z</time>
      </trkpt>
      <trkpt lat="45.26764" lon="4.73934">
        <ele>417.178086</ele>
        <time>2026-07-07T10:49:47.162Z</time>
      </trkpt>
      <trkpt lat="45.26749" lon="4.73928">
        <ele>416.188948</ele>
        <time>2026-07-07T10:49:49.150Z</time>
      </trkpt>
      <trkpt lat="45.26735" lon="4.73923">
        <ele>415.222889</ele>
        <time>2026-07-07T10:49:51.154Z</time>
      </trkpt>
      <trkpt lat="45.26718" lon="4.73918">
        <ele>414.117249</ele>
        <time>2026-07-07T10:49:53.144Z</time>
      </trkpt>
      <trkpt lat="45.26701" lon="4.73912">
        <ele>412.97292</ele>
        <time>2026-07-07T10:49:55.148Z</time>
      </trkpt>
      <trkpt lat="45.26692" lon="4.7391">
        <ele>412.379846</ele>
        <time>2026-07-07T10:49:56.157Z</time>
      </trkpt>
      <trkpt lat="45.26682" lon="4.73908">
        <ele>411.771539</ele>
        <time>2026-07-07T10:49:57.148Z</time>
      </trkpt>
      <trkpt lat="45.26666" lon="4.73908">
        <ele>410.736525</ele>
        <time>2026-07-07T10:49:59.144Z</time>
      </trkpt>
      <trkpt lat="45.26651" lon="4.73915">
        <ele>409.688734</ele>
        <time>2026-07-07T10:50:01.148Z</time>
      </trkpt>
      <trkpt lat="45.26635" lon="4.73925">
        <ele>408.59338</ele>
        <time>2026-07-07T10:50:03.139Z</time>
      </trkpt>
      <trkpt lat="45.26626" lon="4.73929">
        <ele>407.989683</ele>
        <time>2026-07-07T10:50:04.146Z</time>
      </trkpt>
      <trkpt lat="45.26612" lon="4.73939">
        <ele>406.931393</ele>
        <time>2026-07-07T10:50:06.144Z</time>
      </trkpt>
      <trkpt lat="45.26598" lon="4.73939">
        <ele>406.064778</ele>
        <time>2026-07-07T10:50:08.147Z</time>
      </trkpt>
      <trkpt lat="45.26585" lon="4.73929">
        <ele>405.755138</ele>
        <time>2026-07-07T10:50:10.148Z</time>
      </trkpt>
      <trkpt lat="45.26573" lon="4.73913">
        <ele>405.558536</ele>
        <time>2026-07-07T10:50:12.147Z</time>
      </trkpt>
      <trkpt lat="45.26561" lon="4.73897">
        <ele>405.35481</ele>
        <time>2026-07-07T10:50:14.152Z</time>
      </trkpt>
      <trkpt lat="45.26549" lon="4.73883">
        <ele>405.157129</ele>
        <time>2026-07-07T10:50:16.149Z</time>
      </trkpt>
      <trkpt lat="45.26536" lon="4.7387">
        <ele>404.965909</ele>
        <time>2026-07-07T10:50:18.145Z</time>
      </trkpt>
      <trkpt lat="45.26523" lon="4.73862">
        <ele>404.799019</ele>
        <time>2026-07-07T10:50:20.151Z</time>
      </trkpt>
      <trkpt lat="45.26508" lon="4.73859">
        <ele>404.614662</ele>
        <time>2026-07-07T10:50:22.144Z</time>
      </trkpt>
      <trkpt lat="45.26493" lon="4.73856">
        <ele>404.420449</ele>
        <time>2026-07-07T10:50:24.153Z</time>
      </trkpt>
      <trkpt lat="45.26476" lon="4.73856">
        <ele>404.222496</ele>
        <time>2026-07-07T10:50:26.156Z</time>
      </trkpt>
      <trkpt lat="45.26462" lon="4.73854">
        <ele>404.040793</ele>
        <time>2026-07-07T10:50:28.152Z</time>
      </trkpt>
      <trkpt lat="45.26448" lon="4.73853">
        <ele>403.873393</ele>
        <time>2026-07-07T10:50:30.150Z</time>
      </trkpt>
      <trkpt lat="45.26434" lon="4.7385">
        <ele>403.734709</ele>
        <time>2026-07-07T10:50:32.120Z</time>
      </trkpt>
      <trkpt lat="45.26421" lon="4.73848">
        <ele>404.16572</ele>
        <time>2026-07-07T10:50:34.147Z</time>
      </trkpt>
      <trkpt lat="45.26406" lon="4.73845">
        <ele>404.635883</ele>
        <time>2026-07-07T10:50:36.145Z</time>
      </trkpt>
      <trkpt lat="45.26392" lon="4.73841">
        <ele>405.085537</ele>
        <time>2026-07-07T10:50:38.146Z</time>
      </trkpt>
      <trkpt lat="45.26379" lon="4.73837">
        <ele>405.513305</ele>
        <time>2026-07-07T10:50:40.150Z</time>
      </trkpt>
      <trkpt lat="45.26366" lon="4.73834">
        <ele>405.934901</ele>
        <time>2026-07-07T10:50:42.149Z</time>
      </trkpt>
      <trkpt lat="45.26353" lon="4.73829">
        <ele>406.342976</ele>
        <time>2026-07-07T10:50:44.152Z</time>
      </trkpt>
      <trkpt lat="45.26343" lon="4.73825">
        <ele>406.681026</ele>
        <time>2026-07-07T10:50:46.151Z</time>
      </trkpt>
      <trkpt lat="45.26333" lon="4.73822">
        <ele>407.011837</ele>
        <time>2026-07-07T10:50:48.146Z</time>
      </trkpt>
      <trkpt lat="45.26319" lon="4.73819">
        <ele>407.442393</ele>
        <time>2026-07-07T10:50:51.148Z</time>
      </trkpt>
      <trkpt lat="45.2631" lon="4.73815">
        <ele>407.759429</ele>
        <time>2026-07-07T10:50:53.149Z</time>
      </trkpt>
      <trkpt lat="45.26301" lon="4.73808">
        <ele>408.079908</ele>
        <time>2026-07-07T10:50:55.161Z</time>
      </trkpt>
      <trkpt lat="45.26293" lon="4.73803">
        <ele>408.368918</ele>
        <time>2026-07-07T10:50:57.150Z</time>
      </trkpt>
      <trkpt lat="45.26281" lon="4.73793">
        <ele>408.784605</ele>
        <time>2026-07-07T10:51:00.102Z</time>
      </trkpt>
      <trkpt lat="45.26274" lon="4.73784">
        <ele>409.100356</ele>
        <time>2026-07-07T10:51:02.114Z</time>
      </trkpt>
      <trkpt lat="45.26267" lon="4.73775">
        <ele>409.394798</ele>
        <time>2026-07-07T10:51:04.121Z</time>
      </trkpt>
      <trkpt lat="45.2626" lon="4.73766">
        <ele>408.79282</ele>
        <time>2026-07-07T10:51:06.151Z</time>
      </trkpt>
      <trkpt lat="45.26254" lon="4.73755">
        <ele>408.113454</ele>
        <time>2026-07-07T10:51:08.130Z</time>
      </trkpt>
      <trkpt lat="45.26247" lon="4.7374">
        <ele>407.282522</ele>
        <time>2026-07-07T10:51:10.121Z</time>
      </trkpt>
      <trkpt lat="45.26241" lon="4.73724">
        <ele>406.39283</ele>
        <time>2026-07-07T10:51:12.152Z</time>
      </trkpt>
      <trkpt lat="45.26235" lon="4.73705">
        <ele>405.409815</ele>
        <time>2026-07-07T10:51:14.142Z</time>
      </trkpt>
      <trkpt lat="45.26228" lon="4.73686">
        <ele>404.389858</ele>
        <time>2026-07-07T10:51:16.127Z</time>
      </trkpt>
      <trkpt lat="45.2622" lon="4.73664">
        <ele>403.202927</ele>
        <time>2026-07-07T10:51:18.151Z</time>
      </trkpt>
      <trkpt lat="45.26212" lon="4.73641">
        <ele>401.953094</ele>
        <time>2026-07-07T10:51:20.148Z</time>
      </trkpt>
      <trkpt lat="45.26203" lon="4.73618">
        <ele>400.70438</ele>
        <time>2026-07-07T10:51:22.153Z</time>
      </trkpt>
      <trkpt lat="45.26193" lon="4.73597">
        <ele>399.493726</ele>
        <time>2026-07-07T10:51:24.143Z</time>
      </trkpt>
      <trkpt lat="45.2618" lon="4.7358">
        <ele>398.307279</ele>
        <time>2026-07-07T10:51:26.166Z</time>
      </trkpt>
      <trkpt lat="45.26172" lon="4.73574">
        <ele>397.691581</ele>
        <time>2026-07-07T10:51:27.138Z</time>
      </trkpt>
      <trkpt lat="45.26163" lon="4.73572">
        <ele>397.126434</ele>
        <time>2026-07-07T10:51:28.149Z</time>
      </trkpt>
      <trkpt lat="45.26153" lon="4.73573">
        <ele>396.855079</ele>
        <time>2026-07-07T10:51:29.145Z</time>
      </trkpt>
      <trkpt lat="45.26143" lon="4.73577">
        <ele>396.567648</ele>
        <time>2026-07-07T10:51:30.142Z</time>
      </trkpt>
      <trkpt lat="45.26132" lon="4.73583">
        <ele>396.250323</ele>
        <time>2026-07-07T10:51:31.140Z</time>
      </trkpt>
      <trkpt lat="45.26122" lon="4.73589">
        <ele>395.945189</ele>
        <time>2026-07-07T10:51:32.145Z</time>
      </trkpt>
      <trkpt lat="45.26112" lon="4.73597">
        <ele>395.643126</ele>
        <time>2026-07-07T10:51:33.156Z</time>
      </trkpt>
      <trkpt lat="45.26103" lon="4.73606">
        <ele>395.345259</ele>
        <time>2026-07-07T10:51:34.143Z</time>
      </trkpt>
      <trkpt lat="45.26094" lon="4.73616">
        <ele>395.042938</ele>
        <time>2026-07-07T10:51:35.142Z</time>
      </trkpt>
      <trkpt lat="45.26087" lon="4.73626">
        <ele>394.767039</ele>
        <time>2026-07-07T10:51:36.142Z</time>
      </trkpt>
      <trkpt lat="45.2608" lon="4.73637">
        <ele>394.475899</ele>
        <time>2026-07-07T10:51:37.157Z</time>
      </trkpt>
      <trkpt lat="45.26072" lon="4.73647">
        <ele>394.196937</ele>
        <time>2026-07-07T10:51:38.151Z</time>
      </trkpt>
      <trkpt lat="45.26065" lon="4.73656">
        <ele>393.927176</ele>
        <time>2026-07-07T10:51:39.143Z</time>
      </trkpt>
      <trkpt lat="45.26056" lon="4.73663">
        <ele>393.666038</ele>
        <time>2026-07-07T10:51:40.148Z</time>
      </trkpt>
      <trkpt lat="45.26039" lon="4.73673">
        <ele>393.163243</ele>
        <time>2026-07-07T10:51:42.151Z</time>
      </trkpt>
      <trkpt lat="45.26029" lon="4.73675">
        <ele>392.883484</ele>
        <time>2026-07-07T10:51:43.160Z</time>
      </trkpt>
      <trkpt lat="45.26019" lon="4.73676">
        <ele>392.605636</ele>
        <time>2026-07-07T10:51:44.145Z</time>
      </trkpt>
      <trkpt lat="45.26" lon="4.73679">
        <ele>392.509821</ele>
        <time>2026-07-07T10:51:46.152Z</time>
      </trkpt>
      <trkpt lat="45.25991" lon="4.73683">
        <ele>392.763636</ele>
        <time>2026-07-07T10:51:47.144Z</time>
      </trkpt>
      <trkpt lat="45.25982" lon="4.73688">
        <ele>393.03508</ele>
        <time>2026-07-07T10:51:48.153Z</time>
      </trkpt>
      <trkpt lat="45.25968" lon="4.73699">
        <ele>393.496134</ele>
        <time>2026-07-07T10:51:50.147Z</time>
      </trkpt>
      <trkpt lat="45.25955" lon="4.73713">
        <ele>393.961598</ele>
        <time>2026-07-07T10:51:52.145Z</time>
      </trkpt>
      <trkpt lat="45.25944" lon="4.73725">
        <ele>394.349401</ele>
        <time>2026-07-07T10:51:54.158Z</time>
      </trkpt>
      <trkpt lat="45.25934" lon="4.73735">
        <ele>394.690147</ele>
        <time>2026-07-07T10:51:56.185Z</time>
      </trkpt>
      <trkpt lat="45.25922" lon="4.73741">
        <ele>395.048295</ele>
        <time>2026-07-07T10:51:58.115Z</time>
      </trkpt>
      <trkpt lat="45.25909" lon="4.73742">
        <ele>395.407451</ele>
        <time>2026-07-07T10:52:00.152Z</time>
      </trkpt>
      <trkpt lat="45.25897" lon="4.73742">
        <ele>395.749784</ele>
        <time>2026-07-07T10:52:02.152Z</time>
      </trkpt>
      <trkpt lat="45.25887" lon="4.73741">
        <ele>396.032269</ele>
        <time>2026-07-07T10:52:04.152Z</time>
      </trkpt>
      <trkpt lat="45.25878" lon="4.73736">
        <ele>396.285346</ele>
        <time>2026-07-07T10:52:06.150Z</time>
      </trkpt>
      <trkpt lat="45.25866" lon="4.7373">
        <ele>396.645562</ele>
        <time>2026-07-07T10:52:09.149Z</time>
      </trkpt>
      <trkpt lat="45.25856" lon="4.7372">
        <ele>396.995481</ele>
        <time>2026-07-07T10:52:12.153Z</time>
      </trkpt>
      <trkpt lat="45.25847" lon="4.73709">
        <ele>397.311929</ele>
        <time>2026-07-07T10:52:15.150Z</time>
      </trkpt>
      <trkpt lat="45.2584" lon="4.73698">
        <ele>397.991625</ele>
        <time>2026-07-07T10:52:18.168Z</time>
      </trkpt>
      <trkpt lat="45.25832" lon="4.73688">
        <ele>398.696487</ele>
        <time>2026-07-07T10:52:21.158Z</time>
      </trkpt>
      <trkpt lat="45.25825" lon="4.73678">
        <ele>399.406351</ele>
        <time>2026-07-07T10:52:24.190Z</time>
      </trkpt>
      <trkpt lat="45.25815" lon="4.73673">
        <ele>400.095923</ele>
        <time>2026-07-07T10:52:28.149Z</time>
      </trkpt>
      <trkpt lat="45.25806" lon="4.73663">
        <ele>400.872835</ele>
        <time>2026-07-07T10:52:32.144Z</time>
      </trkpt>
      <trkpt lat="45.25796" lon="4.73654">
        <ele>401.672642</ele>
        <time>2026-07-07T10:52:36.144Z</time>
      </trkpt>
      <trkpt lat="45.25787" lon="4.73646">
        <ele>402.364579</ele>
        <time>2026-07-07T10:52:39.156Z</time>
      </trkpt>
      <trkpt lat="45.25779" lon="4.73636">
        <ele>403.098242</ele>
        <time>2026-07-07T10:52:42.150Z</time>
      </trkpt>
      <trkpt lat="45.25772" lon="4.73628">
        <ele>403.717333</ele>
        <time>2026-07-07T10:52:45.138Z</time>
      </trkpt>
      <trkpt lat="45.25764" lon="4.73618">
        <ele>404.440439</ele>
        <time>2026-07-07T10:52:48.114Z</time>
      </trkpt>
      <trkpt lat="45.25756" lon="4.73609">
        <ele>405.107139</ele>
        <time>2026-07-07T10:52:51.140Z</time>
      </trkpt>
      <trkpt lat="45.25746" lon="4.73601">
        <ele>405.902718</ele>
        <time>2026-07-07T10:52:55.150Z</time>
      </trkpt>
      <trkpt lat="45.25735" lon="4.73594">
        <ele>406.718351</ele>
        <time>2026-07-07T10:52:59.151Z</time>
      </trkpt>
      <trkpt lat="45.25726" lon="4.73587">
        <ele>407.402034</ele>
        <time>2026-07-07T10:53:02.142Z</time>
      </trkpt>
      <trkpt lat="45.25716" lon="4.73577">
        <ele>408.23936</ele>
        <time>2026-07-07T10:53:06.152Z</time>
      </trkpt>
      <trkpt lat="45.25707" lon="4.73567">
        <ele>409.000735</ele>
        <time>2026-07-07T10:53:10.146Z</time>
      </trkpt>
      <trkpt lat="45.25698" lon="4.73559">
        <ele>409.654785</ele>
        <time>2026-07-07T10:53:14.151Z</time>
      </trkpt>
      <trkpt lat="45.2569" lon="4.73549">
        <ele>410.192813</ele>
        <time>2026-07-07T10:53:18.153Z</time>
      </trkpt>
      <trkpt lat="45.25684" lon="4.73537">
        <ele>410.689903</ele>
        <time>2026-07-07T10:53:22.202Z</time>
      </trkpt>
      <trkpt lat="45.25678" lon="4.73524">
        <ele>411.239723</ele>
        <time>2026-07-07T10:53:26.156Z</time>
      </trkpt>
      <trkpt lat="45.25673" lon="4.73509">
        <ele>411.805009</ele>
        <time>2026-07-07T10:53:30.141Z</time>
      </trkpt>
      <trkpt lat="45.25668" lon="4.73498">
        <ele>412.262552</ele>
        <time>2026-07-07T10:53:33.155Z</time>
      </trkpt>
      <trkpt lat="45.25662" lon="4.73487">
        <ele>412.745949</ele>
        <time>2026-07-07T10:53:36.154Z</time>
      </trkpt>
      <trkpt lat="45.25655" lon="4.73476">
        <ele>413.285782</ele>
        <time>2026-07-07T10:53:39.145Z</time>
      </trkpt>
      <trkpt lat="45.25648" lon="4.73462">
        <ele>413.868116</ele>
        <time>2026-07-07T10:53:42.150Z</time>
      </trkpt>
      <trkpt lat="45.25641" lon="4.73451">
        <ele>414.380762</ele>
        <time>2026-07-07T10:53:45.156Z</time>
      </trkpt>
      <trkpt lat="45.25633" lon="4.73441">
        <ele>414.905067</ele>
        <time>2026-07-07T10:53:48.150Z</time>
      </trkpt>
      <trkpt lat="45.25624" lon="4.7343">
        <ele>415.493454</ele>
        <time>2026-07-07T10:53:51.157Z</time>
      </trkpt>
      <trkpt lat="45.25614" lon="4.73423">
        <ele>416.008468</ele>
        <time>2026-07-07T10:53:54.161Z</time>
      </trkpt>
      <trkpt lat="45.25605" lon="4.7341">
        <ele>416.642866</ele>
        <time>2026-07-07T10:53:57.164Z</time>
      </trkpt>
      <trkpt lat="45.25597" lon="4.73403">
        <ele>417.141486</ele>
        <time>2026-07-07T10:54:00.145Z</time>
      </trkpt>
      <trkpt lat="45.25591" lon="4.73392">
        <ele>417.63006</ele>
        <time>2026-07-07T10:54:04.144Z</time>
      </trkpt>
      <trkpt lat="45.25579" lon="4.73385">
        <ele>418.270209</ele>
        <time>2026-07-07T10:54:06.137Z</time>
      </trkpt>
      <trkpt lat="45.2557" lon="4.73381">
        <ele>418.883971</ele>
        <time>2026-07-07T10:54:08.155Z</time>
      </trkpt>
      <trkpt lat="45.25561" lon="4.73375">
        <ele>419.624037</ele>
        <time>2026-07-07T10:54:11.140Z</time>
      </trkpt>
      <trkpt lat="45.25552" lon="4.7337">
        <ele>420.380802</ele>
        <time>2026-07-07T10:54:14.154Z</time>
      </trkpt>
      <trkpt lat="45.25543" lon="4.73365">
        <ele>421.065642</ele>
        <time>2026-07-07T10:54:17.152Z</time>
      </trkpt>
      <trkpt lat="45.25534" lon="4.7336">
        <ele>421.811099</ele>
        <time>2026-07-07T10:54:21.148Z</time>
      </trkpt>
      <trkpt lat="45.25525" lon="4.73353">
        <ele>422.587826</ele>
        <time>2026-07-07T10:54:25.152Z</time>
      </trkpt>
      <trkpt lat="45.25515" lon="4.73348">
        <ele>423.359482</ele>
        <time>2026-07-07T10:54:29.150Z</time>
      </trkpt>
      <trkpt lat="45.25505" lon="4.73344">
        <ele>424.139391</ele>
        <time>2026-07-07T10:54:33.142Z</time>
      </trkpt>
      <trkpt lat="45.25496" lon="4.7334">
        <ele>424.872447</ele>
        <time>2026-07-07T10:54:37.152Z</time>
      </trkpt>
      <trkpt lat="45.25485" lon="4.73333">
        <ele>425.73668</ele>
        <time>2026-07-07T10:54:41.161Z</time>
      </trkpt>
      <trkpt lat="45.25474" lon="4.73328">
        <ele>426.59073</ele>
        <time>2026-07-07T10:54:45.144Z</time>
      </trkpt>
      <trkpt lat="45.25465" lon="4.73322">
        <ele>427.312949</ele>
        <time>2026-07-07T10:54:48.165Z</time>
      </trkpt>
      <trkpt lat="45.25456" lon="4.73318">
        <ele>428.020508</ele>
        <time>2026-07-07T10:54:51.139Z</time>
      </trkpt>
      <trkpt lat="45.25446" lon="4.73314">
        <ele>428.833959</ele>
        <time>2026-07-07T10:54:55.141Z</time>
      </trkpt>
      <trkpt lat="45.25437" lon="4.73309">
        <ele>429.542615</ele>
        <time>2026-07-07T10:54:58.146Z</time>
      </trkpt>
      <trkpt lat="45.25428" lon="4.73304">
        <ele>430.267051</ele>
        <time>2026-07-07T10:55:01.149Z</time>
      </trkpt>
      <trkpt lat="45.25419" lon="4.73297">
        <ele>431.011998</ele>
        <time>2026-07-07T10:55:04.143Z</time>
      </trkpt>
      <trkpt lat="45.2541" lon="4.73292">
        <ele>431.763911</ele>
        <time>2026-07-07T10:55:07.155Z</time>
      </trkpt>
      <trkpt lat="45.25398" lon="4.73287">
        <ele>432.627748</ele>
        <time>2026-07-07T10:55:11.146Z</time>
      </trkpt>
      <trkpt lat="45.25388" lon="4.73285">
        <ele>433.41332</ele>
        <time>2026-07-07T10:55:15.149Z</time>
      </trkpt>
      <trkpt lat="45.25377" lon="4.73284">
        <ele>434.203911</ele>
        <time>2026-07-07T10:55:19.148Z</time>
      </trkpt>
      <trkpt lat="45.25366" lon="4.7328">
        <ele>435.044089</ele>
        <time>2026-07-07T10:55:23.139Z</time>
      </trkpt>
      <trkpt lat="45.25356" lon="4.73275">
        <ele>435.875307</ele>
        <time>2026-07-07T10:55:27.145Z</time>
      </trkpt>
      <trkpt lat="45.25346" lon="4.73271">
        <ele>436.601165</ele>
        <time>2026-07-07T10:55:31.150Z</time>
      </trkpt>
      <trkpt lat="45.25336" lon="4.73264">
        <ele>437.462109</ele>
        <time>2026-07-07T10:55:35.144Z</time>
      </trkpt>
      <trkpt lat="45.25326" lon="4.73257">
        <ele>438.253986</ele>
        <time>2026-07-07T10:55:38.143Z</time>
      </trkpt>
      <trkpt lat="45.25318" lon="4.73251">
        <ele>438.940486</ele>
        <time>2026-07-07T10:55:41.146Z</time>
      </trkpt>
      <trkpt lat="45.2531" lon="4.73242">
        <ele>439.709559</ele>
        <time>2026-07-07T10:55:44.156Z</time>
      </trkpt>
      <trkpt lat="45.25302" lon="4.73232">
        <ele>440.485542</ele>
        <time>2026-07-07T10:55:47.138Z</time>
      </trkpt>
      <trkpt lat="45.25294" lon="4.73224">
        <ele>441.214664</ele>
        <time>2026-07-07T10:55:50.149Z</time>
      </trkpt>
      <trkpt lat="45.25286" lon="4.73213">
        <ele>442.069692</ele>
        <time>2026-07-07T10:55:53.140Z</time>
      </trkpt>
      <trkpt lat="45.25276" lon="4.73205">
        <ele>442.927939</ele>
        <time>2026-07-07T10:55:57.148Z</time>
      </trkpt>
      <trkpt lat="45.25267" lon="4.73199">
        <ele>443.625543</ele>
        <time>2026-07-07T10:56:00.117Z</time>
      </trkpt>
      <trkpt lat="45.25257" lon="4.73191">
        <ele>444.473453</ele>
        <time>2026-07-07T10:56:04.144Z</time>
      </trkpt>
      <trkpt lat="45.25249" lon="4.73184">
        <ele>445.147657</ele>
        <time>2026-07-07T10:56:07.162Z</time>
      </trkpt>
      <trkpt lat="45.25241" lon="4.73177">
        <ele>445.407303</ele>
        <time>2026-07-07T10:56:10.111Z</time>
      </trkpt>
      <trkpt lat="45.25232" lon="4.73167">
        <ele>445.706696</ele>
        <time>2026-07-07T10:56:13.145Z</time>
      </trkpt>
      <trkpt lat="45.25223" lon="4.73159">
        <ele>446.01241</ele>
        <time>2026-07-07T10:56:16.148Z</time>
      </trkpt>
      <trkpt lat="45.25213" lon="4.73151">
        <ele>446.324045</ele>
        <time>2026-07-07T10:56:20.166Z</time>
      </trkpt>
      <trkpt lat="45.25205" lon="4.73145">
        <ele>446.58679</ele>
        <time>2026-07-07T10:56:23.148Z</time>
      </trkpt>
      <trkpt lat="45.25195" lon="4.73139">
        <ele>446.873334</ele>
        <time>2026-07-07T10:56:27.151Z</time>
      </trkpt>
      <trkpt lat="45.25191" lon="4.73127">
        <ele>447.136222</ele>
        <time>2026-07-07T10:56:31.141Z</time>
      </trkpt>
      <trkpt lat="45.25191" lon="4.73111">
        <ele>447.442177</ele>
        <time>2026-07-07T10:56:35.146Z</time>
      </trkpt>
      <trkpt lat="45.25184" lon="4.731">
        <ele>447.734043</ele>
        <time>2026-07-07T10:56:39.151Z</time>
      </trkpt>
      <trkpt lat="45.25172" lon="4.73093">
        <ele>448.10512</ele>
        <time>2026-07-07T10:56:42.145Z</time>
      </trkpt>
      <trkpt lat="45.25161" lon="4.73089">
        <ele>448.414023</ele>
        <time>2026-07-07T10:56:45.149Z</time>
      </trkpt>
      <trkpt lat="45.2515" lon="4.73088">
        <ele>448.72421</ele>
        <time>2026-07-07T10:56:48.143Z</time>
      </trkpt>
      <trkpt lat="45.25138" lon="4.73088">
        <ele>449.0647</ele>
        <time>2026-07-07T10:56:51.149Z</time>
      </trkpt>
      <trkpt lat="45.25126" lon="4.73087">
        <ele>449.390265</ele>
        <time>2026-07-07T10:56:54.146Z</time>
      </trkpt>
      <trkpt lat="45.25115" lon="4.73081">
        <ele>449.716993</ele>
        <time>2026-07-07T10:56:57.145Z</time>
      </trkpt>
      <trkpt lat="45.25104" lon="4.73073">
        <ele>450.052624</ele>
        <time>2026-07-07T10:57:00.152Z</time>
      </trkpt>
      <trkpt lat="45.25095" lon="4.73068">
        <ele>450.12701</ele>
        <time>2026-07-07T10:57:02.143Z</time>
      </trkpt>
      <trkpt lat="45.25086" lon="4.73064">
        <ele>450.168856</ele>
        <time>2026-07-07T10:57:04.141Z</time>
      </trkpt>
      <trkpt lat="45.25076" lon="4.7306">
        <ele>450.210934</ele>
        <time>2026-07-07T10:57:06.133Z</time>
      </trkpt>
      <trkpt lat="45.25066" lon="4.73057">
        <ele>450.255756</ele>
        <time>2026-07-07T10:57:08.142Z</time>
      </trkpt>
      <trkpt lat="45.25056" lon="4.73056">
        <ele>450.298009</ele>
        <time>2026-07-07T10:57:10.154Z</time>
      </trkpt>
      <trkpt lat="45.25047" lon="4.73056">
        <ele>450.340446</ele>
        <time>2026-07-07T10:57:12.146Z</time>
      </trkpt>
      <trkpt lat="45.25037" lon="4.73053">
        <ele>450.384314</ele>
        <time>2026-07-07T10:57:14.138Z</time>
      </trkpt>
      <trkpt lat="45.25023" lon="4.73051">
        <ele>450.444519</ele>
        <time>2026-07-07T10:57:17.160Z</time>
      </trkpt>
      <trkpt lat="45.25013" lon="4.73047">
        <ele>450.490592</ele>
        <time>2026-07-07T10:57:19.144Z</time>
      </trkpt>
      <trkpt lat="45.25" lon="4.7304">
        <ele>450.547927</ele>
        <time>2026-07-07T10:57:22.144Z</time>
      </trkpt>
      <trkpt lat="45.24987" lon="4.73033">
        <ele>450.608239</ele>
        <time>2026-07-07T10:57:25.147Z</time>
      </trkpt>
      <trkpt lat="45.24977" lon="4.73031">
        <ele>450.651042</ele>
        <time>2026-07-07T10:57:27.149Z</time>
      </trkpt>
      <trkpt lat="45.24968" lon="4.73028">
        <ele>450.693421</ele>
        <time>2026-07-07T10:57:29.143Z</time>
      </trkpt>
      <trkpt lat="45.24956" lon="4.73024">
        <ele>450.746108</ele>
        <time>2026-07-07T10:57:32.155Z</time>
      </trkpt>
      <trkpt lat="45.2494" lon="4.73022">
        <ele>450.81631</ele>
        <time>2026-07-07T10:57:51.150Z</time>
      </trkpt>
      <trkpt lat="45.24931" lon="4.73018">
        <ele>450.857147</ele>
        <time>2026-07-07T10:57:56.151Z</time>
      </trkpt>
      <trkpt lat="45.24913" lon="4.73012">
        <ele>450.829354</ele>
        <time>2026-07-07T10:59:06.156Z</time>
      </trkpt>
      <trkpt lat="45.24901" lon="4.73008">
        <ele>450.799586</ele>
        <time>2026-07-07T10:59:10.150Z</time>
      </trkpt>
      <trkpt lat="45.24892" lon="4.73002">
        <ele>450.774568</ele>
        <time>2026-07-07T10:59:13.150Z</time>
      </trkpt>
      <trkpt lat="45.24883" lon="4.72994">
        <ele>450.747514</ele>
        <time>2026-07-07T10:59:16.147Z</time>
      </trkpt>
      <trkpt lat="45.24872" lon="4.72986">
        <ele>450.716335</ele>
        <time>2026-07-07T10:59:19.154Z</time>
      </trkpt>
      <trkpt lat="45.24862" lon="4.72985">
        <ele>450.690742</ele>
        <time>2026-07-07T10:59:21.147Z</time>
      </trkpt>
      <trkpt lat="45.24851" lon="4.72988">
        <ele>450.662932</ele>
        <time>2026-07-07T10:59:23.153Z</time>
      </trkpt>
      <trkpt lat="45.24839" lon="4.72994">
        <ele>450.631559</ele>
        <time>2026-07-07T10:59:25.153Z</time>
      </trkpt>
      <trkpt lat="45.24828" lon="4.72999">
        <ele>450.601641</ele>
        <time>2026-07-07T10:59:27.147Z</time>
      </trkpt>
      <trkpt lat="45.24812" lon="4.73004">
        <ele>450.561853</ele>
        <time>2026-07-07T10:59:29.131Z</time>
      </trkpt>
      <trkpt lat="45.24795" lon="4.73009">
        <ele>450.51786</ele>
        <time>2026-07-07T10:59:31.148Z</time>
      </trkpt>
      <trkpt lat="45.24778" lon="4.73015">
        <ele>450.473608</ele>
        <time>2026-07-07T10:59:33.148Z</time>
      </trkpt>
      <trkpt lat="45.24762" lon="4.73021">
        <ele>450.431458</ele>
        <time>2026-07-07T10:59:35.149Z</time>
      </trkpt>
      <trkpt lat="45.24746" lon="4.73025">
        <ele>450.092347</ele>
        <time>2026-07-07T10:59:37.148Z</time>
      </trkpt>
      <trkpt lat="45.24732" lon="4.7303">
        <ele>449.646166</ele>
        <time>2026-07-07T10:59:39.153Z</time>
      </trkpt>
      <trkpt lat="45.24717" lon="4.73036">
        <ele>449.193605</ele>
        <time>2026-07-07T10:59:41.152Z</time>
      </trkpt>
      <trkpt lat="45.24701" lon="4.73041">
        <ele>448.690242</ele>
        <time>2026-07-07T10:59:43.145Z</time>
      </trkpt>
      <trkpt lat="45.24686" lon="4.73047">
        <ele>448.229954</ele>
        <time>2026-07-07T10:59:45.156Z</time>
      </trkpt>
      <trkpt lat="45.2467" lon="4.73051">
        <ele>447.729432</ele>
        <time>2026-07-07T10:59:47.153Z</time>
      </trkpt>
      <trkpt lat="45.24654" lon="4.73056">
        <ele>447.236161</ele>
        <time>2026-07-07T10:59:49.117Z</time>
      </trkpt>
      <trkpt lat="45.24639" lon="4.7306">
        <ele>446.791018</ele>
        <time>2026-07-07T10:59:51.108Z</time>
      </trkpt>
      <trkpt lat="45.24624" lon="4.73067">
        <ele>446.312999</ele>
        <time>2026-07-07T10:59:53.110Z</time>
      </trkpt>
      <trkpt lat="45.24612" lon="4.73078">
        <ele>445.88711</ele>
        <time>2026-07-07T10:59:55.150Z</time>
      </trkpt>
      <trkpt lat="45.24598" lon="4.73088">
        <ele>445.396466</ele>
        <time>2026-07-07T10:59:57.150Z</time>
      </trkpt>
      <trkpt lat="45.24583" lon="4.731">
        <ele>444.938819</ele>
        <time>2026-07-07T10:59:59.154Z</time>
      </trkpt>
      <trkpt lat="45.24575" lon="4.73106">
        <ele>444.801542</ele>
        <time>2026-07-07T11:00:00.144Z</time>
      </trkpt>
      <trkpt lat="45.24561" lon="4.73118">
        <ele>444.557906</ele>
        <time>2026-07-07T11:00:02.141Z</time>
      </trkpt>
      <trkpt lat="45.24547" lon="4.73132">
        <ele>444.296878</ele>
        <time>2026-07-07T11:00:04.152Z</time>
      </trkpt>
      <trkpt lat="45.24533" lon="4.73146">
        <ele>444.037187</ele>
        <time>2026-07-07T11:00:06.156Z</time>
      </trkpt>
      <trkpt lat="45.24519" lon="4.73161">
        <ele>443.781149</ele>
        <time>2026-07-07T11:00:08.147Z</time>
      </trkpt>
      <trkpt lat="45.24509" lon="4.73181">
        <ele>443.520984</ele>
        <time>2026-07-07T11:00:10.142Z</time>
      </trkpt>
      <trkpt lat="45.245" lon="4.73203">
        <ele>443.256158</ele>
        <time>2026-07-07T11:00:12.146Z</time>
      </trkpt>
      <trkpt lat="45.24494" lon="4.73226">
        <ele>442.991323</ele>
        <time>2026-07-07T11:00:14.164Z</time>
      </trkpt>
      <trkpt lat="45.24486" lon="4.73248">
        <ele>442.735554</ele>
        <time>2026-07-07T11:00:16.152Z</time>
      </trkpt>
      <trkpt lat="45.24476" lon="4.73265">
        <ele>442.500969</ele>
        <time>2026-07-07T11:00:18.152Z</time>
      </trkpt>
      <trkpt lat="45.24469" lon="4.73272">
        <ele>442.363487</ele>
        <time>2026-07-07T11:00:19.152Z</time>
      </trkpt>
      <trkpt lat="45.24455" lon="4.73287">
        <ele>441.88367</ele>
        <time>2026-07-07T11:00:21.152Z</time>
      </trkpt>
      <trkpt lat="45.24441" lon="4.73301">
        <ele>441.319133</ele>
        <time>2026-07-07T11:00:23.152Z</time>
      </trkpt>
      <trkpt lat="45.24426" lon="4.73314">
        <ele>440.752242</ele>
        <time>2026-07-07T11:00:25.146Z</time>
      </trkpt>
      <trkpt lat="45.24419" lon="4.73321">
        <ele>440.455553</ele>
        <time>2026-07-07T11:00:26.162Z</time>
      </trkpt>
      <trkpt lat="45.2441" lon="4.73328">
        <ele>440.129767</ele>
        <time>2026-07-07T11:00:27.150Z</time>
      </trkpt>
      <trkpt lat="45.24401" lon="4.73335">
        <ele>439.801078</ele>
        <time>2026-07-07T11:00:28.156Z</time>
      </trkpt>
      <trkpt lat="45.24393" lon="4.73343">
        <ele>439.469388</ele>
        <time>2026-07-07T11:00:29.155Z</time>
      </trkpt>
      <trkpt lat="45.24386" lon="4.73352">
        <ele>439.155262</ele>
        <time>2026-07-07T11:00:30.149Z</time>
      </trkpt>
      <trkpt lat="45.24379" lon="4.73361">
        <ele>438.855872</ele>
        <time>2026-07-07T11:00:31.150Z</time>
      </trkpt>
      <trkpt lat="45.24372" lon="4.73369">
        <ele>438.545359</ele>
        <time>2026-07-07T11:00:32.161Z</time>
      </trkpt>
      <trkpt lat="45.24365" lon="4.73378">
        <ele>438.248914</ele>
        <time>2026-07-07T11:00:33.152Z</time>
      </trkpt>
      <trkpt lat="45.24358" lon="4.73387">
        <ele>437.932718</ele>
        <time>2026-07-07T11:00:34.140Z</time>
      </trkpt>
      <trkpt lat="45.24351" lon="4.73397">
        <ele>437.603027</ele>
        <time>2026-07-07T11:00:35.142Z</time>
      </trkpt>
      <trkpt lat="45.24343" lon="4.73406">
        <ele>437.277906</ele>
        <time>2026-07-07T11:00:36.152Z</time>
      </trkpt>
      <trkpt lat="45.24336" lon="4.73416">
        <ele>436.953082</ele>
        <time>2026-07-07T11:00:37.151Z</time>
      </trkpt>
      <trkpt lat="45.24328" lon="4.73424">
        <ele>436.641153</ele>
        <time>2026-07-07T11:00:38.157Z</time>
      </trkpt>
      <trkpt lat="45.24321" lon="4.73433">
        <ele>436.351249</ele>
        <time>2026-07-07T11:00:39.153Z</time>
      </trkpt>
      <trkpt lat="45.24313" lon="4.73442">
        <ele>436.116482</ele>
        <time>2026-07-07T11:00:40.149Z</time>
      </trkpt>
      <trkpt lat="45.24305" lon="4.73451">
        <ele>435.90545</ele>
        <time>2026-07-07T11:00:41.153Z</time>
      </trkpt>
      <trkpt lat="45.24292" lon="4.73467">
        <ele>435.509172</ele>
        <time>2026-07-07T11:00:43.158Z</time>
      </trkpt>
      <trkpt lat="45.24279" lon="4.73484">
        <ele>435.12617</ele>
        <time>2026-07-07T11:00:45.157Z</time>
      </trkpt>
      <trkpt lat="45.24271" lon="4.73492">
        <ele>434.925491</ele>
        <time>2026-07-07T11:00:46.144Z</time>
      </trkpt>
      <trkpt lat="45.24264" lon="4.73499">
        <ele>434.722193</ele>
        <time>2026-07-07T11:00:47.149Z</time>
      </trkpt>
      <trkpt lat="45.24251" lon="4.73514">
        <ele>434.352748</ele>
        <time>2026-07-07T11:00:49.160Z</time>
      </trkpt>
      <trkpt lat="45.24238" lon="4.73528">
        <ele>433.99958</ele>
        <time>2026-07-07T11:00:51.153Z</time>
      </trkpt>
      <trkpt lat="45.24226" lon="4.73542">
        <ele>433.655465</ele>
        <time>2026-07-07T11:00:53.153Z</time>
      </trkpt>
      <trkpt lat="45.24215" lon="4.73557">
        <ele>433.316737</ele>
        <time>2026-07-07T11:00:55.146Z</time>
      </trkpt>
      <trkpt lat="45.24203" lon="4.73572">
        <ele>432.972548</ele>
        <time>2026-07-07T11:00:57.146Z</time>
      </trkpt>
      <trkpt lat="45.24192" lon="4.7359">
        <ele>432.602987</ele>
        <time>2026-07-07T11:00:59.102Z</time>
      </trkpt>
      <trkpt lat="45.24179" lon="4.73605">
        <ele>432.267088</ele>
        <time>2026-07-07T11:01:01.145Z</time>
      </trkpt>
      <trkpt lat="45.2417" lon="4.73611">
        <ele>432.093005</ele>
        <time>2026-07-07T11:01:02.153Z</time>
      </trkpt>
      <trkpt lat="45.24157" lon="4.73623">
        <ele>431.805437</ele>
        <time>2026-07-07T11:01:04.145Z</time>
      </trkpt>
      <trkpt lat="45.24144" lon="4.73635">
        <ele>431.504981</ele>
        <time>2026-07-07T11:01:06.153Z</time>
      </trkpt>
      <trkpt lat="45.24132" lon="4.73647">
        <ele>431.235153</ele>
        <time>2026-07-07T11:01:08.146Z</time>
      </trkpt>
      <trkpt lat="45.24121" lon="4.7366">
        <ele>430.974338</ele>
        <time>2026-07-07T11:01:10.145Z</time>
      </trkpt>
      <trkpt lat="45.24109" lon="4.73674">
        <ele>430.690025</ele>
        <time>2026-07-07T11:01:12.152Z</time>
      </trkpt>
      <trkpt lat="45.24094" lon="4.73684">
        <ele>430.389482</ele>
        <time>2026-07-07T11:01:14.156Z</time>
      </trkpt>
      <trkpt lat="45.24085" lon="4.73688">
        <ele>430.209724</ele>
        <time>2026-07-07T11:01:15.149Z</time>
      </trkpt>
      <trkpt lat="45.24069" lon="4.73694">
        <ele>429.892304</ele>
        <time>2026-07-07T11:01:17.156Z</time>
      </trkpt>
      <trkpt lat="45.24052" lon="4.73702">
        <ele>429.572177</ele>
        <time>2026-07-07T11:01:19.151Z</time>
      </trkpt>
      <trkpt lat="45.24044" lon="4.73707">
        <ele>429.400979</ele>
        <time>2026-07-07T11:01:20.148Z</time>
      </trkpt>
      <trkpt lat="45.24035" lon="4.7371">
        <ele>429.231215</ele>
        <time>2026-07-07T11:01:21.144Z</time>
      </trkpt>
      <trkpt lat="45.24026" lon="4.73715">
        <ele>429.020791</ele>
        <time>2026-07-07T11:01:22.149Z</time>
      </trkpt>
      <trkpt lat="45.24016" lon="4.73719">
        <ele>428.708917</ele>
        <time>2026-07-07T11:01:23.152Z</time>
      </trkpt>
      <trkpt lat="45.24007" lon="4.73725">
        <ele>428.403844</ele>
        <time>2026-07-07T11:01:24.142Z</time>
      </trkpt>
      <trkpt lat="45.23998" lon="4.73731">
        <ele>428.089853</ele>
        <time>2026-07-07T11:01:25.155Z</time>
      </trkpt>
      <trkpt lat="45.23989" lon="4.73738">
        <ele>427.778382</ele>
        <time>2026-07-07T11:01:26.151Z</time>
      </trkpt>
      <trkpt lat="45.23979" lon="4.73746">
        <ele>427.430724</ele>
        <time>2026-07-07T11:01:27.152Z</time>
      </trkpt>
      <trkpt lat="45.23969" lon="4.73754">
        <ele>427.079365</ele>
        <time>2026-07-07T11:01:28.155Z</time>
      </trkpt>
      <trkpt lat="45.23961" lon="4.73763">
        <ele>426.776932</ele>
        <time>2026-07-07T11:01:29.142Z</time>
      </trkpt>
      <trkpt lat="45.23954" lon="4.73772">
        <ele>426.49215</ele>
        <time>2026-07-07T11:01:30.140Z</time>
      </trkpt>
      <trkpt lat="45.2394" lon="4.73787">
        <ele>425.942353</ele>
        <time>2026-07-07T11:01:32.137Z</time>
      </trkpt>
      <trkpt lat="45.23928" lon="4.73802">
        <ele>425.454758</ele>
        <time>2026-07-07T11:01:34.150Z</time>
      </trkpt>
      <trkpt lat="45.23917" lon="4.73812">
        <ele>425.069736</ele>
        <time>2026-07-07T11:01:36.151Z</time>
      </trkpt>
      <trkpt lat="45.23909" lon="4.73821">
        <ele>424.752012</ele>
        <time>2026-07-07T11:01:38.146Z</time>
      </trkpt>
      <trkpt lat="45.23901" lon="4.73828">
        <ele>424.457655</ele>
        <time>2026-07-07T11:01:40.149Z</time>
      </trkpt>
      <trkpt lat="45.23893" lon="4.73837">
        <ele>424.162212</ele>
        <time>2026-07-07T11:01:42.157Z</time>
      </trkpt>
      <trkpt lat="45.23885" lon="4.73846">
        <ele>423.834665</ele>
        <time>2026-07-07T11:01:44.152Z</time>
      </trkpt>
      <trkpt lat="45.23876" lon="4.73858">
        <ele>423.513851</ele>
        <time>2026-07-07T11:01:46.165Z</time>
      </trkpt>
      <trkpt lat="45.23867" lon="4.7387">
        <ele>423.263737</ele>
        <time>2026-07-07T11:01:48.146Z</time>
      </trkpt>
      <trkpt lat="45.2386" lon="4.73882">
        <ele>423.05251</ele>
        <time>2026-07-07T11:01:50.153Z</time>
      </trkpt>
      <trkpt lat="45.23851" lon="4.73893">
        <ele>422.814963</ele>
        <time>2026-07-07T11:01:52.156Z</time>
      </trkpt>
      <trkpt lat="45.23841" lon="4.73904">
        <ele>422.549465</ele>
        <time>2026-07-07T11:01:54.153Z</time>
      </trkpt>
      <trkpt lat="45.23828" lon="4.73917">
        <ele>422.236828</ele>
        <time>2026-07-07T11:01:56.159Z</time>
      </trkpt>
      <trkpt lat="45.23813" lon="4.73924">
        <ele>421.92639</ele>
        <time>2026-07-07T11:01:58.145Z</time>
      </trkpt>
      <trkpt lat="45.23797" lon="4.7392">
        <ele>421.597842</ele>
        <time>2026-07-07T11:02:00.152Z</time>
      </trkpt>
      <trkpt lat="45.23789" lon="4.73912">
        <ele>421.406678</ele>
        <time>2026-07-07T11:02:01.153Z</time>
      </trkpt>
      <trkpt lat="45.23783" lon="4.73903">
        <ele>421.218906</ele>
        <time>2026-07-07T11:02:02.155Z</time>
      </trkpt>
      <trkpt lat="45.23776" lon="4.73893">
        <ele>421.027458</ele>
        <time>2026-07-07T11:02:03.146Z</time>
      </trkpt>
      <trkpt lat="45.23763" lon="4.73875">
        <ele>420.659595</ele>
        <time>2026-07-07T11:02:05.153Z</time>
      </trkpt>
      <trkpt lat="45.23747" lon="4.73865">
        <ele>420.318133</ele>
        <time>2026-07-07T11:02:07.140Z</time>
      </trkpt>
      <trkpt lat="45.23732" lon="4.73858">
        <ele>420.00814</ele>
        <time>2026-07-07T11:02:09.150Z</time>
      </trkpt>
      <trkpt lat="45.23719" lon="4.73854">
        <ele>420.34658</ele>
        <time>2026-07-07T11:02:11.146Z</time>
      </trkpt>
      <trkpt lat="45.23707" lon="4.7385">
        <ele>420.66505</ele>
        <time>2026-07-07T11:02:13.147Z</time>
      </trkpt>
      <trkpt lat="45.23697" lon="4.73842">
        <ele>420.96611</ele>
        <time>2026-07-07T11:02:15.152Z</time>
      </trkpt>
      <trkpt lat="45.23687" lon="4.73832">
        <ele>421.268125</ele>
        <time>2026-07-07T11:02:17.150Z</time>
      </trkpt>
      <trkpt lat="45.23677" lon="4.73826">
        <ele>421.542929</ele>
        <time>2026-07-07T11:02:19.149Z</time>
      </trkpt>
      <trkpt lat="45.23666" lon="4.73826">
        <ele>421.80822</ele>
        <time>2026-07-07T11:02:21.141Z</time>
      </trkpt>
      <trkpt lat="45.23658" lon="4.73834">
        <ele>422.073029</ele>
        <time>2026-07-07T11:02:23.144Z</time>
      </trkpt>
      <trkpt lat="45.23651" lon="4.7385">
        <ele>422.402697</ele>
        <time>2026-07-07T11:02:25.142Z</time>
      </trkpt>
      <trkpt lat="45.23649" lon="4.73871">
        <ele>422.781832</ele>
        <time>2026-07-07T11:02:27.140Z</time>
      </trkpt>
      <trkpt lat="45.23644" lon="4.73888">
        <ele>423.119771</ele>
        <time>2026-07-07T11:02:29.150Z</time>
      </trkpt>
      <trkpt lat="45.23635" lon="4.739">
        <ele>423.411515</ele>
        <time>2026-07-07T11:02:31.152Z</time>
      </trkpt>
      <trkpt lat="45.23622" lon="4.73895">
        <ele>423.751342</ele>
        <time>2026-07-07T11:02:33.146Z</time>
      </trkpt>
      <trkpt lat="45.23613" lon="4.73884">
        <ele>424.046764</ele>
        <time>2026-07-07T11:02:35.141Z</time>
      </trkpt>
      <trkpt lat="45.23605" lon="4.73874">
        <ele>424.320794</ele>
        <time>2026-07-07T11:02:37.150Z</time>
      </trkpt>
      <trkpt lat="45.23598" lon="4.73865">
        <ele>424.56606</ele>
        <time>2026-07-07T11:02:39.141Z</time>
      </trkpt>
      <trkpt lat="45.23589" lon="4.73851">
        <ele>425.22202</ele>
        <time>2026-07-07T11:02:42.142Z</time>
      </trkpt>
      <trkpt lat="45.23579" lon="4.73839">
        <ele>425.841091</ele>
        <time>2026-07-07T11:02:45.155Z</time>
      </trkpt>
      <trkpt lat="45.2357" lon="4.73828">
        <ele>426.432299</ele>
        <time>2026-07-07T11:02:48.145Z</time>
      </trkpt>
      <trkpt lat="45.2356" lon="4.73818">
        <ele>427.020863</ele>
        <time>2026-07-07T11:02:51.140Z</time>
      </trkpt>
      <trkpt lat="45.23549" lon="4.7381">
        <ele>427.581598</ele>
        <time>2026-07-07T11:02:54.146Z</time>
      </trkpt>
      <trkpt lat="45.23539" lon="4.73804">
        <ele>428.134879</ele>
        <time>2026-07-07T11:02:57.137Z</time>
      </trkpt>
      <trkpt lat="45.23528" lon="4.73802">
        <ele>428.644247</ele>
        <time>2026-07-07T11:03:00.151Z</time>
      </trkpt>
      <trkpt lat="45.23517" lon="4.738">
        <ele>429.180327</ele>
        <time>2026-07-07T11:03:03.141Z</time>
      </trkpt>
      <trkpt lat="45.23505" lon="4.73797">
        <ele>429.759075</ele>
        <time>2026-07-07T11:03:06.145Z</time>
      </trkpt>
      <trkpt lat="45.23491" lon="4.73795">
        <ele>430.435243</ele>
        <time>2026-07-07T11:03:09.161Z</time>
      </trkpt>
      <trkpt lat="45.23479" lon="4.73791">
        <ele>431.02005</ele>
        <time>2026-07-07T11:03:12.150Z</time>
      </trkpt>
      <trkpt lat="45.23468" lon="4.73788">
        <ele>431.57521</ele>
        <time>2026-07-07T11:03:15.145Z</time>
      </trkpt>
      <trkpt lat="45.23457" lon="4.73786">
        <ele>432.108057</ele>
        <time>2026-07-07T11:03:18.145Z</time>
      </trkpt>
      <trkpt lat="45.23446" lon="4.73782">
        <ele>432.651633</ele>
        <time>2026-07-07T11:03:21.139Z</time>
      </trkpt>
      <trkpt lat="45.23436" lon="4.7378">
        <ele>433.130747</ele>
        <time>2026-07-07T11:03:24.143Z</time>
      </trkpt>
      <trkpt lat="45.23425" lon="4.73778">
        <ele>433.412763</ele>
        <time>2026-07-07T11:03:27.143Z</time>
      </trkpt>
      <trkpt lat="45.23414" lon="4.73777">
        <ele>433.658463</ele>
        <time>2026-07-07T11:03:30.144Z</time>
      </trkpt>
      <trkpt lat="45.23403" lon="4.73774">
        <ele>433.901089</ele>
        <time>2026-07-07T11:03:33.097Z</time>
      </trkpt>
      <trkpt lat="45.23392" lon="4.7377">
        <ele>434.14</ele>
        <time>2026-07-07T11:03:36.142Z</time>
      </trkpt>
      <trkpt lat="45.23383" lon="4.73768">
        <ele>434.345025</ele>
        <time>2026-07-07T11:03:39.138Z</time>
      </trkpt>
      <trkpt lat="45.23372" lon="4.73763">
        <ele>434.588089</ele>
        <time>2026-07-07T11:03:42.149Z</time>
      </trkpt>
      <trkpt lat="45.23361" lon="4.73759">
        <ele>434.834048</ele>
        <time>2026-07-07T11:03:45.116Z</time>
      </trkpt>
      <trkpt lat="45.2335" lon="4.73755">
        <ele>435.085944</ele>
        <time>2026-07-07T11:03:48.156Z</time>
      </trkpt>
      <trkpt lat="45.23338" lon="4.7375">
        <ele>435.368519</ele>
        <time>2026-07-07T11:03:51.102Z</time>
      </trkpt>
      <trkpt lat="45.23329" lon="4.73744">
        <ele>435.57358</ele>
        <time>2026-07-07T11:03:53.155Z</time>
      </trkpt>
      <trkpt lat="45.2332" lon="4.73741">
        <ele>435.773828</ele>
        <time>2026-07-07T11:03:55.149Z</time>
      </trkpt>
      <trkpt lat="45.2331" lon="4.73737">
        <ele>435.99846</ele>
        <time>2026-07-07T11:03:57.144Z</time>
      </trkpt>
      <trkpt lat="45.23299" lon="4.73734">
        <ele>436.231404</ele>
        <time>2026-07-07T11:03:59.151Z</time>
      </trkpt>
      <trkpt lat="45.23288" lon="4.73729">
        <ele>436.497285</ele>
        <time>2026-07-07T11:04:01.141Z</time>
      </trkpt>
      <trkpt lat="45.23276" lon="4.73722">
        <ele>436.78067</ele>
        <time>2026-07-07T11:04:03.155Z</time>
      </trkpt>
      <trkpt lat="45.23264" lon="4.73715">
        <ele>437.052299</ele>
        <time>2026-07-07T11:04:05.129Z</time>
      </trkpt>
      <trkpt lat="45.23253" lon="4.73706">
        <ele>436.919353</ele>
        <time>2026-07-07T11:04:07.146Z</time>
      </trkpt>
      <trkpt lat="45.23243" lon="4.73696">
        <ele>436.711222</ele>
        <time>2026-07-07T11:04:09.153Z</time>
      </trkpt>
      <trkpt lat="45.23232" lon="4.73687">
        <ele>436.478693</ele>
        <time>2026-07-07T11:04:11.114Z</time>
      </trkpt>
      <trkpt lat="45.2322" lon="4.73679">
        <ele>436.248242</ele>
        <time>2026-07-07T11:04:13.142Z</time>
      </trkpt>
      <trkpt lat="45.23208" lon="4.73671">
        <ele>436.01454</ele>
        <time>2026-07-07T11:04:15.146Z</time>
      </trkpt>
      <trkpt lat="45.23198" lon="4.73663">
        <ele>435.805239</ele>
        <time>2026-07-07T11:04:17.145Z</time>
      </trkpt>
      <trkpt lat="45.23185" lon="4.73656">
        <ele>435.560423</ele>
        <time>2026-07-07T11:04:19.150Z</time>
      </trkpt>
      <trkpt lat="45.23173" lon="4.73649">
        <ele>435.331032</ele>
        <time>2026-07-07T11:04:21.145Z</time>
      </trkpt>
      <trkpt lat="45.23161" lon="4.73641">
        <ele>435.106433</ele>
        <time>2026-07-07T11:04:23.141Z</time>
      </trkpt>
      <trkpt lat="45.2315" lon="4.73634">
        <ele>434.882328</ele>
        <time>2026-07-07T11:04:25.152Z</time>
      </trkpt>
      <trkpt lat="45.2314" lon="4.73625">
        <ele>434.684001</ele>
        <time>2026-07-07T11:04:27.149Z</time>
      </trkpt>
      <trkpt lat="45.2313" lon="4.73616">
        <ele>434.46928</ele>
        <time>2026-07-07T11:04:29.157Z</time>
      </trkpt>
      <trkpt lat="45.2312" lon="4.73609">
        <ele>434.269531</ele>
        <time>2026-07-07T11:04:31.145Z</time>
      </trkpt>
      <trkpt lat="45.23109" lon="4.73601">
        <ele>434.061371</ele>
        <time>2026-07-07T11:04:33.144Z</time>
      </trkpt>
      <trkpt lat="45.23099" lon="4.73593">
        <ele>434.00332</ele>
        <time>2026-07-07T11:04:35.151Z</time>
      </trkpt>
      <trkpt lat="45.23089" lon="4.73584">
        <ele>434.225672</ele>
        <time>2026-07-07T11:04:37.151Z</time>
      </trkpt>
      <trkpt lat="45.23081" lon="4.73575">
        <ele>434.426951</ele>
        <time>2026-07-07T11:04:39.142Z</time>
      </trkpt>
      <trkpt lat="45.23072" lon="4.73566">
        <ele>434.642219</ele>
        <time>2026-07-07T11:04:41.147Z</time>
      </trkpt>
      <trkpt lat="45.23061" lon="4.73556">
        <ele>434.877811</ele>
        <time>2026-07-07T11:04:43.140Z</time>
      </trkpt>
      <trkpt lat="45.23052" lon="4.7355">
        <ele>435.080031</ele>
        <time>2026-07-07T11:04:45.160Z</time>
      </trkpt>
      <trkpt lat="45.23041" lon="4.73545">
        <ele>435.294752</ele>
        <time>2026-07-07T11:04:47.142Z</time>
      </trkpt>
      <trkpt lat="45.23031" lon="4.7354">
        <ele>435.498203</ele>
        <time>2026-07-07T11:04:49.154Z</time>
      </trkpt>
      <trkpt lat="45.23019" lon="4.73538">
        <ele>435.718733</ele>
        <time>2026-07-07T11:04:51.151Z</time>
      </trkpt>
      <trkpt lat="45.23007" lon="4.73538">
        <ele>435.953288</ele>
        <time>2026-07-07T11:04:53.143Z</time>
      </trkpt>
      <trkpt lat="45.22994" lon="4.73542">
        <ele>436.211126</ele>
        <time>2026-07-07T11:04:55.142Z</time>
      </trkpt>
      <trkpt lat="45.22981" lon="4.73545">
        <ele>436.456536</ele>
        <time>2026-07-07T11:04:57.154Z</time>
      </trkpt>
      <trkpt lat="45.22968" lon="4.73547">
        <ele>436.701318</ele>
        <time>2026-07-07T11:04:59.155Z</time>
      </trkpt>
      <trkpt lat="45.22957" lon="4.73552">
        <ele>436.930574</ele>
        <time>2026-07-07T11:05:01.146Z</time>
      </trkpt>
      <trkpt lat="45.22946" lon="4.73558">
        <ele>437.151996</ele>
        <time>2026-07-07T11:05:03.165Z</time>
      </trkpt>
      <trkpt lat="45.22935" lon="4.73562">
        <ele>437.351037</ele>
        <time>2026-07-07T11:05:05.159Z</time>
      </trkpt>
      <trkpt lat="45.22924" lon="4.73561">
        <ele>437.205183</ele>
        <time>2026-07-07T11:05:07.146Z</time>
      </trkpt>
      <trkpt lat="45.22916" lon="4.73546">
        <ele>437.030483</ele>
        <time>2026-07-07T11:05:10.141Z</time>
      </trkpt>
      <trkpt lat="45.22917" lon="4.73532">
        <ele>436.899702</ele>
        <time>2026-07-07T11:05:12.151Z</time>
      </trkpt>
      <trkpt lat="45.22918" lon="4.73514">
        <ele>436.732013</ele>
        <time>2026-07-07T11:05:14.150Z</time>
      </trkpt>
      <trkpt lat="45.22917" lon="4.73497">
        <ele>436.567711</ele>
        <time>2026-07-07T11:05:16.130Z</time>
      </trkpt>
      <trkpt lat="45.22916" lon="4.73478">
        <ele>436.393096</ele>
        <time>2026-07-07T11:05:18.153Z</time>
      </trkpt>
      <trkpt lat="45.22917" lon="4.73462">
        <ele>436.239007</ele>
        <time>2026-07-07T11:05:20.152Z</time>
      </trkpt>
      <trkpt lat="45.22918" lon="4.73445">
        <ele>436.080523</ele>
        <time>2026-07-07T11:05:22.149Z</time>
      </trkpt>
      <trkpt lat="45.22919" lon="4.73428">
        <ele>435.921687</ele>
        <time>2026-07-07T11:05:24.153Z</time>
      </trkpt>
      <trkpt lat="45.22921" lon="4.7341">
        <ele>435.759583</ele>
        <time>2026-07-07T11:05:26.151Z</time>
      </trkpt>
      <trkpt lat="45.22925" lon="4.73391">
        <ele>435.572941</ele>
        <time>2026-07-07T11:05:28.145Z</time>
      </trkpt>
      <trkpt lat="45.22932" lon="4.73371">
        <ele>435.367295</ele>
        <time>2026-07-07T11:05:30.145Z</time>
      </trkpt>
      <trkpt lat="45.22938" lon="4.73353">
        <ele>435.178124</ele>
        <time>2026-07-07T11:05:32.145Z</time>
      </trkpt>
      <trkpt lat="45.22946" lon="4.73334">
        <ele>434.966575</ele>
        <time>2026-07-07T11:05:34.141Z</time>
      </trkpt>
      <trkpt lat="45.22954" lon="4.73314">
        <ele>434.563457</ele>
        <time>2026-07-07T11:05:36.151Z</time>
      </trkpt>
      <trkpt lat="45.22961" lon="4.73295">
        <ele>434.204541</ele>
        <time>2026-07-07T11:05:38.145Z</time>
      </trkpt>
      <trkpt lat="45.22971" lon="4.73276">
        <ele>433.793487</ele>
        <time>2026-07-07T11:05:40.121Z</time>
      </trkpt>
      <trkpt lat="45.2298" lon="4.73258">
        <ele>433.414724</ele>
        <time>2026-07-07T11:05:42.146Z</time>
      </trkpt>
      <trkpt lat="45.22989" lon="4.73239">
        <ele>433.027493</ele>
        <time>2026-07-07T11:05:44.143Z</time>
      </trkpt>
      <trkpt lat="45.22997" lon="4.7322">
        <ele>432.632011</ele>
        <time>2026-07-07T11:05:46.145Z</time>
      </trkpt>
      <trkpt lat="45.23005" lon="4.73199">
        <ele>432.220935</ele>
        <time>2026-07-07T11:05:48.146Z</time>
      </trkpt>
      <trkpt lat="45.23014" lon="4.73178">
        <ele>431.804413</ele>
        <time>2026-07-07T11:05:50.150Z</time>
      </trkpt>
      <trkpt lat="45.23024" lon="4.73155">
        <ele>431.346328</ele>
        <time>2026-07-07T11:05:52.153Z</time>
      </trkpt>
      <trkpt lat="45.23034" lon="4.73135">
        <ele>430.914062</ele>
        <time>2026-07-07T11:05:54.145Z</time>
      </trkpt>
      <trkpt lat="45.23046" lon="4.73116">
        <ele>430.441239</ele>
        <time>2026-07-07T11:05:56.147Z</time>
      </trkpt>
      <trkpt lat="45.23052" lon="4.73105">
        <ele>430.133716</ele>
        <time>2026-07-07T11:05:57.145Z</time>
      </trkpt>
      <trkpt lat="45.23058" lon="4.73096">
        <ele>429.830639</ele>
        <time>2026-07-07T11:05:58.128Z</time>
      </trkpt>
      <trkpt lat="45.23065" lon="4.73085">
        <ele>429.513291</ele>
        <time>2026-07-07T11:05:59.148Z</time>
      </trkpt>
      <trkpt lat="45.23071" lon="4.73075">
        <ele>429.209301</ele>
        <time>2026-07-07T11:06:00.146Z</time>
      </trkpt>
      <trkpt lat="45.23077" lon="4.73066">
        <ele>428.89767</ele>
        <time>2026-07-07T11:06:01.128Z</time>
      </trkpt>
      <trkpt lat="45.23084" lon="4.73055">
        <ele>428.568953</ele>
        <time>2026-07-07T11:06:02.100Z</time>
      </trkpt>
      <trkpt lat="45.23091" lon="4.73044">
        <ele>428.223976</ele>
        <time>2026-07-07T11:06:03.122Z</time>
      </trkpt>
      <trkpt lat="45.23098" lon="4.73034">
        <ele>427.893011</ele>
        <time>2026-07-07T11:06:04.145Z</time>
      </trkpt>
      <trkpt lat="45.23104" lon="4.73022">
        <ele>427.560077</ele>
        <time>2026-07-07T11:06:05.140Z</time>
      </trkpt>
      <trkpt lat="45.23109" lon="4.7301">
        <ele>427.251801</ele>
        <time>2026-07-07T11:06:06.148Z</time>
      </trkpt>
      <trkpt lat="45.23114" lon="4.72998">
        <ele>426.92224</ele>
        <time>2026-07-07T11:06:07.141Z</time>
      </trkpt>
      <trkpt lat="45.23119" lon="4.72987">
        <ele>426.609584</ele>
        <time>2026-07-07T11:06:08.150Z</time>
      </trkpt>
      <trkpt lat="45.23125" lon="4.72975">
        <ele>426.280195</ele>
        <time>2026-07-07T11:06:09.149Z</time>
      </trkpt>
      <trkpt lat="45.2313" lon="4.72963">
        <ele>425.965343</ele>
        <time>2026-07-07T11:06:10.146Z</time>
      </trkpt>
      <trkpt lat="45.23135" lon="4.72951">
        <ele>425.649449</ele>
        <time>2026-07-07T11:06:11.143Z</time>
      </trkpt>
      <trkpt lat="45.2314" lon="4.7294">
        <ele>425.338522</ele>
        <time>2026-07-07T11:06:12.143Z</time>
      </trkpt>
      <trkpt lat="45.23145" lon="4.72928">
        <ele>425.029899</ele>
        <time>2026-07-07T11:06:13.160Z</time>
      </trkpt>
      <trkpt lat="45.23151" lon="4.72918">
        <ele>424.717435</ele>
        <time>2026-07-07T11:06:14.154Z</time>
      </trkpt>
      <trkpt lat="45.23155" lon="4.72906">
        <ele>424.824839</ele>
        <time>2026-07-07T11:06:15.147Z</time>
      </trkpt>
      <trkpt lat="45.2316" lon="4.72894">
        <ele>424.948619</ele>
        <time>2026-07-07T11:06:16.145Z</time>
      </trkpt>
      <trkpt lat="45.23164" lon="4.72883">
        <ele>425.069808</ele>
        <time>2026-07-07T11:06:17.141Z</time>
      </trkpt>
      <trkpt lat="45.23169" lon="4.72871">
        <ele>425.193814</ele>
        <time>2026-07-07T11:06:18.153Z</time>
      </trkpt>
      <trkpt lat="45.23174" lon="4.7286">
        <ele>425.315376</ele>
        <time>2026-07-07T11:06:19.139Z</time>
      </trkpt>
      <trkpt lat="45.23183" lon="4.72838">
        <ele>425.554023</ele>
        <time>2026-07-07T11:06:21.151Z</time>
      </trkpt>
      <trkpt lat="45.23188" lon="4.72827">
        <ele>425.674175</ele>
        <time>2026-07-07T11:06:22.153Z</time>
      </trkpt>
      <trkpt lat="45.23198" lon="4.72808">
        <ele>425.895904</ele>
        <time>2026-07-07T11:06:24.144Z</time>
      </trkpt>
      <trkpt lat="45.23207" lon="4.72789">
        <ele>426.10544</ele>
        <time>2026-07-07T11:06:26.131Z</time>
      </trkpt>
      <trkpt lat="45.23216" lon="4.72771">
        <ele>426.311926</ele>
        <time>2026-07-07T11:06:28.147Z</time>
      </trkpt>
      <trkpt lat="45.23224" lon="4.72754">
        <ele>426.507092</ele>
        <time>2026-07-07T11:06:30.144Z</time>
      </trkpt>
      <trkpt lat="45.23234" lon="4.72737">
        <ele>426.703544</ele>
        <time>2026-07-07T11:06:32.151Z</time>
      </trkpt>
      <trkpt lat="45.23242" lon="4.72722">
        <ele>426.88582</ele>
        <time>2026-07-07T11:06:34.140Z</time>
      </trkpt>
      <trkpt lat="45.2325" lon="4.72705">
        <ele>427.071813</ele>
        <time>2026-07-07T11:06:36.146Z</time>
      </trkpt>
      <trkpt lat="45.23257" lon="4.72691">
        <ele>427.237722</ele>
        <time>2026-07-07T11:06:38.145Z</time>
      </trkpt>
      <trkpt lat="45.23266" lon="4.72675">
        <ele>427.42534</ele>
        <time>2026-07-07T11:06:40.144Z</time>
      </trkpt>
      <trkpt lat="45.23274" lon="4.7266">
        <ele>427.600178</ele>
        <time>2026-07-07T11:06:42.128Z</time>
      </trkpt>
      <trkpt lat="45.2328" lon="4.72645">
        <ele>427.772936</ele>
        <time>2026-07-07T11:06:44.156Z</time>
      </trkpt>
      <trkpt lat="45.23288" lon="4.72631">
        <ele>427.941474</ele>
        <time>2026-07-07T11:06:46.151Z</time>
      </trkpt>
      <trkpt lat="45.23295" lon="4.72617">
        <ele>428.098176</ele>
        <time>2026-07-07T11:06:48.154Z</time>
      </trkpt>
      <trkpt lat="45.23301" lon="4.72602">
        <ele>428.261043</ele>
        <time>2026-07-07T11:06:50.153Z</time>
      </trkpt>
      <trkpt lat="45.23308" lon="4.7259">
        <ele>428.410348</ele>
        <time>2026-07-07T11:06:52.152Z</time>
      </trkpt>
      <trkpt lat="45.23314" lon="4.72578">
        <ele>428.553278</ele>
        <time>2026-07-07T11:06:54.153Z</time>
      </trkpt>
      <trkpt lat="45.2332" lon="4.72564">
        <ele>428.703281</ele>
        <time>2026-07-07T11:06:56.150Z</time>
      </trkpt>
      <trkpt lat="45.23325" lon="4.72549">
        <ele>428.856877</ele>
        <time>2026-07-07T11:06:58.137Z</time>
      </trkpt>
      <trkpt lat="45.2333" lon="4.72535">
        <ele>429.008436</ele>
        <time>2026-07-07T11:07:00.146Z</time>
      </trkpt>
      <trkpt lat="45.23334" lon="4.72519">
        <ele>429.165231</ele>
        <time>2026-07-07T11:07:02.143Z</time>
      </trkpt>
      <trkpt lat="45.23336" lon="4.72506">
        <ele>429.291779</ele>
        <time>2026-07-07T11:07:04.152Z</time>
      </trkpt>
      <trkpt lat="45.2334" lon="4.72492">
        <ele>429.432071</ele>
        <time>2026-07-07T11:07:06.152Z</time>
      </trkpt>
      <trkpt lat="45.23344" lon="4.72478">
        <ele>429.564164</ele>
        <time>2026-07-07T11:07:08.159Z</time>
      </trkpt>
      <trkpt lat="45.23347" lon="4.72464">
        <ele>429.68539</ele>
        <time>2026-07-07T11:07:10.151Z</time>
      </trkpt>
      <trkpt lat="45.23351" lon="4.7245">
        <ele>429.806661</ele>
        <time>2026-07-07T11:07:12.146Z</time>
      </trkpt>
      <trkpt lat="45.23353" lon="4.72438">
        <ele>429.914398</ele>
        <time>2026-07-07T11:07:14.146Z</time>
      </trkpt>
      <trkpt lat="45.23358" lon="4.7242">
        <ele>430.070583</ele>
        <time>2026-07-07T11:07:17.153Z</time>
      </trkpt>
      <trkpt lat="45.2336" lon="4.72407">
        <ele>430.17906</ele>
        <time>2026-07-07T11:07:19.150Z</time>
      </trkpt>
      <trkpt lat="45.23363" lon="4.72394">
        <ele>430.285637</ele>
        <time>2026-07-07T11:07:21.157Z</time>
      </trkpt>
      <trkpt lat="45.23366" lon="4.72382">
        <ele>430.395946</ele>
        <time>2026-07-07T11:07:23.141Z</time>
      </trkpt>
      <trkpt lat="45.2337" lon="4.72369">
        <ele>430.506247</ele>
        <time>2026-07-07T11:07:25.152Z</time>
      </trkpt>
      <trkpt lat="45.23373" lon="4.72352">
        <ele>430.650621</ele>
        <time>2026-07-07T11:07:28.153Z</time>
      </trkpt>
      <trkpt lat="45.23377" lon="4.7234">
        <ele>430.759377</ele>
        <time>2026-07-07T11:07:30.145Z</time>
      </trkpt>
      <trkpt lat="45.2338" lon="4.72323">
        <ele>430.904204</ele>
        <time>2026-07-07T11:07:33.156Z</time>
      </trkpt>
      <trkpt lat="45.23383" lon="4.72307">
        <ele>431.039014</ele>
        <time>2026-07-07T11:07:36.147Z</time>
      </trkpt>
      <trkpt lat="45.23387" lon="4.72291">
        <ele>431.182173</ele>
        <time>2026-07-07T11:07:39.153Z</time>
      </trkpt>
      <trkpt lat="45.23392" lon="4.72273">
        <ele>431.337686</ele>
        <time>2026-07-07T11:07:42.160Z</time>
      </trkpt>
      <trkpt lat="45.23395" lon="4.72255">
        <ele>431.484429</ele>
        <time>2026-07-07T11:07:45.161Z</time>
      </trkpt>
      <trkpt lat="45.23398" lon="4.72243">
        <ele>431.598893</ele>
        <time>2026-07-07T11:07:47.150Z</time>
      </trkpt>
      <trkpt lat="45.234" lon="4.7223">
        <ele>431.767285</ele>
        <time>2026-07-07T11:07:49.143Z</time>
      </trkpt>
      <trkpt lat="45.23401" lon="4.72216">
        <ele>431.943432</ele>
        <time>2026-07-07T11:07:51.148Z</time>
      </trkpt>
      <trkpt lat="45.23403" lon="4.72201">
        <ele>432.137988</ele>
        <time>2026-07-07T11:07:53.151Z</time>
      </trkpt>
      <trkpt lat="45.23403" lon="4.72185">
        <ele>432.338275</ele>
        <time>2026-07-07T11:07:55.143Z</time>
      </trkpt>
      <trkpt lat="45.23403" lon="4.72169">
        <ele>432.54112</ele>
        <time>2026-07-07T11:07:57.150Z</time>
      </trkpt>
      <trkpt lat="45.23401" lon="4.72153">
        <ele>432.739588</ele>
        <time>2026-07-07T11:07:59.156Z</time>
      </trkpt>
      <trkpt lat="45.23397" lon="4.72136">
        <ele>432.966098</ele>
        <time>2026-07-07T11:08:01.145Z</time>
      </trkpt>
      <trkpt lat="45.23393" lon="4.72118">
        <ele>433.202532</ele>
        <time>2026-07-07T11:08:03.145Z</time>
      </trkpt>
      <trkpt lat="45.23388" lon="4.72103">
        <ele>433.419546</ele>
        <time>2026-07-07T11:08:05.149Z</time>
      </trkpt>
      <trkpt lat="45.23382" lon="4.72086">
        <ele>433.648326</ele>
        <time>2026-07-07T11:08:07.152Z</time>
      </trkpt>
      <trkpt lat="45.23377" lon="4.7207">
        <ele>433.874446</ele>
        <time>2026-07-07T11:08:09.146Z</time>
      </trkpt>
      <trkpt lat="45.23372" lon="4.72053">
        <ele>434.110195</ele>
        <time>2026-07-07T11:08:11.157Z</time>
      </trkpt>
      <trkpt lat="45.23368" lon="4.72035">
        <ele>434.345675</ele>
        <time>2026-07-07T11:08:13.151Z</time>
      </trkpt>
      <trkpt lat="45.23364" lon="4.72016">
        <ele>434.587688</ele>
        <time>2026-07-07T11:08:15.145Z</time>
      </trkpt>
      <trkpt lat="45.2336" lon="4.72001">
        <ele>434.792536</ele>
        <time>2026-07-07T11:08:17.144Z</time>
      </trkpt>
      <trkpt lat="45.23355" lon="4.71983">
        <ele>434.800726</ele>
        <time>2026-07-07T11:08:19.143Z</time>
      </trkpt>
      <trkpt lat="45.23351" lon="4.71966">
        <ele>434.808685</ele>
        <time>2026-07-07T11:08:21.151Z</time>
      </trkpt>
      <trkpt lat="45.23347" lon="4.7195">
        <ele>434.81598</ele>
        <time>2026-07-07T11:08:23.151Z</time>
      </trkpt>
      <trkpt lat="45.23344" lon="4.71933">
        <ele>434.823558</ele>
        <time>2026-07-07T11:08:25.150Z</time>
      </trkpt>
      <trkpt lat="45.23342" lon="4.71916">
        <ele>434.830656</ele>
        <time>2026-07-07T11:08:27.146Z</time>
      </trkpt>
      <trkpt lat="45.23341" lon="4.71901">
        <ele>434.837237</ele>
        <time>2026-07-07T11:08:29.157Z</time>
      </trkpt>
      <trkpt lat="45.2334" lon="4.71886">
        <ele>434.843896</ele>
        <time>2026-07-07T11:08:31.150Z</time>
      </trkpt>
      <trkpt lat="45.23341" lon="4.71868">
        <ele>434.85168</ele>
        <time>2026-07-07T11:08:33.145Z</time>
      </trkpt>
      <trkpt lat="45.23343" lon="4.7185">
        <ele>434.85933</ele>
        <time>2026-07-07T11:08:35.157Z</time>
      </trkpt>
      <trkpt lat="45.23346" lon="4.71834">
        <ele>434.866767</ele>
        <time>2026-07-07T11:08:37.142Z</time>
      </trkpt>
      <trkpt lat="45.23349" lon="4.71815">
        <ele>434.875274</ele>
        <time>2026-07-07T11:08:39.147Z</time>
      </trkpt>
      <trkpt lat="45.23353" lon="4.71796">
        <ele>434.883474</ele>
        <time>2026-07-07T11:08:41.156Z</time>
      </trkpt>
      <trkpt lat="45.23356" lon="4.7178">
        <ele>434.890786</ele>
        <time>2026-07-07T11:08:43.145Z</time>
      </trkpt>
      <trkpt lat="45.23361" lon="4.71762">
        <ele>434.899192</ele>
        <time>2026-07-07T11:08:45.154Z</time>
      </trkpt>
      <trkpt lat="45.23366" lon="4.71746">
        <ele>434.970165</ele>
        <time>2026-07-07T11:08:47.140Z</time>
      </trkpt>
      <trkpt lat="45.23371" lon="4.7173">
        <ele>435.094769</ele>
        <time>2026-07-07T11:08:49.144Z</time>
      </trkpt>
      <trkpt lat="45.23377" lon="4.71714">
        <ele>435.219194</ele>
        <time>2026-07-07T11:08:51.144Z</time>
      </trkpt>
      <trkpt lat="45.23383" lon="4.71697">
        <ele>435.347801</ele>
        <time>2026-07-07T11:08:53.145Z</time>
      </trkpt>
      <trkpt lat="45.23388" lon="4.71684">
        <ele>435.454704</ele>
        <time>2026-07-07T11:08:55.150Z</time>
      </trkpt>
      <trkpt lat="45.23392" lon="4.71669">
        <ele>435.56644</ele>
        <time>2026-07-07T11:08:57.149Z</time>
      </trkpt>
      <trkpt lat="45.23397" lon="4.71657">
        <ele>435.663103</ele>
        <time>2026-07-07T11:08:59.149Z</time>
      </trkpt>
      <trkpt lat="45.23403" lon="4.71645">
        <ele>435.762329</ele>
        <time>2026-07-07T11:09:01.144Z</time>
      </trkpt>
      <trkpt lat="45.2341" lon="4.71635">
        <ele>435.860659</ele>
        <time>2026-07-07T11:09:03.140Z</time>
      </trkpt>
      <trkpt lat="45.23418" lon="4.71627">
        <ele>435.961593</ele>
        <time>2026-07-07T11:09:05.160Z</time>
      </trkpt>
      <trkpt lat="45.23426" lon="4.71617">
        <ele>436.063065</ele>
        <time>2026-07-07T11:09:07.148Z</time>
      </trkpt>
      <trkpt lat="45.23426" lon="4.71604">
        <ele>436.15879</ele>
        <time>2026-07-07T11:09:09.146Z</time>
      </trkpt>
      <trkpt lat="45.2342" lon="4.71586">
        <ele>436.295535</ele>
        <time>2026-07-07T11:09:11.118Z</time>
      </trkpt>
      <trkpt lat="45.23416" lon="4.71569">
        <ele>436.423181</ele>
        <time>2026-07-07T11:09:13.150Z</time>
      </trkpt>
      <trkpt lat="45.23413" lon="4.71552">
        <ele>436.542948</ele>
        <time>2026-07-07T11:09:15.146Z</time>
      </trkpt>
      <trkpt lat="45.23409" lon="4.71534">
        <ele>436.676538</ele>
        <time>2026-07-07T11:09:17.144Z</time>
      </trkpt>
      <trkpt lat="45.23404" lon="4.71519">
        <ele>436.587183</ele>
        <time>2026-07-07T11:09:19.150Z</time>
      </trkpt>
      <trkpt lat="45.23398" lon="4.71503">
        <ele>436.472056</ele>
        <time>2026-07-07T11:09:21.150Z</time>
      </trkpt>
      <trkpt lat="45.23391" lon="4.71487">
        <ele>436.350489</ele>
        <time>2026-07-07T11:09:23.142Z</time>
      </trkpt>
      <trkpt lat="45.23386" lon="4.71469">
        <ele>436.23051</ele>
        <time>2026-07-07T11:09:25.148Z</time>
      </trkpt>
      <trkpt lat="45.2338" lon="4.71451">
        <ele>436.101483</ele>
        <time>2026-07-07T11:09:27.150Z</time>
      </trkpt>
      <trkpt lat="45.23377" lon="4.71431">
        <ele>435.974769</ele>
        <time>2026-07-07T11:09:29.141Z</time>
      </trkpt>
      <trkpt lat="45.23373" lon="4.7141">
        <ele>435.839276</ele>
        <time>2026-07-07T11:09:31.148Z</time>
      </trkpt>
      <trkpt lat="45.2337" lon="4.71389">
        <ele>435.701669</ele>
        <time>2026-07-07T11:09:33.143Z</time>
      </trkpt>
      <trkpt lat="45.23368" lon="4.71366">
        <ele>435.552224</ele>
        <time>2026-07-07T11:09:35.141Z</time>
      </trkpt>
      <trkpt lat="45.23364" lon="4.71342">
        <ele>435.400864</ele>
        <time>2026-07-07T11:09:37.170Z</time>
      </trkpt>
      <trkpt lat="45.23363" lon="4.71329">
        <ele>435.317056</ele>
        <time>2026-07-07T11:09:38.152Z</time>
      </trkpt>
      <trkpt lat="45.2336" lon="4.71306">
        <ele>435.168608</ele>
        <time>2026-07-07T11:09:40.146Z</time>
      </trkpt>
      <trkpt lat="45.23356" lon="4.71286">
        <ele>435.052448</ele>
        <time>2026-07-07T11:09:42.139Z</time>
      </trkpt>
      <trkpt lat="45.23352" lon="4.71264">
        <ele>434.996933</ele>
        <time>2026-07-07T11:09:44.151Z</time>
      </trkpt>
      <trkpt lat="45.23346" lon="4.71243">
        <ele>434.940261</ele>
        <time>2026-07-07T11:09:46.163Z</time>
      </trkpt>
      <trkpt lat="45.23342" lon="4.71221">
        <ele>434.882877</ele>
        <time>2026-07-07T11:09:48.156Z</time>
      </trkpt>
      <trkpt lat="45.23338" lon="4.71202">
        <ele>434.831261</ele>
        <time>2026-07-07T11:09:50.150Z</time>
      </trkpt>
      <trkpt lat="45.23335" lon="4.71183">
        <ele>434.781585</ele>
        <time>2026-07-07T11:09:52.142Z</time>
      </trkpt>
      <trkpt lat="45.23333" lon="4.71164">
        <ele>434.734316</ele>
        <time>2026-07-07T11:09:54.138Z</time>
      </trkpt>
      <trkpt lat="45.23334" lon="4.71143">
        <ele>434.680771</ele>
        <time>2026-07-07T11:09:56.156Z</time>
      </trkpt>
      <trkpt lat="45.23336" lon="4.71124">
        <ele>434.632373</ele>
        <time>2026-07-07T11:09:58.149Z</time>
      </trkpt>
      <trkpt lat="45.23338" lon="4.71104">
        <ele>434.580806</ele>
        <time>2026-07-07T11:10:00.145Z</time>
      </trkpt>
      <trkpt lat="45.2334" lon="4.71084">
        <ele>434.528925</ele>
        <time>2026-07-07T11:10:02.145Z</time>
      </trkpt>
      <trkpt lat="45.23342" lon="4.71063">
        <ele>434.475024</ele>
        <time>2026-07-07T11:10:04.152Z</time>
      </trkpt>
      <trkpt lat="45.23343" lon="4.71043">
        <ele>434.423683</ele>
        <time>2026-07-07T11:10:06.155Z</time>
      </trkpt>
      <trkpt lat="45.23344" lon="4.71021">
        <ele>434.470165</ele>
        <time>2026-07-07T11:10:08.149Z</time>
      </trkpt>
      <trkpt lat="45.23346" lon="4.70998">
        <ele>434.526453</ele>
        <time>2026-07-07T11:10:10.147Z</time>
      </trkpt>
      <trkpt lat="45.23348" lon="4.70974">
        <ele>434.585554</ele>
        <time>2026-07-07T11:10:12.145Z</time>
      </trkpt>
      <trkpt lat="45.2335" lon="4.70952">
        <ele>434.641473</ele>
        <time>2026-07-07T11:10:14.162Z</time>
      </trkpt>
      <trkpt lat="45.23351" lon="4.7093">
        <ele>434.695173</ele>
        <time>2026-07-07T11:10:16.149Z</time>
      </trkpt>
      <trkpt lat="45.23353" lon="4.70908">
        <ele>434.75048</ele>
        <time>2026-07-07T11:10:18.158Z</time>
      </trkpt>
      <trkpt lat="45.23355" lon="4.70885">
        <ele>434.807712</ele>
        <time>2026-07-07T11:10:20.154Z</time>
      </trkpt>
      <trkpt lat="45.23359" lon="4.70863">
        <ele>434.86197</ele>
        <time>2026-07-07T11:10:22.152Z</time>
      </trkpt>
      <trkpt lat="45.23362" lon="4.70842">
        <ele>434.916381</ele>
        <time>2026-07-07T11:10:24.144Z</time>
      </trkpt>
      <trkpt lat="45.23365" lon="4.70821">
        <ele>434.968953</ele>
        <time>2026-07-07T11:10:26.146Z</time>
      </trkpt>
      <trkpt lat="45.2337" lon="4.70801">
        <ele>435.019443</ele>
        <time>2026-07-07T11:10:28.150Z</time>
      </trkpt>
      <trkpt lat="45.23376" lon="4.70782">
        <ele>434.994351</ele>
        <time>2026-07-07T11:10:30.158Z</time>
      </trkpt>
      <trkpt lat="45.23384" lon="4.70761">
        <ele>434.842681</ele>
        <time>2026-07-07T11:10:32.146Z</time>
      </trkpt>
      <trkpt lat="45.23393" lon="4.70739">
        <ele>434.683988</ele>
        <time>2026-07-07T11:10:34.156Z</time>
      </trkpt>
      <trkpt lat="45.23401" lon="4.70715">
        <ele>434.521681</ele>
        <time>2026-07-07T11:10:36.150Z</time>
      </trkpt>
      <trkpt lat="45.23406" lon="4.70704">
        <ele>434.440968</ele>
        <time>2026-07-07T11:10:37.152Z</time>
      </trkpt>
      <trkpt lat="45.2341" lon="4.70692">
        <ele>434.353623</ele>
        <time>2026-07-07T11:10:38.151Z</time>
      </trkpt>
      <trkpt lat="45.23412" lon="4.70679">
        <ele>434.271374</ele>
        <time>2026-07-07T11:10:39.150Z</time>
      </trkpt>
      <trkpt lat="45.23414" lon="4.70666">
        <ele>434.19013</ele>
        <time>2026-07-07T11:10:40.152Z</time>
      </trkpt>
      <trkpt lat="45.23415" lon="4.70653">
        <ele>434.108352</ele>
        <time>2026-07-07T11:10:41.154Z</time>
      </trkpt>
      <trkpt lat="45.23416" lon="4.7064">
        <ele>434.028471</ele>
        <time>2026-07-07T11:10:42.144Z</time>
      </trkpt>
      <trkpt lat="45.23416" lon="4.70627">
        <ele>433.948011</ele>
        <time>2026-07-07T11:10:43.146Z</time>
      </trkpt>
      <trkpt lat="45.23415" lon="4.70614">
        <ele>433.866445</ele>
        <time>2026-07-07T11:10:44.156Z</time>
      </trkpt>
      <trkpt lat="45.23413" lon="4.70602">
        <ele>433.786492</ele>
        <time>2026-07-07T11:10:45.150Z</time>
      </trkpt>
      <trkpt lat="45.23408" lon="4.70579">
        <ele>433.637001</ele>
        <time>2026-07-07T11:10:47.148Z</time>
      </trkpt>
      <trkpt lat="45.23404" lon="4.70558">
        <ele>433.498896</ele>
        <time>2026-07-07T11:10:49.142Z</time>
      </trkpt>
      <trkpt lat="45.234" lon="4.70536">
        <ele>433.65535</ele>
        <time>2026-07-07T11:10:51.159Z</time>
      </trkpt>
      <trkpt lat="45.23398" lon="4.70515">
        <ele>433.937119</ele>
        <time>2026-07-07T11:10:53.142Z</time>
      </trkpt>
      <trkpt lat="45.23398" lon="4.70495">
        <ele>434.190816</ele>
        <time>2026-07-07T11:10:55.150Z</time>
      </trkpt>
      <trkpt lat="45.23399" lon="4.70476">
        <ele>434.446714</ele>
        <time>2026-07-07T11:10:57.156Z</time>
      </trkpt>
      <trkpt lat="45.23401" lon="4.70457">
        <ele>434.697177</ele>
        <time>2026-07-07T11:10:59.149Z</time>
      </trkpt>
      <trkpt lat="45.23403" lon="4.70438">
        <ele>434.942216</ele>
        <time>2026-07-07T11:11:01.152Z</time>
      </trkpt>
      <trkpt lat="45.23404" lon="4.70418">
        <ele>435.213726</ele>
        <time>2026-07-07T11:11:03.150Z</time>
      </trkpt>
      <trkpt lat="45.23406" lon="4.70398">
        <ele>435.475051</ele>
        <time>2026-07-07T11:11:05.145Z</time>
      </trkpt>
      <trkpt lat="45.2341" lon="4.70377">
        <ele>435.757524</ele>
        <time>2026-07-07T11:11:07.149Z</time>
      </trkpt>
      <trkpt lat="45.23414" lon="4.70356">
        <ele>436.035733</ele>
        <time>2026-07-07T11:11:09.152Z</time>
      </trkpt>
      <trkpt lat="45.23415" lon="4.70336">
        <ele>436.297971</ele>
        <time>2026-07-07T11:11:11.122Z</time>
      </trkpt>
      <trkpt lat="45.23417" lon="4.70318">
        <ele>436.545079</ele>
        <time>2026-07-07T11:11:13.152Z</time>
      </trkpt>
      <trkpt lat="45.2342" lon="4.70298">
        <ele>436.799716</ele>
        <time>2026-07-07T11:11:15.154Z</time>
      </trkpt>
      <trkpt lat="45.23425" lon="4.7028">
        <ele>436.963931</ele>
        <time>2026-07-07T11:11:17.155Z</time>
      </trkpt>
      <trkpt lat="45.23428" lon="4.70262">
        <ele>437.123301</ele>
        <time>2026-07-07T11:11:19.157Z</time>
      </trkpt>
      <trkpt lat="45.23433" lon="4.70246">
        <ele>437.269625</ele>
        <time>2026-07-07T11:11:21.151Z</time>
      </trkpt>
      <trkpt lat="45.23437" lon="4.70228">
        <ele>437.427521</ele>
        <time>2026-07-07T11:11:23.150Z</time>
      </trkpt>
      <trkpt lat="45.2344" lon="4.70212">
        <ele>437.56595</ele>
        <time>2026-07-07T11:11:25.148Z</time>
      </trkpt>
      <trkpt lat="45.2344" lon="4.70196">
        <ele>437.698306</ele>
        <time>2026-07-07T11:11:27.156Z</time>
      </trkpt>
      <trkpt lat="45.23439" lon="4.7018">
        <ele>437.837591</ele>
        <time>2026-07-07T11:11:29.148Z</time>
      </trkpt>
      <trkpt lat="45.23438" lon="4.70164">
        <ele>437.976174</ele>
        <time>2026-07-07T11:11:31.154Z</time>
      </trkpt>
      <trkpt lat="45.23436" lon="4.70147">
        <ele>438.118791</ele>
        <time>2026-07-07T11:11:33.154Z</time>
      </trkpt>
      <trkpt lat="45.23434" lon="4.70132">
        <ele>438.24772</ele>
        <time>2026-07-07T11:11:35.144Z</time>
      </trkpt>
      <trkpt lat="45.23432" lon="4.70119">
        <ele>438.361301</ele>
        <time>2026-07-07T11:11:37.148Z</time>
      </trkpt>
      <trkpt lat="45.23433" lon="4.70099">
        <ele>438.523274</ele>
        <time>2026-07-07T11:11:40.152Z</time>
      </trkpt>
      <trkpt lat="45.23433" lon="4.70081">
        <ele>438.67502</ele>
        <time>2026-07-07T11:11:43.148Z</time>
      </trkpt>
      <trkpt lat="45.23432" lon="4.70065">
        <ele>438.816775</ele>
        <time>2026-07-07T11:11:46.144Z</time>
      </trkpt>
      <trkpt lat="45.23432" lon="4.70049">
        <ele>438.963003</ele>
        <time>2026-07-07T11:11:49.146Z</time>
      </trkpt>
      <trkpt lat="45.23432" lon="4.70034">
        <ele>439.756887</ele>
        <time>2026-07-07T11:11:52.139Z</time>
      </trkpt>
      <trkpt lat="45.23432" lon="4.70019">
        <ele>440.535942</ele>
        <time>2026-07-07T11:11:55.166Z</time>
      </trkpt>
      <trkpt lat="45.23431" lon="4.70006">
        <ele>441.212938</ele>
        <time>2026-07-07T11:11:58.141Z</time>
      </trkpt>
      <trkpt lat="45.23431" lon="4.69993">
        <ele>441.877029</ele>
        <time>2026-07-07T11:12:01.160Z</time>
      </trkpt>
      <trkpt lat="45.23432" lon="4.69978">
        <ele>442.627021</ele>
        <time>2026-07-07T11:12:04.161Z</time>
      </trkpt>
      <trkpt lat="45.23432" lon="4.69965">
        <ele>443.318425</ele>
        <time>2026-07-07T11:12:07.149Z</time>
      </trkpt>
      <trkpt lat="45.23434" lon="4.69952">
        <ele>444.014055</ele>
        <time>2026-07-07T11:12:10.149Z</time>
      </trkpt>
      <trkpt lat="45.23434" lon="4.69939">
        <ele>444.699212</ele>
        <time>2026-07-07T11:12:13.143Z</time>
      </trkpt>
      <trkpt lat="45.23436" lon="4.69922">
        <ele>445.590001</ele>
        <time>2026-07-07T11:12:17.148Z</time>
      </trkpt>
      <trkpt lat="45.23437" lon="4.69907">
        <ele>446.362835</ele>
        <time>2026-07-07T11:12:20.149Z</time>
      </trkpt>
      <trkpt lat="45.2344" lon="4.69894">
        <ele>447.039017</ele>
        <time>2026-07-07T11:12:23.158Z</time>
      </trkpt>
      <trkpt lat="45.23442" lon="4.69882">
        <ele>447.70403</ele>
        <time>2026-07-07T11:12:26.147Z</time>
      </trkpt>
      <trkpt lat="45.23446" lon="4.69868">
        <ele>448.485096</ele>
        <time>2026-07-07T11:12:29.151Z</time>
      </trkpt>
      <trkpt lat="45.23451" lon="4.69853">
        <ele>449.325947</ele>
        <time>2026-07-07T11:12:33.165Z</time>
      </trkpt>
      <trkpt lat="45.23456" lon="4.69842">
        <ele>450.027703</ele>
        <time>2026-07-07T11:12:36.141Z</time>
      </trkpt>
      <trkpt lat="45.23461" lon="4.69827">
        <ele>450.8811</ele>
        <time>2026-07-07T11:12:39.149Z</time>
      </trkpt>
      <trkpt lat="45.23468" lon="4.69811">
        <ele>451.833076</ele>
        <time>2026-07-07T11:12:42.143Z</time>
      </trkpt>
      <trkpt lat="45.23472" lon="4.69798">
        <ele>452.101445</ele>
        <time>2026-07-07T11:12:44.145Z</time>
      </trkpt>
      <trkpt lat="45.23478" lon="4.69783">
        <ele>451.879919</ele>
        <time>2026-07-07T11:12:46.146Z</time>
      </trkpt>
      <trkpt lat="45.23484" lon="4.69767">
        <ele>451.654492</ele>
        <time>2026-07-07T11:12:48.158Z</time>
      </trkpt>
      <trkpt lat="45.2349" lon="4.69751">
        <ele>451.419004</ele>
        <time>2026-07-07T11:12:50.141Z</time>
      </trkpt>
      <trkpt lat="45.23496" lon="4.69733">
        <ele>451.167107</ele>
        <time>2026-07-07T11:12:52.152Z</time>
      </trkpt>
      <trkpt lat="45.23502" lon="4.69715">
        <ele>450.915866</ele>
        <time>2026-07-07T11:12:54.153Z</time>
      </trkpt>
      <trkpt lat="45.23508" lon="4.69698">
        <ele>450.673373</ele>
        <time>2026-07-07T11:12:56.145Z</time>
      </trkpt>
      <trkpt lat="45.23514" lon="4.6968">
        <ele>450.411871</ele>
        <time>2026-07-07T11:12:58.150Z</time>
      </trkpt>
      <trkpt lat="45.23519" lon="4.69661">
        <ele>450.156781</ele>
        <time>2026-07-07T11:13:00.143Z</time>
      </trkpt>
      <trkpt lat="45.23523" lon="4.69641">
        <ele>449.895653</ele>
        <time>2026-07-07T11:13:02.142Z</time>
      </trkpt>
      <trkpt lat="45.23528" lon="4.69619">
        <ele>449.598009</ele>
        <time>2026-07-07T11:13:04.139Z</time>
      </trkpt>
      <trkpt lat="45.23533" lon="4.69596">
        <ele>449.285294</ele>
        <time>2026-07-07T11:13:06.151Z</time>
      </trkpt>
      <trkpt lat="45.2354" lon="4.69571">
        <ele>448.955702</ele>
        <time>2026-07-07T11:13:08.135Z</time>
      </trkpt>
      <trkpt lat="45.23544" lon="4.69559">
        <ele>449.041945</ele>
        <time>2026-07-07T11:13:09.144Z</time>
      </trkpt>
      <trkpt lat="45.23548" lon="4.69547">
        <ele>449.137447</ele>
        <time>2026-07-07T11:13:10.138Z</time>
      </trkpt>
      <trkpt lat="45.23557" lon="4.69526">
        <ele>449.312646</ele>
        <time>2026-07-07T11:13:12.160Z</time>
      </trkpt>
      <trkpt lat="45.23566" lon="4.69508">
        <ele>449.474097</ele>
        <time>2026-07-07T11:13:14.143Z</time>
      </trkpt>
      <trkpt lat="45.23576" lon="4.69495">
        <ele>449.613852</ele>
        <time>2026-07-07T11:13:16.141Z</time>
      </trkpt>
      <trkpt lat="45.23589" lon="4.69486">
        <ele>449.760163</ele>
        <time>2026-07-07T11:13:18.136Z</time>
      </trkpt>
      <trkpt lat="45.23602" lon="4.69477">
        <ele>449.909248</ele>
        <time>2026-07-07T11:13:20.142Z</time>
      </trkpt>
      <trkpt lat="45.23613" lon="4.69468">
        <ele>450.039447</ele>
        <time>2026-07-07T11:13:22.158Z</time>
      </trkpt>
      <trkpt lat="45.23622" lon="4.69459">
        <ele>450.155973</ele>
        <time>2026-07-07T11:13:24.140Z</time>
      </trkpt>
      <trkpt lat="45.23633" lon="4.69451">
        <ele>450.285413</ele>
        <time>2026-07-07T11:13:26.151Z</time>
      </trkpt>
      <trkpt lat="45.23645" lon="4.69442">
        <ele>450.427806</ele>
        <time>2026-07-07T11:13:28.143Z</time>
      </trkpt>
      <trkpt lat="45.23658" lon="4.69433">
        <ele>450.57504</ele>
        <time>2026-07-07T11:13:30.140Z</time>
      </trkpt>
      <trkpt lat="45.23671" lon="4.69424">
        <ele>450.723494</ele>
        <time>2026-07-07T11:13:32.141Z</time>
      </trkpt>
      <trkpt lat="45.23685" lon="4.69412">
        <ele>450.570652</ele>
        <time>2026-07-07T11:13:34.144Z</time>
      </trkpt>
      <trkpt lat="45.23696" lon="4.69397">
        <ele>450.140808</ele>
        <time>2026-07-07T11:13:36.139Z</time>
      </trkpt>
      <trkpt lat="45.23705" lon="4.69379">
        <ele>449.720304</ele>
        <time>2026-07-07T11:13:38.157Z</time>
      </trkpt>
      <trkpt lat="45.23715" lon="4.69361">
        <ele>449.285584</ele>
        <time>2026-07-07T11:13:40.143Z</time>
      </trkpt>
      <trkpt lat="45.23721" lon="4.6934">
        <ele>448.846575</ele>
        <time>2026-07-07T11:13:42.166Z</time>
      </trkpt>
      <trkpt lat="45.23729" lon="4.69323">
        <ele>448.451058</ele>
        <time>2026-07-07T11:13:44.144Z</time>
      </trkpt>
      <trkpt lat="45.23734" lon="4.69301">
        <ele>447.998032</ele>
        <time>2026-07-07T11:13:46.148Z</time>
      </trkpt>
      <trkpt lat="45.23741" lon="4.69279">
        <ele>447.522662</ele>
        <time>2026-07-07T11:13:48.140Z</time>
      </trkpt>
      <trkpt lat="45.23748" lon="4.69256">
        <ele>447.037343</ele>
        <time>2026-07-07T11:13:50.144Z</time>
      </trkpt>
      <trkpt lat="45.23756" lon="4.69232">
        <ele>446.538728</ele>
        <time>2026-07-07T11:13:52.143Z</time>
      </trkpt>
      <trkpt lat="45.23761" lon="4.69221">
        <ele>446.282267</ele>
        <time>2026-07-07T11:13:53.150Z</time>
      </trkpt>
      <trkpt lat="45.23766" lon="4.6921">
        <ele>446.021549</ele>
        <time>2026-07-07T11:13:54.158Z</time>
      </trkpt>
      <trkpt lat="45.23772" lon="4.69199">
        <ele>445.864588</ele>
        <time>2026-07-07T11:13:55.154Z</time>
      </trkpt>
      <trkpt lat="45.23779" lon="4.69189">
        <ele>445.864588</ele>
        <time>2026-07-07T11:13:56.146Z</time>
      </trkpt>
      <trkpt lat="45.23785" lon="4.6918">
        <ele>445.864588</ele>
        <time>2026-07-07T11:13:57.147Z</time>
      </trkpt>
      <trkpt lat="45.23792" lon="4.69171">
        <ele>445.864588</ele>
        <time>2026-07-07T11:13:58.154Z</time>
      </trkpt>
      <trkpt lat="45.23799" lon="4.69162">
        <ele>445.864588</ele>
        <time>2026-07-07T11:13:59.140Z</time>
      </trkpt>
      <trkpt lat="45.23807" lon="4.69154">
        <ele>445.864588</ele>
        <time>2026-07-07T11:14:00.152Z</time>
      </trkpt>
      <trkpt lat="45.23816" lon="4.69146">
        <ele>445.864588</ele>
        <time>2026-07-07T11:14:01.102Z</time>
      </trkpt>
      <trkpt lat="45.23824" lon="4.69139">
        <ele>445.864588</ele>
        <time>2026-07-07T11:14:02.139Z</time>
      </trkpt>
      <trkpt lat="45.23832" lon="4.69134">
        <ele>445.864588</ele>
        <time>2026-07-07T11:14:03.153Z</time>
      </trkpt>
      <trkpt lat="45.23841" lon="4.69127">
        <ele>445.864588</ele>
        <time>2026-07-07T11:14:04.152Z</time>
      </trkpt>
      <trkpt lat="45.23849" lon="4.69121">
        <ele>445.864588</ele>
        <time>2026-07-07T11:14:05.139Z</time>
      </trkpt>
      <trkpt lat="45.23863" lon="4.69109">
        <ele>445.864588</ele>
        <time>2026-07-07T11:14:07.145Z</time>
      </trkpt>
      <trkpt lat="45.23875" lon="4.69099">
        <ele>445.864588</ele>
        <time>2026-07-07T11:14:09.154Z</time>
      </trkpt>
      <trkpt lat="45.23886" lon="4.69088">
        <ele>445.864588</ele>
        <time>2026-07-07T11:14:11.151Z</time>
      </trkpt>
      <trkpt lat="45.23896" lon="4.69078">
        <ele>445.864588</ele>
        <time>2026-07-07T11:14:13.149Z</time>
      </trkpt>
      <trkpt lat="45.23906" lon="4.69079">
        <ele>445.864588</ele>
        <time>2026-07-07T11:14:16.155Z</time>
      </trkpt>
      <trkpt lat="45.23914" lon="4.69089">
        <ele>445.864588</ele>
        <time>2026-07-07T11:14:19.150Z</time>
      </trkpt>
      <trkpt lat="45.23926" lon="4.69092">
        <ele>445.864588</ele>
        <time>2026-07-07T11:14:22.144Z</time>
      </trkpt>
      <trkpt lat="45.23937" lon="4.69097">
        <ele>445.864588</ele>
        <time>2026-07-07T11:14:25.140Z</time>
      </trkpt>
      <trkpt lat="45.23949" lon="4.69109">
        <ele>445.864588</ele>
        <time>2026-07-07T11:14:28.158Z</time>
      </trkpt>
      <trkpt lat="45.23952" lon="4.69123">
        <ele>445.864588</ele>
        <time>2026-07-07T11:14:31.141Z</time>
      </trkpt>
    </trkseg>
  </trk>
</gpx>